[[[{"header":{"parameterUnit":"kt","parameterCategory":2,"dx":1,"dy":1,"la1":29.285339999999998,"la2":30.599998999999997,"lo1":-89.70041500000002,"lo2":-87.6738589999976,"nx":112,"ny":82,"refTime":"2022-10-15T12:00:00:Z","depth":0,"parameterNumber":1,"parameterNumberName":"U-component_of_WINDS"},"data":[7.3166,7.3954,0.0,6.9004,6.8023,0.0,6.1198,0.0,6.0872,6.0776,6.1939,6.3541,6.5349,6.4544,6.4103,6.5825,6.5094,6.4544,0.0,6.5757,0.0,0.0,0.0,0.0,0.0,0.0,0.0,0.0,0.0,0.0,0.0,0.0,9.5242,9.7495,9.8141,9.8407,9.8407,9.6774,9.5104,9.3395,9.1533,9.0303,8.962,8.9521,8.9375,8.9108,8.9108,8.899,8.8771,8.8679,8.8612,8.8612,8.8612,8.8612,8.8612,8.8612,8.8577,8.847,8.8288,8.7734,8.679,8.5009,8.2901,8.0817,7.9846,7.8144,7.6759,7.8087,7.7261,7.6347,7.7993,7.756,7.7132,7.8701,7.9058,7.9058,7.9058,7.8273,7.7284,7.6465,7.5479,7.4582,7.3764,7.2975,7.2179,7.1139,7.0693,7.0563,7.0563,7.0563,7.0563,7.0563,7.0563,7.0481,7.0399,7.0015,7.0098,7.0613,6.9899,7.0206,7.187,7.094,7.0535,7.0898,7.0905,7.0453,6.9248,6.969,6.9473,6.8259,6.6572,6.5554,0.0,0.0,7.1222,6.6244,0.0,0.0,5.9836,5.9298,5.951,5.9028,6.0922,6.2522,6.1985,6.2286,6.3075,6.4133,6.4524,6.4723,0.0,0.0,0.0,0.0,0.0,0.0,0.0,0.0,0.0,0.0,0.0,0.0,0.0,9.1956,9.342,9.5787,9.6433,9.6736,9.6736,9.5066,9.3623,9.2522,9.0543,8.9568,8.948,8.9281,8.9082,8.8886,8.9,8.8856,8.8612,8.8612,8.8612,8.8612,8.8612,8.8612,8.8612,8.8612,8.8612,8.8543,8.8361,8.7781,8.6864,8.5638,8.3768,8.1843,8.0737,7.9085,7.7442,7.6931,7.6752,7.6943,7.7421,7.7952,7.8737,8.0307,8.0699,8.0699,8.0699,7.9879,7.8746,7.7453,7.6134,7.4828,7.3496,7.2833,7.2104,7.0774,7.0563,7.0563,7.0563,7.0563,7.0563,7.0563,7.0399,7.0233,7.0233,6.9728,6.9341,6.9124,6.8122,6.8209,6.9938,6.9387,6.9588,7.0904,7.0365,6.9885,6.9277,6.8864,6.8292,6.7648,6.5467,6.4449,6.9112,6.805,6.7089,6.3622,6.2772,6.2382,6.0632,6.141,6.217,6.07,6.2719,6.4312,6.2842,6.3004,6.3418,6.3454,6.4091,0.0,0.0,0.0,0.0,0.0,0.0,0.0,0.0,0.0,0.0,0.0,0.0,0.0,8.928,9.129,9.2323,9.2522,9.4117,9.499,9.499,9.3357,9.2522,9.2446,9.0502,8.9466,8.924,8.9221,8.8983,8.8645,8.8886,8.8856,8.8612,8.8612,8.8612,8.8612,8.8612,8.8612,8.8612,8.8612,8.8577,8.8435,8.8435,8.8363,8.791,8.5588,8.4819,8.4146,8.1014,7.9625,7.8878,7.7333,7.7624,7.8257,7.785,7.8844,8.0378,8.1948,8.2305,8.2305,8.2305,8.2233,8.1039,7.7222,7.5801,7.4458,7.2194,7.1727,7.1453,7.0726,7.0563,7.0563,7.0563,7.0563,7.0563,7.0563,6.9949,6.9524,6.9557,6.8714,6.7931,6.7056,6.6615,6.7005,6.8447,6.8698,6.9468,7.0784,6.9141,6.8249,6.792,6.6474,6.5503,6.5089,6.3751,6.314,6.4037,6.4693,6.5025,6.2287,6.2719,6.2941,5.9722,5.8499,5.8189,5.8913,5.8186,0.0,0.0,0.0,5.9744,6.0944,0.0,6.6833,0.0,0.0,0.0,0.0,0.0,0.0,0.0,0.0,0.0,0.0,0.0,8.4843,8.9393,9.0069,9.1023,9.2484,9.2978,9.3244,9.3244,9.275,9.1915,9.0662,8.977,8.9297,8.9206,8.8952,8.8734,8.8645,8.8712,8.8712,8.8612,8.8612,8.8612,8.8612,8.8612,8.8612,8.8612,8.8612,8.8612,8.8577,8.8577,8.8507,8.8288,8.7536,8.5823,8.394,8.3521,8.223,8.064,7.984,7.9532,7.9674,8.0727,8.127,8.1983,8.3553,8.391,8.391,8.391,8.2126,8.0243,7.9124,7.6446,7.3984,7.276,7.1651,7.0774,7.0645,7.0563,7.0563,7.0563,7.0563,7.0399,6.9898,6.9695,6.9232,6.8283,6.7953,6.746,6.6707,6.5651,6.528,6.5953,6.6042,6.6572,6.7653,6.7209,6.6797,6.6386,6.5915,6.5503,6.5059,6.2849,6.1689,6.1728,6.2199,6.2938,6.1795,6.2301,6.2366,5.9891,5.9077,5.8601,5.7613,0.0,0.0,0.0,0.0,0.0,0.0,6.4952,0.0,0.0,0.0,0.0,0.0,0.0,0.0,0.0,0.0,0.0,0.0,8.602,8.5757,8.9431,8.9621,9.0178,9.1421,9.1459,9.1459,9.1459,9.1459,9.0966,9.0016,8.9481,8.9204,8.9206,8.8832,8.8612,8.8612,8.8612,8.8612,8.8612,8.8612,8.8612,8.8612,8.8612,8.8612,8.8612,8.8612,8.8612,8.8612,8.8612,8.8577,8.8435,8.8363,8.6902,8.5202,8.4902,8.3514,8.1872,8.0938,8.0744,8.1092,8.1983,8.2697,8.3411,8.4338,8.4017,8.3732,8.4409,8.1858,7.939,7.939,7.6499,7.3739,7.2577,7.1375,7.0563,7.0563,7.0563,7.0563,7.0563,7.0563,7.0316,6.9642,6.9265,6.8616,6.7306,6.6929,6.6354,6.5471,6.4696,6.4264,6.4083,6.4621,6.5467,6.6696,6.5961,6.535,6.5033,6.4274,6.3402,6.2582,6.1118,6.0429,6.0784,6.0238,6.0906,6.1575,6.1536,6.1163,6.0822,0.0,6.1465,5.7964,0.0,0.0,0.0,0.0,0.0,0.0,0.0,0.0,7.0645,0.0,0.0,0.0,0.0,0.0,0.0,8.4943,8.5854,8.8802,8.6358,8.6133,8.9431,8.9621,8.9723,9.0016,9.0016,9.0016,9.0016,9.0016,9.0016,9.0016,8.9481,8.9204,8.9206,8.8832,8.8612,8.8612,8.8612,8.8612,8.8612,8.8612,8.8612,8.8612,8.8612,8.8612,8.8612,8.8612,8.8612,8.8612,8.8612,8.8577,8.847,8.8399,8.7904,8.714,8.5602,8.4423,8.325,8.1595,8.1784,8.2447,8.2269,8.3125,8.4017,8.4017,8.2947,8.234,8.3629,8.0992,7.8428,7.8324,7.5883,7.3297,7.1812,7.1014,7.0563,7.0563,7.0563,7.0563,7.0563,7.0481,7.0233,6.9557,6.8738,6.7834,6.6577,6.5795,6.4921,6.3946,6.3841,6.3599,6.2976,6.4083,6.528,6.6536,6.4838,6.3907,6.3907,6.2199,6.0572,5.9072,5.9072,5.9072,5.789,5.7968,5.8952,6.0017,6.0235,6.0651,0.0,0.0,0.0,0.0,0.0,0.0,0.0,0.0,0.0,0.0,0.0,0.0,0.0,0.0,0.0,0.0,0.0,0.0,0.0,8.7356,8.7883,8.8952,8.8426,8.8539,8.9544,8.9621,8.9723,9.0016,9.0016,9.0016,9.0016,9.0016,9.0016,9.0016,8.9481,8.9204,8.9206,8.8832,8.8612,8.8612,8.8612,8.8612,8.8612,8.8612,8.8612,8.8612,8.8612,8.8612,8.8612,8.8612,8.8612,8.8612,8.8612,8.8612,8.8543,8.8021,8.7984,8.7986,8.6753,8.6694,8.6647,8.4538,8.4037,8.3803,8.2554,8.152,8.0806,8.0806,8.0556,8.0285,7.9865,7.8248,7.6638,7.6044,7.3921,7.1871,7.0968,7.0645,7.0563,7.0563,7.0563,7.0563,7.0563,7.015,6.9438,6.8738,6.805,6.6929,6.5225,6.4921,6.4407,6.322,6.322,6.3083,6.2976,6.3215,6.3376,6.3456,6.3079,6.2661,6.2276,6.1901,6.0315,5.7713,5.7713,5.7713,5.5364,5.5711,5.7059,5.8936,5.8695,0.0,0.0,5.9787,5.9882,6.2225,6.1925,6.177,6.315,0.0,0.0,0.0,0.0,0.0,0.0,0.0,0.0,0.0,0.0,0.0,8.7413,8.7951,8.8454,8.8963,8.9028,8.9178,8.9581,8.9621,8.9723,9.0016,9.0016,9.0016,9.0016,9.0016,8.9979,8.9903,8.9443,8.9189,8.9086,8.8795,8.8612,8.8612,8.8612,8.8612,8.8612,8.8612,8.8612,8.8612,8.8612,8.8612,8.8612,8.8612,8.8612,8.8612,8.8612,8.8612,8.8577,8.8251,8.8325,8.8325,8.7132,8.7124,8.711,8.5284,8.3607,8.2327,8.2233,8.1662,8.0878,8.0093,7.9622,7.9222,7.8812,7.6221,7.415,7.4542,7.2717,7.1014,7.0645,7.0563,7.0831,7.1602,7.1703,7.1703,7.1703,7.1079,7.0055,6.8535,6.7589,6.6384,6.4849,6.4541,6.3991,6.3083,6.2976,6.2976,6.2976,6.2976,6.2868,6.2761,6.2495,6.1917,6.0996,6.0286,5.8602,5.643,5.643,5.643,5.2956,5.3696,5.5651,5.7556,5.6796,0.0,5.7876,5.8305,5.8772,0.0,6.1583,6.2715,6.3642,0.0,0.0,0.0,0.0,0.0,0.0,0.0,0.0,0.0,0.0,0.0,8.6733,8.7573,8.8316,8.8963,8.9028,8.9178,8.9581,8.9621,8.9723,9.0016,9.0016,9.0016,9.0016,9.0016,8.9941,8.9789,8.9432,8.9157,8.9001,8.8754,8.8612,8.8612,8.8612,8.8612,8.8612,8.8612,8.8612,8.8612,8.8612,8.8612,8.8612,8.8612,8.8612,8.8612,8.8612,8.8612,8.8612,8.8543,8.8283,8.7803,8.669,8.6132,8.5697,8.4717,8.234,8.0389,8.187,8.1455,8.0398,7.9437,7.838,7.7552,7.7377,7.4385,7.2068,7.3185,7.1871,7.0563,7.0563,7.0563,7.0999,7.2037,7.2472,7.2588,7.2468,7.1793,7.0585,6.8809,6.7279,6.5992,6.4819,6.426,6.3705,6.2976,6.2976,6.2976,6.2976,6.2976,6.2976,6.2976,6.2574,6.1666,6.02,5.8899,5.7136,5.5264,5.5112,5.4986,5.0839,5.2327,5.5179,5.511,5.4098,0.0,6.0306,6.1393,6.2448,0.0,6.8769,6.9477,6.9591,6.9966,0.0,0.0,0.0,0.0,0.0,0.0,0.0,0.0,0.0,0.0,8.5026,8.6495,8.7839,8.8935,8.9028,8.9178,8.9581,8.9621,8.9723,9.0016,9.0016,9.0016,9.0016,9.0016,8.9941,8.9788,8.9412,8.9156,8.9001,8.8754,8.8612,8.8612,8.8612,8.8612,8.8612,8.8612,8.8612,8.8612,8.8612,8.8612,8.8612,8.8612,8.8612,8.8612,8.8612,8.8612,8.8577,8.8099,8.6978,8.567,8.4615,8.3312,8.2354,8.2988,8.1738,8.0451,8.2026,7.8704,7.5251,7.645,7.5101,7.3353,7.266,7.2118,7.1565,7.1056,7.0745,7.0563,7.0563,7.0563,7.0466,7.0012,7.0966,7.1438,7.0894,7.0119,6.9579,6.9323,6.7077,6.5427,6.4849,6.426,6.3705,6.2976,6.2976,6.2976,6.2976,6.2976,6.2976,6.2976,6.2976,6.2049,6.02,5.9538,5.7675,5.4709,5.4043,5.363,4.9528,4.9929,5.1445,5.3835,0.0,0.0,5.8696,5.93,6.0136,0.0,6.657,6.7187,6.863,6.9112,0.0,0.0,0.0,0.0,0.0,0.0,0.0,0.0,0.0,0.0,0.0,8.4084,8.4935,8.6117,8.711,8.7749,8.79,8.8978,8.9723,9.0016,9.0016,9.0016,9.0016,8.9941,8.9819,8.9674,8.9355,8.9126,8.8915,8.8782,8.8716,8.8612,8.8612,8.8612,8.8612,8.8612,8.8612,8.8612,8.8612,8.8612,8.8612,8.8612,8.8612,8.8462,8.7243,8.6835,8.6611,8.5136,8.4232,8.3592,8.2854,8.2165,8.1478,8.0633,8.0432,8.0338,7.9919,7.7694,7.5427,7.521,7.4334,7.3243,7.2008,7.1375,7.0934,7.0645,7.0563,7.0563,7.0563,7.0233,7.0163,7.0734,7.1644,7.2136,7.1855,7.1896,7.1145,6.9123,6.7263,6.5649,6.4395,6.3675,6.322,6.2976,6.2976,6.2976,6.2976,6.2976,6.2976,6.2976,6.2976,6.2297,6.0825,5.8837,5.6825,5.4581,5.3785,5.3501,4.8928,0.0,0.0,0.0,0.0,0.0,5.7096,5.7775,5.8691,6.3141,6.4587,6.5719,6.7668,6.8225,6.8551,0.0,0.0,0.0,0.0,0.0,0.0,0.0,0.0,0.0,0.0,0.0,0.0,0.0,8.5279,8.602,8.602,8.7842,8.9242,8.9978,9.0016,8.9979,8.9941,8.9827,8.9709,8.9543,8.9359,8.9081,8.8833,8.8846,8.8749,8.8612,8.8612,8.8612,8.8612,8.8612,8.8612,8.8612,8.8612,8.8612,8.8574,8.8088,8.7905,8.7466,8.5494,8.4781,8.4436,8.2746,8.1902,8.1443,8.0946,8.0464,7.9778,7.8265,7.8947,7.964,7.7659,7.6367,7.544,7.4736,7.3942,7.3014,7.188,7.1207,7.076,7.076,7.0645,7.0563,7.0563,7.0033,6.9887,7.0647,7.139,7.1767,7.1574,7.1952,7.1323,6.879,6.7383,6.5949,6.4247,6.3794,6.3257,6.2682,6.2653,6.2544,6.2188,6.2188,6.2188,6.2188,6.2188,6.1637,6.0286,5.8274,5.629,5.4583,5.4094,5.3656,0.0,0.0,0.0,5.384,5.3027,5.2913,5.6973,5.8789,6.0414,6.3235,6.5817,6.792,6.897,6.9145,6.9145,6.9232,0.0,0.0,0.0,0.0,0.0,0.0,0.0,0.0,0.0,0.0,0.0,0.0,8.4152,8.4253,8.4253,8.611,8.8051,8.994,9.0016,8.9941,8.9789,8.9789,8.9657,8.942,8.9282,8.9081,8.8833,8.8846,8.8749,8.8612,8.8612,8.8612,8.8612,8.8612,8.8612,8.8612,8.8612,8.8612,8.8425,8.6779,8.5938,8.538,8.3669,8.2798,8.2406,8.1816,8.0608,7.9303,7.8753,7.7505,7.6168,7.6078,7.727,7.8097,7.574,7.4134,7.3565,7.5023,7.3374,7.1376,7.1342,7.1342,7.1342,7.1342,7.0955,7.0563,7.0563,7.0033,6.9351,6.8625,6.9091,6.9224,6.8627,6.8559,6.859,6.8496,6.7341,6.6116,6.487,6.4823,6.3992,6.1754,6.1666,6.122,6.0429,6.0315,6.0315,6.0315,6.0315,5.9595,5.8062,5.7943,5.6795,5.466,5.4609,5.4171,4.9894,5.0066,5.0867,5.337,5.2954,5.3071,5.6776,5.8261,5.9313,6.1069,6.3548,6.5435,6.5805,6.7125,6.8438,6.9058,6.9949,0.0,0.0,0.0,0.0,0.0,0.0,0.0,0.0,0.0,0.0,0.0,0.0,0.0,8.2611,8.4379,8.6274,8.8118,8.827,8.8802,8.9789,8.9735,8.9616,8.9431,8.9188,8.899,8.8833,8.8802,8.8777,8.8612,8.8612,8.7976,8.7041,8.8163,8.8612,8.8499,8.7378,8.6792,8.6388,8.4675,8.3816,8.3186,8.122,8.0441,8.0107,7.8454,7.7519,7.7032,7.6891,7.6439,7.6006,7.6006,7.6184,7.6282,7.5513,7.4734,7.4108,7.4021,7.2843,7.1744,7.1744,7.1545,7.1342,7.1342,7.0921,7.0563,7.0563,6.9609,6.8738,6.847,6.8587,6.8664,6.8464,6.9245,6.9363,6.8084,6.7579,6.6504,6.4352,6.4204,6.3514,6.1725,6.1585,6.122,6.0315,6.0315,6.0315,6.0315,6.0315,5.9128,5.7028,5.6537,5.5726,5.4556,5.4068,5.3656,5.0936,5.0702,5.0896,5.3885,5.3943,5.3804,5.6131,5.7389,5.8251,5.9071,6.1531,6.367,6.3925,6.5685,6.7461,6.8959,6.9864,7.0645,7.1229,0.0,0.0,0.0,0.0,0.0,0.0,0.0,0.0,0.0,0.0,8.0857,8.0919,8.266,8.4183,8.5355,8.6141,8.7052,8.805,8.7882,8.7712,8.7524,8.7373,8.7206,8.7063,8.7101,8.701,8.6958,8.7486,8.7116,8.6181,8.7163,8.754,8.7354,8.5494,8.4636,8.4213,8.2505,8.1665,8.1002,7.906,7.8269,7.7923,7.6492,7.6006,7.6006,7.6006,7.6006,7.5952,7.5843,7.56,7.5347,7.4918,7.461,7.4163,7.3359,7.2722,7.2316,7.2316,7.1898,7.1545,7.1545,7.0841,7.0233,7.0233,6.9003,6.805,6.805,6.7789,6.764,6.764,6.8458,6.8577,6.7333,6.7268,6.6295,6.3902,6.3778,6.294,6.0799,6.0656,6.02,5.9274,5.9274,5.9274,5.9274,5.9274,5.8329,5.6564,5.5898,5.509,5.3915,5.3605,5.3295,5.2123,5.2432,5.2701,5.5335,5.5602,5.5227,5.5227,5.6346,5.7439,5.7439,5.9982,6.2505,6.3356,6.464,6.6393,6.8642,6.922,6.9882,7.1149,7.2132,7.308,0.0,0.0,0.0,0.0,0.0,0.0,0.0,7.9141,7.929,7.9328,8.0948,8.1957,8.2057,8.3846,8.4867,8.4936,8.4695,8.4415,8.4178,8.4178,8.4088,8.3969,8.395,8.3817,8.3615,8.5167,8.5845,8.5812,8.5531,8.5415,8.5264,8.3149,8.2304,8.2193,8.038,7.9487,7.8915,7.7333,7.644,7.6006,7.6006,7.6006,7.6006,7.6006,7.6006,7.5898,7.5485,7.5405,7.5134,7.4098,7.3834,7.37,7.3184,7.3043,7.3043,7.3043,7.2464,7.194,7.1864,7.053,6.9557,6.9557,6.8413,6.7434,6.7434,6.677,6.6286,6.6189,6.6189,6.6189,6.6189,6.634,6.5646,6.3463,6.3363,6.2069,5.9039,5.8837,5.8337,5.7379,5.7379,5.7406,5.7461,5.7406,5.7015,5.636,5.5746,5.4472,5.2737,5.3196,5.2779,5.2879,5.3856,5.4637,5.5729,5.5602,5.5227,5.5227,5.5655,5.6147,5.6364,5.8543,6.0241,5.9743,6.3005,6.5892,6.6514,6.8679,7.0563,7.1229,7.24,7.339,7.3963,7.5086,7.6041,0.0,0.0,0.0,0.0,7.8813,7.919,7.9553,8.0032,8.0937,8.2294,8.2801,8.3652,8.4936,8.4698,8.4424,8.4178,8.4178,8.4088,8.3969,8.395,8.2571,8.0256,8.1832,8.2517,8.256,8.3335,8.4338,8.5076,8.1813,8.1084,8.145,7.8632,7.7272,7.6815,7.6327,7.6113,7.6006,7.6006,7.6006,7.6006,7.6006,7.5824,7.5543,7.5428,7.4857,7.4228,7.3967,7.3565,7.3254,7.3149,7.3043,7.3043,7.3043,7.2719,7.2016,7.0854,6.9576,6.8738,6.8738,6.805,6.7434,6.7434,6.677,6.5961,6.507,6.4969,6.4868,6.4491,6.3796,6.3215,6.2701,6.2064,6.0512,5.7749,5.7578,5.6842,5.5036,5.4893,5.533,5.6204,5.5358,5.4481,5.3607,5.3505,5.2805,5.1483,5.1486,5.1307,5.3543,5.4536,5.5304,5.5698,5.5479,5.5227,5.5227,5.5291,5.5479,5.5757,5.71,5.8201,5.845,6.0767,6.3246,6.5391,6.7235,6.905,7.0888,7.2404,7.3455,7.3862,7.5145,7.6183,7.6701,7.7181,7.7684,7.8304,7.8755,7.919,7.9553,7.9645,8.019,8.1284,8.136,8.1868,8.2816,8.2551,8.2363,8.2185,8.2072,8.1972,8.1882,8.1802,8.0696,7.9009,8.0656,8.1183,8.0946,8.1437,8.2452,8.3336,7.9641,7.9035,7.9981,7.7348,7.6235,7.6006,7.6006,7.6006,7.6006,7.6006,7.5898,7.5768,7.5768,7.5428,7.5014,7.4795,7.4293,7.3834,7.3565,7.3324,7.3043,7.3043,7.3043,7.2972,7.2577,7.2248,7.1531,7.0133,6.8882,6.7958,6.7958,6.7434,6.6961,6.6961,6.6577,6.5831,6.4736,6.4429,6.3986,6.3282,6.2396,6.163,6.1187,6.057,5.9283,5.7387,5.7359,5.6572,5.4812,5.4784,5.4839,5.4975,5.3774,5.2921,5.2382,5.1975,5.0989,4.9315,4.9298,4.9276,5.4755,5.5153,5.562,5.579,5.5634,5.5385,5.5291,5.5321,5.5291,5.5572,5.5973,5.6643,5.8327,5.8881,6.0512,6.4876,6.581,6.7244,7.0558,7.2297,7.3388,7.3694,7.5109,7.6183,7.6603,7.7181,7.776,7.8199,7.8755,7.9216,7.9516,7.9625,7.975,7.9917,8.0032,8.0088,8.0102,7.9837,7.968,7.969,7.9403,7.929,7.929,7.9051,7.8896,7.9009,8.0461,8.0707,8.0102,7.9745,8.0221,8.0946,7.7394,7.7017,7.8317,7.662,7.6006,7.6006,7.6006,7.6006,7.6006,7.5952,7.5712,7.5405,7.5347,7.4953,7.442,7.3967,7.3834,7.3633,7.3184,7.3043,7.3043,7.3043,7.2972,7.2649,7.1761,7.1273,7.0686,6.9477,6.8258,6.7434,6.734,6.677,6.6286,6.6059,6.6059,6.5533,6.4193,6.3778,6.3252,6.2149,6.1187,6.0285,5.9626,5.9011,5.8301,5.7324,5.7324,5.6778,5.5576,5.5358,5.4669,5.3264,5.2208,5.1425,5.1222,5.0503,4.8945,4.6843,4.702,4.6924,5.7656,5.7907,5.7673,5.7312,5.6871,5.6336,5.5634,5.5572,5.5572,5.588,5.6095,5.6518,5.7828,5.9636,6.185,6.4607,6.6665,6.876,7.0947,7.2404,7.3455,7.3963,7.5204,7.606,7.613,7.6911,7.7488,7.7651,7.8493,7.9164,7.9629,7.9663,7.9826,8.0031,8.007,8.0088,8.0102,7.9837,7.968,7.969,7.9403,7.929,7.929,7.9051,7.8896,7.8934,7.9092,7.8958,7.8543,7.8009,7.8496,7.9327,7.6907,7.7017,7.8317,7.662,7.6006,7.6006,7.6006,7.6006,7.5952,7.5656,7.5463,7.5347,7.4953,7.442,7.3967,7.3901,7.3565,7.3184,7.3114,7.3043,7.3043,7.3043,7.2469,7.1685,7.0625,7.01,6.9444,6.8429,6.7802,6.7246,6.6577,6.6384,6.5961,6.4969,6.4837,6.3986,6.166,6.1356,6.0909,6.0057,5.9128,5.8657,5.9011,5.8237,5.7253,5.615,5.6095,5.5549,5.4347,5.3309,5.1592,4.9261,4.9029,4.821,4.6927,4.6829,4.6101,4.5135,4.5238,4.5056,5.7996,5.8194,5.8474,5.8196,5.7854,5.7391,5.6605,5.6456,5.6636,5.7342,5.7657,5.7967,5.8555,5.9543,6.1101,6.341,6.4746,6.6484,6.9428,7.116,7.258,7.3554,7.505,7.6006,7.6006,7.6828,7.7406,7.7536,7.8393,7.9164,7.9666,7.9701,7.9826,8.0069,8.007,8.0103,8.0103,7.9817,7.968,7.969,7.9403,7.929,7.929,7.9166,7.9051,7.8896,7.8666,7.8236,7.7682,7.7225,7.7746,7.8624,7.6728,7.7017,7.8317,7.662,7.5843,7.5676,7.5676,7.5507,7.5275,7.5038,7.4831,7.4547,7.4293,7.3901,7.3463,7.3463,7.3254,7.3043,7.3043,7.3043,7.2972,7.2469,7.1651,7.0625,6.9713,6.9079,6.8429,6.7492,6.7087,6.677,6.6384,6.6286,6.5862,6.4736,6.4017,6.31,6.1162,6.0712,6.0028,5.9095,5.8237,5.7878,5.8118,5.7784,5.7324,5.6751,5.6696,5.5794,5.3987,5.2469,5.1038,4.9284,4.8438,4.7334,4.5821,4.508,4.4165,4.3027,4.295,4.3019,5.8787,5.8768,5.9403,5.9706,5.9224,5.8453,5.7671,5.768,5.8105,5.8803,5.9161,5.9323,5.9451,5.9563,6.0255,6.2627,6.3047,6.4208,6.7546,6.9505,7.1184,7.2723,7.442,7.5645,7.597,7.6828,7.7406,7.7536,7.8393,7.9164,7.9666,7.9701,7.9826,8.0069,8.007,8.007,8.007,7.9826,7.968,7.969,7.9403,7.929,7.929,7.929,7.9166,7.8934,7.8499,7.7875,7.7188,7.6938,7.729,7.7848,7.6512,7.6746,7.7701,7.6402,7.5656,7.5252,7.5252,7.5014,7.461,7.4484,7.4228,7.3834,7.37,7.3393,7.3043,7.3043,7.3043,7.3043,7.29,7.2794,7.2542,7.1419,7.0544,6.9628,6.8584,6.8044,6.7492,6.6738,6.6384,6.6189,6.5961,6.5961,6.5533,6.4327,6.3343,6.2188,6.0854,6.0257,5.9566,5.8504,5.7905,5.7543,5.715,5.7421,5.73,5.666,5.6879,5.5973,5.3435,5.1717,5.0214,4.9039,4.7777,4.649,4.505,4.3906,4.2644,4.1507,4.1352,4.1632,6.2276,6.1894,6.1502,6.2911,6.1125,5.8983,5.8807,5.9451,6.0003,5.9403,5.9242,5.9451,6.0268,6.0345,6.1111,6.3468,6.3885,6.4529,6.6367,6.8026,6.9709,7.1514,7.3001,7.4454,7.5862,7.6828,7.7406,7.7536,7.8393,7.9164,7.9666,7.9701,7.9826,8.0069,8.007,8.007,8.007,7.9826,7.968,7.969,7.9403,7.929,7.929,7.929,7.9228,7.9051,7.8436,7.7645,7.6844,7.6797,7.6563,7.6223,7.6042,7.5896,7.5736,7.5499,7.5134,7.4734,7.4734,7.4672,7.4547,7.4098,7.3901,7.3767,7.3324,7.3114,7.3043,7.3043,7.3043,7.29,7.2064,7.1803,7.1419,6.9798,6.9232,6.8584,6.7495,6.7056,6.677,6.6384,6.6286,6.5961,6.4837,6.4736,6.4327,6.3267,6.2188,6.0854,5.9274,5.9039,5.8804,5.809,5.7943,5.7312,5.5784,5.6756,5.651,5.3915,5.4907,5.4509,5.2174,4.9741,4.7485,4.5307,4.5064,4.4123,4.2452,4.2315,4.1956,4.1251,4.1251,4.1273,6.0094,6.0446,6.1234,6.1745,6.189,6.1767,6.1374,6.1863,6.2245,6.1541,6.1722,6.1935,6.186,6.186,6.2166,6.3055,6.326,6.3734,6.5296,6.7004,6.8692,7.0305,7.1504,7.262,7.3448,7.5031,7.6127,7.6498,7.8098,7.9228,7.9666,7.9773,7.9902,8.007,8.007,8.007,8.007,7.9826,7.968,7.969,7.9403,7.9203,7.8961,7.9203,7.8998,7.8398,7.83,7.7723,7.6771,7.6454,7.6183,7.6006,7.5768,7.5543,7.5405,7.5074,7.461,7.4163,7.4163,7.3967,7.3633,7.3463,7.3393,7.3393,7.3114,7.3043,7.3043,7.3043,7.2722,7.2213,7.1803,7.1307,7.0429,6.8616,6.7958,6.7556,6.6961,6.6577,6.6384,6.6286,6.5732,6.507,6.4634,6.4017,6.3236,6.2078,6.1526,6.0741,5.9419,5.8831,5.8237,5.7164,5.6648,5.5784,5.44,5.4833,5.4579,5.3554,5.34,5.1595,4.778,4.7147,4.6308,4.4691,4.4543,4.3976,4.307,4.2277,4.1575,4.1251,4.1251,4.1251,5.9873,6.0031,6.0685,6.0922,6.1922,6.2823,6.2675,6.3176,6.3486,6.3238,6.3561,6.3748,6.3243,6.3213,6.3148,6.3148,6.3148,6.3491,6.4489,6.5962,6.7506,6.9009,7.016,7.1077,7.1841,7.3922,7.5392,7.5771,7.7885,7.9303,7.9682,7.9804,7.9956,8.007,8.007,8.007,8.0032,7.9826,7.968,7.9653,7.9403,7.9115,7.8747,7.8971,7.8659,7.7948,7.7875,7.7488,7.6734,7.6199,7.5952,7.5788,7.5578,7.5252,7.4953,7.4547,7.4098,7.3633,7.3633,7.3393,7.3043,7.3043,7.3043,7.3043,7.3043,7.3043,7.3043,7.2722,7.2213,7.1651,7.1072,7.0265,6.9166,6.7774,6.7151,6.677,6.6223,6.5929,6.5633,6.5365,6.4696,6.3943,6.3599,6.2886,6.196,6.0362,6.051,6.0285,5.9026,5.8754,5.7998,5.6403,5.5509,5.4374,5.2905,5.314,5.3013,5.1777,5.1417,4.9316,4.4852,4.5097,4.4948,4.4224,4.3953,4.3628,4.3316,4.2277,4.162,4.1251,4.1251,4.0937,6.351,6.182,6.0325,6.1524,6.1205,6.0973,6.2114,6.2824,6.3335,6.399,6.4164,6.4164,6.4129,6.4129,6.4104,6.3958,6.4044,6.4104,6.3958,6.4778,6.5966,6.7638,6.8869,7.0209,7.1777,7.4163,7.5678,7.5771,7.7885,7.9294,7.966,7.9814,7.9956,8.007,8.007,8.0032,7.988,7.975,7.9642,7.9502,7.9365,7.9115,7.8747,7.8567,7.8338,7.7912,7.7115,7.6792,7.6734,7.6199,7.5732,7.5463,7.5405,7.4831,7.3901,7.3901,7.3496,7.3114,7.3114,7.3114,7.3043,7.3043,7.3043,7.3043,7.3043,7.3043,7.29,7.1989,7.1727,7.1341,6.9662,6.838,6.7434,6.7434,6.7056,6.6352,6.524,6.4705,6.4224,6.3267,6.2946,6.2623,6.1415,6.1303,6.0449,5.7896,5.8629,5.8995,5.7782,5.831,5.8182,5.621,5.4755,5.3219,5.1479,5.2643,5.1777,4.7863,4.8979,4.8262,4.4822,4.3745,4.3172,4.3148,4.3148,4.2791,4.2175,4.2124,4.1846,4.1251,4.1251,4.0513,6.0828,6.1518,6.2419,6.2782,6.3222,6.3699,6.4271,6.5285,6.6173,6.6379,6.5982,6.5535,6.5271,6.495,6.4778,6.4778,6.4778,6.4778,6.4778,6.5468,6.618,6.6718,6.7512,6.8299,6.906,7.1098,7.3089,7.4599,7.5472,7.6593,7.8031,7.7143,7.6577,7.6615,7.6615,7.7137,7.8157,7.8038,7.8488,7.9478,7.8,7.705,7.6599,7.7644,7.7686,7.6874,7.6828,7.6579,7.625,7.6077,7.5732,7.5311,7.461,7.4163,7.3834,7.3463,7.3254,7.3043,7.3043,7.3043,7.3043,7.3043,7.3043,7.3043,7.3043,7.2649,7.2064,7.1803,7.0913,6.9713,6.8592,6.7898,6.7214,6.6258,6.5737,6.5171,6.3869,6.3554,6.3343,6.3053,6.1664,6.0368,5.9934,5.8611,5.721,5.6482,5.6654,5.6515,5.5336,5.5816,5.5377,5.3022,5.1062,4.9458,4.8037,4.8323,4.7954,4.6726,4.6402,4.5468,4.3745,4.3316,4.3148,4.3148,4.2911,4.2526,4.2185,4.1,4.0221,3.98,3.8684,3.8091,6.2443,6.3046,6.3702,6.3548,6.4138,6.4787,6.4791,6.4958,6.5222,6.5645,6.5828,6.58,6.541,6.6051,6.6588,6.6536,6.6588,6.6374,6.5627,6.6051,6.6379,6.6379,6.6921,6.7389,6.7818,6.9721,7.1585,7.3194,7.4002,7.5016,7.6348,7.5552,7.502,7.502,7.4982,7.5416,7.6328,7.6177,7.6597,7.7486,7.6084,7.5175,7.472,7.6096,7.6312,7.5518,7.6063,7.6058,7.5732,7.5564,7.5334,7.5074,7.4163,7.3767,7.3531,7.3184,7.3043,7.3043,7.2722,7.2577,7.2503,7.2139,7.2064,7.2064,7.2064,7.1651,7.1151,7.0833,7.005,6.8882,6.7431,6.6866,6.6131,6.4259,6.3632,6.3,6.1254,6.0952,6.0739,6.031,5.8989,5.8005,5.8005,5.6751,5.5472,5.4502,5.4865,5.4533,5.2664,5.3146,5.272,5.0606,4.9043,4.7651,4.6337,4.621,4.6035,4.5696,4.4687,4.3889,4.3148,4.3148,4.2911,4.2175,4.1985,4.1312,4.0459,3.9423,3.8682,3.8179,3.7277,3.671,6.7091,6.5833,6.4444,6.397,6.4396,6.4837,6.4479,6.3044,6.2144,6.3218,6.4593,6.5481,6.5089,6.7191,6.8893,6.8736,6.8942,6.8472,6.6727,0.0,6.6557,6.6654,6.7038,6.743,6.7781,6.9643,7.1047,7.1684,7.3223,7.4251,7.4636,7.4678,7.4678,7.4678,7.4564,7.4454,7.4473,7.431,7.4093,7.383,7.367,7.3361,7.2904,7.4044,7.4295,7.3857,7.465,7.5119,7.5168,7.4714,7.4539,7.4547,7.4033,7.36,7.3078,7.3043,7.2972,7.2866,7.1955,7.1651,7.1497,7.0673,7.0314,7.0314,7.0314,7.0314,7.01,6.9405,6.8926,6.8169,6.5848,6.5066,6.4259,6.1752,6.0969,6.0152,5.7854,5.7411,5.7094,5.5969,5.5666,5.561,5.55,5.5416,5.4611,5.2163,5.2873,5.2637,5.0013,5.0414,5.0375,4.8623,4.8178,4.7433,4.6149,4.6,4.565,4.4606,4.3553,4.2958,4.2958,4.2911,4.2129,4.0499,4.049,3.9428,3.7551,3.735,3.711,3.6817,3.6686,3.6043,6.5478,6.6015,6.6261,6.4825,6.6552,6.8544,6.8431,6.7941,6.7583,6.7848,6.8185,6.8329,6.7938,6.8312,6.8471,6.7771,6.8884,6.9542,6.852,6.763,6.7394,6.8291,6.7996,6.7743,6.7855,6.8924,7.0197,7.1646,7.1114,7.1345,7.2829,7.182,7.1148,7.1148,7.1035,7.1544,7.2705,7.2583,7.1646,6.9947,7.0777,7.1026,7.0727,7.1613,7.1832,7.1489,7.1352,7.1941,7.3019,7.2923,7.3325,7.4033,7.3901,7.36,7.2972,7.2322,7.2064,7.1913,7.0993,7.0639,7.0673,7.0429,7.0314,7.0314,7.0314,6.9933,6.9491,6.9232,6.6458,6.3226,6.1659,6.1007,6.0451,5.9068,5.8522,5.797,5.6539,5.6158,5.6158,5.586,5.4989,5.3991,5.3122,5.2187,5.1178,4.9635,4.9439,4.8825,4.7352,4.7597,4.714,4.4967,4.5246,4.5141,4.4024,4.3808,4.3836,4.353,4.2198,4.1561,4.1561,4.0289,3.9375,3.9003,3.8534,3.8044,3.754,3.6253,3.5536,3.54,3.4359,3.3692,6.7153,6.7839,6.8063,6.624,6.7193,6.833,6.7635,6.7343,6.7234,6.7268,6.7896,6.8288,6.7835,6.8824,6.9468,6.8777,6.9512,7.0021,6.9603,6.8377,6.7466,6.7321,0.0,6.7597,6.6994,6.8134,6.9423,7.0666,7.0033,7.0041,7.1103,7.0364,6.9853,6.9786,6.9676,6.997,7.0772,7.0534,6.9805,6.8619,6.881,6.8769,6.8565,6.9375,6.959,6.9335,0.0,7.0057,7.0869,7.0621,7.1048,7.1794,7.1794,7.178,7.1803,7.1307,7.1072,7.0993,7.01,6.9849,6.9798,6.9372,6.8738,6.8211,6.8211,6.7494,6.6485,6.5981,6.3476,6.0573,5.9307,5.8837,5.8283,5.6522,5.5912,5.5558,5.4383,5.371,5.3253,5.3253,5.2267,5.1234,5.0555,4.9934,4.9098,4.7976,4.7505,4.6806,4.5393,4.5297,4.4847,4.3532,4.3738,4.3733,4.3172,4.3148,4.3148,4.3148,4.1796,4.0659,3.9822,3.8936,3.8095,3.7085,3.6752,3.6149,3.542,3.4393,3.3954,3.4019,3.2562,3.1885,6.9746,6.9837,6.9509,6.7873,6.7432,6.7115,6.5792,6.546,6.5487,6.552,6.6657,6.751,6.7076,6.9081,7.0745,7.0628,7.0455,7.0363,7.0509,6.9035,6.745,6.6198,6.7155,6.7477,6.6379,6.7753,6.8971,6.9494,6.9562,6.9617,6.9742,6.9737,6.9689,6.9604,6.9436,6.9277,6.9089,6.8715,6.8522,6.843,6.756,6.7015,6.6798,6.7292,6.7369,6.7195,0.0,6.8546,6.8728,6.8149,6.8404,6.9094,6.9224,6.9617,7.0127,7.0328,7.0265,7.01,6.9491,6.897,6.8584,6.7641,6.6373,6.5134,6.491,6.4015,6.2662,6.1015,5.9738,5.8674,5.736,5.6978,5.6405,5.3938,5.3289,5.3009,5.184,5.0755,5.0093,5.0093,4.9315,4.85,4.8417,4.8307,4.7865,4.6655,4.6174,4.5509,4.42,4.3725,4.3342,4.3148,4.3148,4.3148,4.3148,4.3148,4.2958,4.2554,4.1403,4.0008,3.8208,3.8249,3.72,3.5132,3.4979,3.4101,3.2526,3.2562,3.2444,3.2156,3.0914,3.0365,6.9638,6.9621,6.9556,6.9297,6.9187,6.9154,6.8897,6.8859,6.888,6.9005,6.9239,6.9357,6.9287,6.9631,7.0347,7.1498,7.1292,7.1276,7.206,6.9953,6.8616,6.9329,6.8771,0.0,6.8052,6.8683,6.9194,6.9402,6.9518,6.9583,6.9591,6.9627,6.9618,6.958,6.9372,6.9089,6.8696,6.843,6.8103,6.778,6.7102,6.6624,6.6343,6.5484,6.5042,6.4984,0.0,0.0,6.6657,6.5928,6.6442,6.7803,6.8391,6.8609,6.8866,6.996,6.9933,6.9405,6.9232,6.8076,6.6548,6.5218,6.4082,6.278,6.1477,6.0982,5.9955,5.6155,5.4858,5.4499,5.3279,5.303,5.2637,5.1191,5.0819,5.0551,4.945,4.8963,4.8854,4.8854,4.8719,4.8307,4.7332,4.7108,4.6542,4.5093,4.4649,4.4295,4.3701,4.3365,4.3125,4.3148,4.3148,4.3148,4.3148,4.3148,4.2175,3.9892,3.9529,3.8633,3.6963,3.6811,3.5917,3.3739,3.3397,3.2526,3.1,3.1085,3.0349,2.9092,2.8815,2.866,6.949,6.9496,6.95,6.95,6.9512,6.9505,6.9505,6.9505,6.952,6.9625,6.9679,6.97,6.9672,6.9629,6.9791,7.055,7.113,7.1312,7.0883,6.9682,6.8677,6.8244,6.8485,6.8463,0.0,6.857,6.9316,6.9577,6.9601,6.9574,6.96,6.9541,6.9478,6.9478,6.924,6.8731,6.7989,6.7997,6.7632,6.6812,6.6412,6.6015,6.5503,6.4597,6.3975,6.3567,6.341,6.3497,6.3708,6.3362,6.385,6.4814,6.5128,6.5183,6.5183,6.6262,6.6255,6.5719,6.6245,6.5533,6.4065,6.2635,6.126,6.0044,5.9146,5.7516,5.5497,5.2705,5.1987,5.1681,5.0462,5.0172,5.0066,4.9531,4.9423,4.9315,4.8745,4.8086,4.7642,4.7642,4.7082,4.6403,4.588,4.5765,4.5534,4.4859,4.4437,4.4082,4.3844,4.3485,4.3148,4.3148,4.3148,4.2911,4.2008,4.1396,4.0124,3.8094,3.7873,3.7155,3.5383,3.5251,3.4602,3.3397,3.2339,3.0984,2.9467,2.9459,2.9092,2.8382,2.7561,2.728,6.9134,0.0,6.9085,6.9085,6.9109,6.9133,0.0,6.9156,6.9254,6.9427,6.9442,6.9437,6.9528,6.9465,6.944,6.9514,7.0777,7.1214,6.9655,6.9668,6.9143,6.7337,6.8274,6.8668,6.7523,6.8601,6.9436,6.9732,6.9666,6.9571,6.9557,6.944,6.9381,6.9322,6.8859,6.8219,6.7408,6.721,6.6747,6.6042,6.5394,6.495,6.4527,6.3755,6.3086,6.2517,6.2517,6.2173,6.1575,6.143,6.1654,6.2129,6.2058,6.1873,6.175,6.2573,6.2574,6.224,6.2948,6.2756,6.1829,6.0299,5.8665,5.7228,5.664,5.417,5.1381,5.0199,4.9986,4.9745,4.8854,4.861,4.85,4.8307,4.8197,4.8086,4.7839,4.6969,4.6314,4.6314,4.5534,4.4859,4.4859,4.4859,4.4742,4.4742,4.4295,4.3963,4.3868,4.3485,4.2958,4.2721,4.2577,4.2129,4.0664,3.9318,3.7924,3.66,3.6429,3.5725,3.4324,3.3692,3.3208,3.2849,3.1085,2.9556,2.8382,2.8104,2.7685,2.7266,2.6155,2.5603,0.0,6.8131,6.8131,6.8131,6.8229,6.8319,6.8319,6.8514,0.0,6.9158,6.906,6.8986,6.9327,6.9392,6.9399,6.9426,7.0806,7.1367,6.9791,7.0816,7.1069,6.9236,6.9204,6.928,6.9072,6.9464,6.9706,6.959,6.9575,6.9515,6.9424,6.9402,6.93,6.9061,6.7949,6.7369,6.7283,6.5705,6.5271,6.585,6.3835,6.3032,6.3457,6.2279,6.1718,0.0,6.1718,6.1646,6.1575,6.0875,6.0563,6.064,6.0349,6.0262,6.0217,6.0707,6.0826,6.0727,6.057,6.0474,6.0153,5.8837,5.6891,5.4778,5.3352,5.0992,4.8854,4.8745,4.8719,4.8719,4.861,4.861,4.8307,4.722,4.6995,4.6655,4.5418,4.5093,4.5093,4.5093,4.4976,4.4859,4.4859,4.4742,4.4413,4.42,4.382,4.3462,4.3269,4.3148,4.2577,4.1252,4.1206,4.0642,3.9353,3.7857,3.6468,3.5194,3.4834,3.4475,3.4117,3.2297,3.1169,3.0966,2.9371,2.852,2.8382,2.7,2.5603,2.4192,2.3762,2.3475,6.7962,6.7927,6.8029,6.8029,6.8063,6.8131,6.8131,6.8164,6.8266,6.8436,6.8473,6.8504,6.8631,6.8784,6.9006,6.9259,6.9804,7.0068,6.9639,7.0046,7.0123,6.9518,6.9412,6.9407,6.9452,6.9549,6.9665,6.9594,6.9426,6.9317,6.9273,6.9023,6.844,6.745,6.7023,6.6252,6.5235,6.4899,6.4234,6.336,6.2839,6.248,6.2279,6.1826,6.1032,6.006,6.006,5.9433,0.0,5.8189,5.8021,5.7999,5.7959,5.7343,5.6764,5.756,5.7505,5.7015,5.6667,5.6262,5.5602,5.434,5.27,5.1038,5.0521,4.9504,4.8391,4.7754,4.7531,4.7307,4.6516,4.6288,4.6199,4.5765,4.5649,4.5534,4.4952,4.4859,4.4859,4.4859,4.4859,4.46,4.3844,4.351,4.3008,4.2018,4.1385,4.0915,4.0814,4.0659,4.0358,3.9814,3.9822,3.8957,3.6764,3.5979,3.5383,3.4664,3.4494,3.3738,3.2279,3.1439,3.0509,2.9225,2.7734,2.7096,2.7,2.5461,2.4335,2.3475,2.3331,2.3188,6.7397,6.74,6.7557,6.7557,6.7633,6.7671,6.7671,6.7708,6.7818,6.7927,6.7925,6.7992,6.8192,6.8293,6.8507,6.8931,6.9085,6.9166,6.9326,6.9403,6.9487,6.9514,6.948,6.9499,6.9663,6.959,6.9549,6.946,6.928,6.9089,6.8786,6.8528,6.7634,6.5971,6.5571,6.4756,6.3505,6.3463,6.2835,6.1792,6.1378,6.1019,6.0776,6.029,5.9401,5.8293,5.8293,5.7649,5.6515,5.6184,5.5973,5.5882,5.5148,5.4303,5.3466,5.3883,5.361,5.3079,5.2833,5.2335,5.1669,5.0688,4.9685,4.8828,4.8828,4.817,4.7307,4.6428,4.6199,4.5995,4.5069,4.4859,4.4859,4.4341,4.4223,4.4223,4.3749,4.363,4.363,4.363,4.363,4.3367,4.2359,4.1995,4.1407,4.023,3.965,3.9316,3.9401,3.9126,3.8915,3.8452,3.8366,3.7519,3.5194,3.5004,3.4645,3.3797,3.3551,3.26,3.0559,2.9862,2.895,2.7685,2.6296,2.5461,2.5461,2.4478,2.3762,2.3475,2.3331,2.2755,6.6624,6.6474,6.6474,6.6474,6.6624,6.6841,6.6841,6.7016,6.7271,6.7555,6.7393,6.7434,6.8057,6.8026,6.7992,6.8522,6.8836,6.8939,6.8804,6.9253,6.9551,6.9414,6.9511,6.9626,6.9781,6.9641,6.9445,6.9198,6.9177,0.0,6.7878,6.781,6.6832,6.4733,6.3593,6.2808,6.2515,6.1145,6.0883,6.1688,5.9145,5.8273,5.9,5.7304,5.6485,5.6485,5.6485,5.6485,0.0,5.521,5.4562,5.4125,5.1922,5.0963,5.0605,4.9744,4.9369,4.9369,4.9045,4.8937,4.8937,4.861,4.85,4.85,4.85,4.6856,4.4859,4.4859,4.4859,4.4859,4.4859,4.4859,4.46,4.3224,4.2985,4.2624,4.1307,4.1061,4.1061,4.1061,4.1061,4.0915,4.0478,4.0252,3.99,3.9524,3.9168,3.9022,3.902,3.8976,3.8543,3.7095,3.6963,3.6429,3.5023,3.5004,3.4155,3.2411,3.1836,3.0797,2.8953,2.714,2.631,2.6169,2.4763,2.3918,2.3918,2.3918,2.3918,2.3905,2.3475,2.2033,6.6521,6.6283,6.58,6.4687,6.4484,6.4532,6.4543,6.4627,6.4998,6.6138,6.6175,6.609,6.6268,6.6755,6.717,6.71,6.7881,6.8244,6.7659,6.837,6.8856,6.8732,6.8,6.8097,6.9503,6.8523,6.8145,6.9006,6.8366,6.7881,6.7598,6.6271,6.4446,6.2042,6.2279,6.134,5.916,5.9368,5.9032,5.8094,5.7335,5.6196,5.4826,5.4361,5.2863,5.079,5.079,5.0355,0.0,4.9953,4.9992,4.9876,4.9864,4.969,4.9503,4.9235,4.8937,4.8719,4.7754,4.7531,4.7307,4.6314,4.597,4.5715,4.3772,4.2721,4.2162,4.2162,4.2162,4.2162,4.2162,4.2162,4.2041,4.1675,4.1552,4.143,4.1061,4.1061,4.1061,4.1061,4.0792,4.0252,3.9273,3.8662,3.7898,3.6889,3.641,3.6168,3.6247,3.6135,3.6024,3.5554,3.4664,3.3418,3.2028,3.1877,3.1372,3.049,3.025,2.9183,2.714,2.6592,2.5744,2.462,2.4192,2.3762,2.3475,2.3475,2.3331,2.3044,2.1599,2.0446,6.5063,6.5128,6.5077,6.339,6.2999,6.3086,6.3137,6.3224,6.3774,6.5306,6.5539,6.5451,6.5485,6.5957,6.6257,6.5971,6.6817,6.7256,6.6493,6.7301,6.8006,6.8126,6.7137,6.7203,6.9112,6.7849,6.7446,6.8747,6.7952,6.7019,6.5946,6.4269,6.2413,6.0428,6.0093,5.8888,5.6593,5.6676,5.6147,5.521,5.4775,5.3686,5.1828,5.1484,5.0229,4.8521,4.8521,4.8341,0.0,4.7473,4.6917,4.6415,4.6271,4.6137,4.6143,4.6489,4.6529,4.6213,4.555,4.4995,4.441,4.3606,4.3391,4.3008,4.143,4.1061,4.1061,4.1061,4.1061,4.1061,4.1061,4.1061,4.0814,4.0317,4.0193,4.0068,3.9567,3.9316,3.919,3.919,3.8916,3.8388,3.7426,3.7039,3.62,3.4664,3.4268,3.3948,3.3272,3.3779,3.3948,3.3272,3.2448,3.1594,3.054,3.0473,2.979,2.8691,2.8413,2.7435,2.5461,2.5319,2.4892,2.3918,2.3775,2.3619,2.3331,2.3188,2.2599,2.172,2.0435,1.9569,6.305,6.3587,6.4198,6.2356,6.2014,6.2145,6.2376,6.2505,6.3036,6.4769,6.5067,6.5087,6.5129,6.5291,6.5255,6.4898,6.5692,6.603,6.5183,6.6189,6.707,6.7376,6.6561,6.6663,6.848,6.7309,6.6992,6.8231,6.767,6.618,6.3601,6.1901,6.0376,5.9,5.7195,5.5698,5.4403,5.33,5.2756,5.2658,5.1777,5.058,4.9404,4.8542,4.806,4.7849,4.7713,4.8074,0.0,4.622,4.4498,4.3174,4.181,4.1315,4.1395,4.2212,4.2632,4.2701,4.2701,4.1949,4.1061,4.1061,4.0814,4.069,4.069,4.069,4.069,4.069,4.069,4.069,4.069,4.0566,4.0317,3.9063,3.8684,3.8302,3.7059,3.641,3.6149,3.6149,3.5756,3.5381,3.523,3.5098,3.4589,3.282,3.2572,3.2102,3.0673,3.1748,3.1951,3.0274,3.02,3.0197,3.0058,2.9896,2.8953,2.7014,2.6578,2.573,2.4049,2.3918,2.3905,2.3918,2.3475,2.3188,2.3044,2.2611,2.172,2.01,1.9548,1.8532,6.3869,6.379,6.3441,6.18,6.0489,5.9967,6.1216,6.0404,6.0087,6.2911,6.3405,6.3148,6.2584,6.3388,6.388,6.2976,6.4304,6.4917,6.3485,6.5184,6.635,6.5597,6.5061,6.5426,6.7266,6.6072,6.5495,6.6282,6.6162,6.5002,6.2633,5.958,5.6601,5.3597,5.3941,5.3164,5.1158,5.0907,5.0439,4.9739,4.8778,4.7306,4.5163,4.4997,4.4024,4.2252,4.1047,4.0591,4.0702,3.9487,3.8799,3.862,3.9048,3.9113,3.9162,3.9389,3.984,4.0355,4.0355,4.0656,4.1061,4.1061,3.9567,3.7939,3.7939,3.7939,3.7939,3.7939,3.7939,3.7939,3.7939,3.7703,3.7446,3.7188,3.5979,3.4871,3.4645,3.3582,3.2778,3.2778,3.2356,3.2069,3.2069,3.1815,3.1475,3.1118,3.1065,3.0851,3.0626,3.0873,3.0015,2.7486,2.8104,2.832,2.682,2.6636,2.6197,2.519,2.5048,2.462,2.3905,2.3918,2.3762,2.3475,2.3331,2.2467,2.0581,2.0446,1.9559,1.7638,1.6317,1.5583,6.1571,6.2088,6.2606,6.0922,5.9716,5.9221,6.0136,5.9399,5.9235,6.1634,6.2072,6.1966,6.1646,6.2245,6.2482,6.1893,6.2846,6.3388,6.2381,6.3644,6.4616,6.4326,6.3457,6.3657,6.5563,6.4407,6.3946,6.4966,6.4415,6.2543,5.9098,5.6905,5.4144,5.0693,5.0432,4.9576,4.8039,4.6835,4.5999,4.5581,4.4982,4.3601,4.1454,4.2082,4.1464,3.9564,3.8698,3.8444,3.8446,3.7424,3.6687,3.6178,3.6385,3.6724,3.6925,3.7272,3.7732,3.803,3.803,3.8204,3.8384,3.7344,3.61,3.4935,3.4664,3.4513,3.4513,3.4513,3.4513,3.4513,3.4513,3.438,3.4248,3.4248,3.3448,3.276,3.276,3.2086,3.1408,3.1408,3.1136,3.0863,3.0863,3.059,3.0332,2.9555,2.9456,2.9285,2.8615,2.852,2.789,2.6396,2.6903,2.6903,2.58,2.5502,2.5075,2.4491,2.4348,2.4062,2.3918,2.3762,2.3475,2.3331,2.2178,2.1018,1.9862,1.8836,1.75,1.5731,1.483,1.3935,5.8956,6.0085,6.1751,6.0277,5.9331,5.9025,5.9452,5.9001,5.8851,6.0261,6.0766,6.0972,6.0879,6.1012,6.1139,6.1016,6.143,6.1684,6.1464,6.2209,6.2917,6.3169,6.2332,6.2264,6.3897,6.3015,6.2607,6.3401,6.1567,5.8845,5.4969,5.342,5.1324,4.8351,4.6605,4.5382,4.4683,4.2485,4.1439,4.1439,4.1015,3.9833,3.8112,3.9161,3.8856,3.7568,3.754,0.0,3.7711,3.6392,3.5213,3.4282,3.3699,3.3868,3.4395,3.5152,3.553,3.5773,3.5773,3.5569,3.5117,3.2814,3.2248,3.2333,3.1894,3.1697,3.1697,3.1697,3.1697,3.1697,3.1697,3.168,3.1544,3.1544,3.1561,3.1425,3.1136,3.0846,3.0557,3.0299,3.0041,2.9783,2.9783,2.9783,2.931,2.8158,2.8047,2.7562,2.6396,2.6226,2.6226,2.6226,2.6226,2.5942,2.5644,2.5218,2.479,2.4348,2.4062,2.3918,2.3918,2.3475,2.3331,2.3188,2.1018,1.9716,1.9276,1.7353,1.5731,1.4092,1.3785,1.2737,5.9563,5.9814,6.1001,6.0767,5.9298,5.8392,6.0205,5.8958,5.7428,5.7632,5.9122,5.9798,5.7899,5.8578,5.9624,6.0133,6.0125,6.0181,6.0715,6.1964,6.2517,6.1966,6.2279,6.2675,6.298,6.2839,6.1872,5.9906,5.5893,5.3192,5.2362,4.8244,4.5421,4.4646,4.2156,4.0793,4.0592,3.9542,3.8978,3.8957,3.7074,3.6104,3.584,3.4986,3.442,3.4258,3.3801,3.3577,3.3523,3.1977,3.1282,3.109,3.0048,3.024,3.109,3.1208,3.2176,3.3392,3.3276,3.3623,3.3754,3.0818,3.0717,3.1829,3.1663,3.1697,3.1697,3.1697,3.1697,3.1697,3.1697,3.1408,3.1119,3.1119,3.0863,3.0316,2.9076,2.8799,2.8398,2.7184,2.6777,2.6777,2.6777,2.6777,2.6791,2.6552,2.6552,2.641,2.624,2.6226,2.6226,2.6226,2.5942,2.5644,2.5218,2.479,2.4348,2.4062,2.3918,2.3918,2.3918,2.3475,2.3188,2.2755,2.0872,1.8972,1.7362,1.5731,1.3793,1.1843,1.1843,1.1548,6.0375,5.9568,5.9488,6.0573,5.9051,5.7627,5.8904,5.7156,5.5388,5.5451,5.6899,5.7875,5.7074,5.7043,5.7426,5.854,5.8222,5.8079,5.8443,5.9863,6.0475,5.9624,5.9827,5.9917,5.9429,5.9429,5.8775,5.7187,5.2041,4.8325,4.6579,4.3903,4.1801,4.0159,3.8095,3.652,3.5666,3.5373,3.517,3.517,3.4901,3.4517,3.4018,3.397,3.3393,3.2141,3.1912,3.1389,3.0602,2.9898,2.9652,2.9538,2.8834,2.8834,2.9178,2.8816,2.9132,2.9774,2.9658,2.9763,2.9518,2.7644,2.7577,2.805,2.7662,2.7538,2.7616,2.8005,2.8115,2.8208,2.8598,2.8552,2.8413,2.8413,2.8274,2.801,2.731,2.7184,2.7044,2.6367,2.6226,2.6226,2.6226,2.6226,2.6226,2.6226,2.6226,2.6226,2.6226,2.6226,2.6226,2.6226,2.5942,2.5502,2.5075,2.4777,2.4348,2.3918,2.3918,2.3475,2.2286,2.1853,2.114,1.983,1.7933,1.6465,1.5583,1.4099,1.2601,1.1398,1.1253,1.0952,6.0972,5.9397,5.8547,5.946,5.7872,5.6297,5.7021,5.5401,5.3841,5.3681,5.4817,5.5751,5.5547,5.5,5.5075,5.6213,5.5833,5.545,5.569,5.7283,5.8014,5.6976,5.7289,5.7304,5.6509,5.5819,5.4482,5.1994,4.6997,4.3136,4.1123,3.9364,3.7571,3.5568,3.3892,3.2635,3.1372,3.1559,3.1594,3.1594,3.2413,3.2436,3.1695,3.2522,3.192,3.0122,3.036,2.9664,2.8126,2.849,2.8356,2.7877,2.7547,2.7547,2.7547,2.7065,2.7048,2.7147,2.633,2.5857,2.5728,2.5062,2.4854,2.4968,2.4322,2.4217,2.4302,2.4648,2.491,2.5023,2.549,2.587,2.5984,2.5984,2.6112,2.6226,2.6226,2.6226,2.6226,2.6226,2.6226,2.6226,2.6226,2.6226,2.6226,2.6226,2.6226,2.6084,2.5644,2.5062,2.4919,2.536,2.4634,2.4192,2.4348,2.3619,2.3175,2.3331,2.2887,2.2009,2.0536,1.9954,1.9088,1.7491,1.5574,1.4548,1.4548,1.2908,1.1856,1.1247,1.0952,1.0499,6.1323,5.948,5.9044,5.6958,5.5165,5.4199,5.4819,5.4407,5.3493,5.2313,5.3282,5.3726,5.1764,5.1867,5.2522,5.3161,5.2636,5.2271,5.2843,5.4774,5.5537,5.4044,5.562,5.6509,5.5548,5.3303,4.9213,4.2663,0.0,3.7519,3.7802,3.38,3.1254,3.0915,2.9459,2.866,2.8645,2.866,2.866,2.8645,2.8682,2.8613,2.8549,2.873,2.8395,2.7639,2.8457,2.7768,2.5877,2.7198,2.6598,2.4916,2.5335,2.569,2.6028,2.591,2.6481,2.6797,2.3754,2.3087,2.3465,2.3507,2.3794,2.4306,2.3939,2.3953,2.3835,2.3453,2.3745,2.4009,2.4051,2.462,2.533,2.533,2.5785,2.6226,2.6226,2.6226,2.6226,2.6226,2.6226,2.6226,2.6226,2.6226,2.6226,2.6226,2.6226,2.5644,2.4205,2.2142,2.1274,2.2755,2.1274,2.0693,2.2178,2.0547,2.0111,2.1599,2.0267,1.9234,1.8795,1.8365,1.7933,1.7491,1.5574,1.4548,1.4548,1.2444,1.1247,1.0958,1.0499,1.0197,6.092,5.8732,5.7331,5.5372,5.375,5.2727,5.3282,5.2282,5.1049,5.0665,5.1655,5.2438,5.1343,5.0875,5.0901,5.1363,5.0649,5.0036,5.0204,5.1491,5.1813,5.0019,5.0425,4.9942,4.7709,4.3376,3.9614,3.7091,3.3413,3.1503,3.1798,3.0057,2.8722,2.7795,2.6253,2.498,2.4009,2.2969,2.2931,2.3905,2.5409,2.6603,2.7615,2.7265,2.7198,2.7336,2.6318,2.5744,2.5442,2.4386,2.3589,2.2868,2.24,2.2656,2.3288,2.2926,2.3394,2.3874,2.1443,2.136,2.2428,2.2305,2.2333,2.2513,2.2388,2.2388,2.2553,2.3206,2.3412,2.3736,2.4796,2.4725,2.4608,2.5605,2.5491,2.5075,2.5075,2.5075,2.4933,2.4205,2.3918,2.3918,2.3918,2.4009,2.3996,2.4049,2.3619,2.3044,2.2467,2.1274,2.0682,2.1129,2.0391,2.01,2.0547,1.9819,1.9527,1.9976,1.9527,1.8501,1.6891,1.6595,1.5863,1.4099,1.3508,1.2908,1.2594,1.1843,1.1097,1.0499,1.0342,0.9895,6.2057,5.9255,5.7124,5.4818,5.2535,5.0981,5.154,5.0581,4.9626,4.9793,5.0544,5.1034,5.0476,4.9735,4.9224,4.9281,4.8473,4.7713,4.7373,4.8542,4.8587,4.6417,4.6431,4.5584,4.3031,3.6798,3.2773,3.2595,2.9046,2.7085,2.742,2.6093,2.5037,2.4427,2.2873,2.1674,2.0861,1.9684,1.9505,2.048,2.1926,2.3373,2.4669,2.5057,2.5586,2.6272,2.4812,2.4035,2.3751,2.2694,2.1902,2.1275,2.1023,2.1057,2.1287,2.0651,2.0522,2.0587,1.9221,1.985,2.1103,2.0858,2.1252,2.1538,2.1618,2.1672,2.1875,2.2732,2.2616,2.2654,2.3568,2.3182,2.2601,2.3748,2.3763,2.3424,2.3065,2.3336,2.3439,2.2249,2.2212,2.234,2.234,2.2464,2.2576,2.2484,2.2213,2.1454,2.0132,1.9088,1.8638,1.9234,1.8501,1.8208,1.8795,1.8061,1.7923,1.8365,1.7776,1.6743,1.4971,1.4822,1.3942,1.2321,1.2013,1.1856,1.1398,1.1241,1.0795,1.0342,1.004,0.932,6.4449,6.0913,5.8454,5.5196,5.1572,4.8935,4.972,4.9657,4.9427,4.9689,4.9793,4.9511,4.8901,4.8227,4.7577,4.6923,4.6155,4.5329,4.4581,4.601,4.6117,4.3473,4.397,4.381,4.1867,3.444,2.9533,2.8938,2.5912,2.4484,2.4902,2.1874,2.0397,2.065,1.927,1.8774,1.9213,1.8785,1.8501,1.8501,1.8218,1.8628,1.9722,2.1784,2.3343,2.43,2.3723,2.255,2.0844,2.2165,2.15,1.9927,2.1099,2.1053,2.0075,1.9429,1.846,1.7527,1.7391,1.8264,1.9393,1.9393,2.0406,2.166,2.1725,2.1757,2.1876,2.2075,2.1295,2.0355,2.0367,1.9899,1.9388,1.9377,2.0464,2.1123,2.0006,2.0917,2.1653,2.0561,2.0722,2.1245,2.1245,2.1581,2.1964,2.1977,2.228,2.1152,1.7353,1.5583,1.5136,1.6622,1.5434,1.5136,1.677,1.5434,1.5285,1.6761,1.4995,1.3808,1.3344,1.3051,1.2608,1.217,1.1705,1.1392,1.1392,1.0644,1.0342,1.0191,0.9446,0.8169,5.6796,5.6065,5.6142,5.3771,5.2788,5.2442,5.2643,5.346,5.33,5.035,4.9793,4.9386,4.8062,4.7843,4.738,4.6207,4.5012,4.416,4.3965,4.3795,4.2912,4.0643,4.0152,3.8813,3.556,2.9936,2.6514,2.6275,2.3524,2.1723,2.1258,2.0258,1.9457,1.9011,1.7676,1.7053,1.7169,1.5881,1.5285,1.5285,1.6011,1.6286,1.6288,1.7867,1.9586,2.1015,1.9815,1.9904,2.0965,2.0062,1.9274,1.8868,1.8981,1.867,1.8206,1.6842,1.6666,1.7097,1.6286,1.7885,2.0154,1.9759,2.081,2.2037,2.2063,2.2102,2.1955,2.1295,2.0902,2.0568,2.0056,1.924,1.8663,1.9584,1.9346,1.8921,1.8432,1.8611,1.859,1.737,1.7349,1.7476,1.7476,1.7782,1.8199,1.8706,1.8673,1.7943,1.6334,1.5749,1.5442,1.5285,1.4846,1.4697,1.5136,1.4846,1.4697,1.4846,1.4257,1.3658,1.3051,1.2901,1.2458,1.1705,1.1548,1.1241,1.0644,1.0342,1.004,0.9441,0.8046,0.6732,5.9276,5.9162,5.7928,5.4614,5.461,5.4677,5.1245,5.2956,5.41,4.9793,4.9364,4.9349,4.8107,4.7704,4.7301,4.6265,4.504,4.4127,4.3747,4.3168,4.1843,3.9403,3.8284,3.6425,3.302,2.861,2.5726,2.5168,2.1929,1.9641,1.9063,1.766,1.6839,1.6498,1.5395,1.4694,1.4864,1.394,1.3525,1.3508,1.4092,1.3908,1.3428,1.4999,1.6382,1.7303,1.7686,1.8813,2.0266,1.9183,1.8783,1.8783,1.8199,1.7782,1.7435,1.5714,1.5352,1.5568,1.488,1.6793,1.9376,1.9105,2.0465,2.2256,2.2503,2.2162,2.1457,2.1153,2.0145,1.9064,1.8733,1.7504,1.6588,1.7186,1.7012,1.6512,1.5812,1.6258,1.6344,1.5113,1.521,1.5334,1.5334,1.5769,1.6186,1.6418,1.6515,1.6334,1.5749,1.5749,1.5451,1.4697,1.4548,1.4548,1.4548,1.4548,1.4398,1.3965,1.3808,1.3501,1.2908,1.2451,1.2,1.1548,1.1097,1.0795,1.0342,1.004,0.9587,0.9138,0.7011,0.5224,6.6551,6.5568,6.1196,5.6951,5.7091,5.6245,0.0,5.1402,5.3995,4.927,4.9364,4.9888,4.8873,4.8161,4.7537,4.6755,4.5731,4.4707,4.3933,4.3349,4.2054,3.9255,3.7791,3.5801,3.2815,2.9141,2.6313,2.4947,2.0819,1.8253,1.7891,1.4981,1.3493,1.3708,1.2836,1.2473,1.2485,1.2556,1.2433,1.2247,1.1843,1.1392,1.0934,1.2657,1.329,1.346,1.6413,1.8055,1.8693,1.9098,1.914,1.8993,1.8414,1.7728,1.7092,1.5659,1.4596,1.3912,1.3912,1.5844,1.8316,1.8316,2.009,2.249,2.3009,2.2178,2.1024,2.1181,1.9255,1.6918,1.677,1.5346,1.3945,1.405,1.4339,1.4269,1.327,1.41,1.464,1.3682,1.3999,1.4503,1.4503,1.5131,1.5333,1.4948,1.5337,1.56,1.56,1.56,1.5302,1.4697,1.4548,1.4548,1.4548,1.4548,1.4398,1.3957,1.3651,1.3194,1.2758,1.2,1.1392,1.1398,1.0644,1.0342,1.0191,0.9436,0.9138,0.8987,0.641,0.3839,0.0,0.0,0.0,0.0,0.0,0.0,0.0,5.9075,5.9129,5.3768,5.2833,5.2471,5.0518,5.0143,4.9503,4.7074,4.5932,4.5114,4.4438,4.3338,4.1657,3.9276,3.7303,3.5037,3.214,2.8438,2.5728,2.4506,2.0503,1.763,1.6472,1.4466,1.2991,1.205,1.2066,1.1585,1.0464,1.0476,0.9837,0.8704,0.843,0.8467,0.8957,0.9235,0.9662,1.0255,1.1999,1.3718,1.5544,1.8095,1.8846,1.8267,1.812,1.7334,1.5933,1.5038,1.543,1.6241,1.6241,1.827,2.0864,2.0864,2.215,2.3607,2.3711,2.2595,2.1181,2.0089,1.8365,1.6622,1.5285,1.45,1.3946,1.3969,1.3641,1.3228,1.3435,1.3477,1.3474,1.3549,1.3718,1.3854,1.3854,1.4076,1.4051,1.2977,1.394,1.4846,1.4846,1.4846,1.4697,1.4548,1.4548,1.4548,1.4548,1.4548,1.4249,1.3494,1.3494,1.3044,1.2321,1.1849,1.1247,1.0958,1.0493,1.0197,0.99,0.9289,0.8982,0.8532,0.508,0.2597,0.0,0.0,0.0,0.0,0.0,0.0,0.0,0.0,0.0,0.0,0.0,5.3854,5.2313,0.0,5.012,4.8398,4.6995,4.5857,4.5043,4.3666,4.1874,3.9877,3.7994,3.5694,3.2811,2.9627,2.6982,2.5054,2.0373,1.6933,1.5476,1.3205,1.1695,1.1067,1.1345,1.0832,0.936,0.918,0.8227,0.6762,0.7586,0.7626,0.6919,0.7888,0.894,1.0327,1.2072,1.3734,1.5347,1.7746,1.8257,1.7519,1.7085,1.6927,1.6761,1.6029,1.6752,1.807,1.807,1.9537,2.1599,2.1599,2.2611,2.3918,2.3619,2.2467,2.1006,1.938,1.7786,1.6325,1.4697,1.3977,1.3662,1.364,1.3208,1.2966,1.3514,1.2975,1.2358,1.2651,1.2187,1.1815,1.1815,1.2087,1.2334,1.2327,1.296,1.3753,1.4524,1.4548,1.4485,1.4311,1.4295,1.4295,1.4295,1.4295,1.4071,1.3793,1.3351,1.2908,1.2321,1.1555,1.1103,1.0958,1.0348,0.9954,0.9918,0.9188,0.8883,0.8685,0.5135,0.2461,0.0,0.0,0.0,0.0,0.0,0.0,0.0,0.0,0.0,0.0,0.0,0.0,0.0,0.0,0.0,5.0045,4.8172,4.656,4.587,4.4355,4.2609,4.0731,3.8862,3.6521,3.3571,3.0783,2.8077,2.5453,2.0252,1.666,1.5038,1.2351,1.0816,1.0552,1.0667,1.0125,0.8623,0.8242,0.7258,0.5605,0.0,0.0,0.5697,0.7327,0.9119,1.12,1.2807,1.4491,1.589,1.677,1.7076,1.6918,1.6186,1.677,1.7786,1.7491,1.8365,1.9673,1.9673,2.0704,2.2033,2.2033,2.29,2.3762,2.3475,2.2178,0.0,1.8952,1.7491,1.5889,1.4257,1.3606,1.3251,1.3396,1.3006,1.2932,1.3562,1.2583,1.1728,1.1735,1.0829,1.0015,1.0096,1.0174,1.0736,1.1979,1.2313,1.2887,1.411,1.4453,1.4374,1.4161,1.4145,1.4145,1.4145,1.4082,1.4047,1.3942,1.33,1.2546,1.2163,1.1259,1.0807,1.0807,1.0095,0.9902,1.0081,0.9167,0.8726,0.8893,0.5776,0.3262,0.0,0.0,0.0,0.0,0.0,0.0,0.0,0.0,0.0,0.0,0.0,0.0,0.0,0.0,0.0,0.0,4.908,4.7165,4.6759,4.5671,4.3925,4.1569,3.9237,3.652,3.2927,3.0058,2.7116,2.3868,2.0478,1.7572,1.5109,0.0,0.0,0.0,0.0,0.9654,0.7864,0.7909,0.7066,0.5327,0.5871,0.627,0.6656,0.7201,0.8805,1.1079,1.0859,1.2547,1.5294,1.4374,1.5128,1.6918,1.677,1.6909,1.7205,1.8511,1.9976,2.1297,2.1297,0.0,0.0,2.3631,2.3762,2.3762,2.3475,2.2178,2.0581,1.8668,1.7038,1.5417,1.3935,1.3172,1.3002,1.3293,1.29,1.2605,1.3783,1.2768,1.1857,1.2187,1.1454,1.0608,1.0429,1.026,1.0334,1.0769,1.1616,1.242,1.3039,1.3663,1.42,1.4461,0.0,0.0,1.4485,1.4216,1.4047,1.3942,1.3244,1.2474,1.1542,1.1103,1.065,1.0342,1.0093,1.0055,1.0081,0.9469,0.9082,0.9096,0.6888,0.4357,0.0,0.0,0.0,0.0,0.0,0.0,0.0,0.0,0.0,0.0,0.0,0.0,0.0,0.0,0.0,0.0,5.0618,4.9583,4.9577,4.6952,4.4366,4.225,4.0113,3.7681,3.4343,3.1814,2.915,2.6286,2.2119,1.8913,1.7062,1.4815,1.3373,1.2824,1.1754,1.0572,0.9024,0.8716,0.7704,0.5848,0.5913,0.6854,0.8253,0.8222,0.8677,0.9612,1.1634,1.3652,1.5328,1.4758,1.5094,0.0,0.0,0.0,0.0,0.0,2.1587,2.29,2.29,2.3331,2.3918,2.3918,2.3775,2.3475,2.3044,2.2322,2.1152,1.8521,1.7214,1.6203,1.3651,1.2901,1.2901,1.3051,1.2803,1.274,1.3165,1.1967,1.0916,1.158,1.0402,0.0,0.9723,0.9252,0.9212,1.0327,1.1099,1.1741,1.2822,1.3891,1.4515,1.424,1.4256,1.4256,1.4256,1.4121,0.0,0.0,0.0,1.2768,1.2006,1.1404,0.0,0.0,0.0,0.98,0.9779,0.9108,0.0,0.0,0.6859,0.4788,0.0,0.0,0.0,0.0,0.0,0.0,0.0,0.0,0.0,0.0,0.0,0.0,0.0,0.0,0.0,0.0,5.2964,5.1913,5.2401,4.8957,4.5894,4.4838,4.2031,3.9178,3.6579,3.3868,3.0976,2.8108,2.41,2.101,1.9083,1.7125,1.5742,1.5276,1.4052,1.2719,1.1158,1.0735,0.9661,0.7959,0.8079,0.8872,1.0197,1.0017,1.0137,1.0786,1.2961,1.4552,1.5731,1.5134,1.5194,1.6028,1.7475,1.8703,2.0111,2.1587,2.3188,2.462,2.5034,2.4892,2.4478,2.4478,2.3905,2.3188,2.2755,2.2322,2.1587,1.8815,1.7853,1.7001,1.395,1.3051,1.2922,1.2458,1.2451,1.2444,1.2723,1.1426,1.0403,1.1181,1.0162,0.9248,1.0074,0.9091,0.8629,1.0164,1.0587,0.0,1.2399,1.3955,1.4772,1.4315,1.4129,1.4185,1.4185,1.4098,1.3893,1.3621,1.3413,1.2959,1.2464,1.1705,1.1097,1.0493,1.0176,0.9837,0.0,0.0,0.0,0.0,0.0,0.0,0.0,0.0,0.0,0.0,0.0,0.0,0.0,0.0,0.0,0.0,0.0,0.0,0.0,0.0,0.0,0.0,0.0,0.0,5.4937,5.1816,4.9686,5.0414,4.5089,4.0779,3.9303,3.579,3.1912,2.7709,2.6195,2.4024,2.0501,2.0264,1.9335,1.749,1.7361,1.6287,1.4278,1.4292,1.3571,1.2254,1.2608,1.2712,1.2312,1.2712,1.419,1.6387,1.4032,1.4523,1.6852,1.4889,1.4898,1.6597,1.9584,2.1022,2.1744,2.3331,2.475,2.6296,2.7685,2.7266,2.6169,2.573,2.4594,2.3188,2.2467,2.2178,2.1744,1.9716,1.878,1.7801,1.4665,1.3651,1.3101,1.1699,1.1392,1.1536,1.2267,1.1386,1.0627,1.1286,1.1052,1.1168,1.2216,1.0654,0.9495,0.99,1.0146,0.0,1.1473,1.3308,1.4635,1.4982,1.4759,1.4532,1.4532,1.4232,1.4047,1.3935,1.3215,1.2886,1.2744,1.1561,1.0958,1.0807,1.0661,1.0149,0.947,0.0,0.0,0.0,0.0,0.0,0.0,0.0,0.0,0.0,0.0,0.0,0.0,0.0,0.0,0.0,0.0,0.0,0.0,0.0,0.0,0.0,0.0,0.0,0.0,5.4881,5.2143,5.2499,4.8782,4.5055,4.2217,3.9638,3.6284,3.1832,2.9756,2.7595,2.4898,2.3036,2.16,2.1051,1.8865,1.7353,1.6767,1.5611,1.4852,1.4348,1.4467,1.4558,1.4385,1.5535,1.6637,1.7532,1.673,1.7173,1.8428,1.6791,1.788,2.0934,2.1718,2.339,2.5295,2.545,2.6437,2.7685,2.8243,2.8104,2.7685,2.7546,2.6985,2.614,2.4879,2.4308,2.358,2.0838,1.9662,1.8807,1.6376,1.5578,1.4759,1.3328,1.2845,1.2557,1.1833,1.0938,1.0559,1.1284,1.1926,1.2368,1.2711,1.1453,1.0721,1.1845,1.208,1.2316,1.3054,1.416,1.4895,1.4948,1.4564,1.4303,1.4524,1.4445,1.4281,1.3957,1.4429,1.4709,1.4383,1.4524,1.3927,1.2601,1.2365,1.1332,0.9717,0.0,0.0,0.0,0.0,0.0,0.0,0.0,0.0,0.0,0.0,0.0,0.0,0.0,0.0,0.0,0.0,0.0,0.0,0.0,0.0,0.0,0.0,0.0,0.0,0.0,0.0,5.4427,5.0853,0.0,4.6553,4.3899,4.0656,3.7041,3.4545,3.189,2.8999,2.7055,2.5581,2.4663,2.2598,2.1224,2.0708,1.9472,1.8762,1.8358,1.7716,1.7786,1.8152,1.8209,1.8952,2.0341,1.9255,1.9497,2.0598,2.0135,2.1725,2.4362,2.4121,2.5502,2.763,2.7191,2.7995,2.9278,2.9278,2.9539,2.992,2.9369,2.8521,2.767,2.6549,2.5985,2.5405,2.3386,2.2165,2.0961,1.9204,1.7865,1.6663,1.5326,1.4769,1.4163,1.2824,1.2262,1.2316,1.2719,1.3119,1.3277,1.3206,1.2184,1.1668,1.2687,1.3042,1.3318,1.3949,1.4754,1.5366,1.5176,1.4663,1.446,1.4516,1.4548,1.4697,1.4995,1.53,1.5725,1.6151,1.6166,1.5422,1.4226,1.3973,1.2973,0.0,0.0,0.0,0.0,0.0,0.0,0.0,0.0,0.0,0.0,0.0,0.0,0.0,0.0,0.0,0.0,0.0,0.0,0.0,0.0,0.0,0.0,0.0,0.0,0.0,0.0,0.0,5.6366,5.1874,0.0,0.0,0.0,0.0,4.2986,4.0234,3.6955,3.2903,3.2323,3.0964,2.8474,2.8509,2.7612,2.5969,2.5836,2.5119,2.4078,2.2608,2.2495,2.3544,2.0991,2.1769,2.4673,2.1592,2.151,2.3679,2.4876,2.6095,2.7051,2.6903,2.7579,2.8746,2.8723,2.9741,3.0961,3.1082,3.2006,3.2768,3.1477,2.9783,2.8228,2.778,2.764,0.0,0.0,2.5998,2.4286,2.2736,2.0753,1.8709,1.766,1.6977,1.6396,1.5213,1.5185,1.5401,0.0,1.4437,1.3636,1.3652,0.0,1.2228,1.2466,1.307,1.373,1.4012,1.5232,1.5922,1.5651,1.5193,1.4862,1.4665,1.4673,1.5269,1.6761,1.5782,1.6027,1.8061,1.6649,1.59,1.5854,1.5557,0.0,0.0,0.0,0.0,0.0,0.0,0.0,0.0,0.0,0.0,0.0,0.0,0.0,0.0,0.0,0.0,0.0,0.0,0.0,0.0,0.0,0.0,0.0,0.0,0.0,0.0,5.999,5.8994,5.9699,5.85,5.7551,0.0,0.0,0.0,0.0,0.0,0.0,3.856,3.6296,3.3967,3.1764,3.2111,3.1784,3.041,3.0927,3.0562,2.9309,2.8706,2.7984,2.7383,2.6642,2.6869,2.7629,2.5928,2.5528,2.646,3.073,3.1776,3.0767,3.1502,3.2281,3.3004,3.3894,3.4666,3.5455,3.6224,3.6263,3.565,3.4682,3.4455,3.4378,3.3679,0.0,0.0,0.0,0.0,2.8028,2.6268,2.4337,2.2533,2.1074,1.9636,1.8184,1.7147,1.6133,1.5649,0.0,1.5663,1.4828,1.5249,0.0,0.0,0.0,0.0,1.5251,1.5788,1.5751,1.5717,1.5623,1.4967,1.4605,1.4641,1.5329,1.6015,1.69,1.7534,1.8439,1.9819,1.953,1.8774,1.7472,0.0,0.0,0.0,0.0,0.0,0.0,0.0,0.0,0.0,0.0,0.0,0.0,0.0,0.0,0.0,0.0,0.0,0.0,0.0,0.0,0.0,0.0,0.0,0.0,0.0,0.0,0.0,6.1661,6.0824,6.0562,6.0508,6.0614,0.0,0.0,0.0,0.0,0.0,0.0,0.0,0.0,0.0,3.7487,3.6746,3.602,3.5271,3.4512,3.3806,3.3024,3.1739,3.0989,3.0746,2.9634,2.9821,3.0821,2.9836,3.0312,3.1912,3.4028,3.4613,3.4162,0.0,0.0,0.0,0.0,3.7568,3.7996,3.7895,3.7426,3.6791,3.6358,0.0,0.0,0.0,0.0,0.0,0.0,0.0,3.1625,0.0,0.0,2.6392,2.5123,2.3382,2.1663,2.008,1.877,1.8207,0.0,1.7727,1.6598,1.6647,0.0,0.0,0.0,0.0,1.6008,1.645,1.6167,1.5979,1.6033,1.5431,1.5334,1.6098,1.6107,1.6844,1.8508,1.8517,1.9139,2.0626,2.0521,2.007,0.0,0.0,0.0,0.0,0.0,0.0,0.0,0.0,0.0,0.0,0.0,0.0,0.0,0.0,0.0,0.0,0.0,0.0,0.0,0.0,0.0,0.0,0.0,0.0,0.0,0.0,0.0,0.0,0.0,6.0757,6.0769,0.0,0.0,0.0,0.0,0.0,0.0,0.0,0.0,0.0,0.0,0.0,0.0,0.0,4.0828,4.051,3.8082,3.6752,3.6398,3.4106,3.3333,3.4146,3.1809,3.2045,3.4142,3.4282,0.0,3.8523,3.6806,0.0,0.0,0.0,0.0,0.0,0.0,0.0,0.0,0.0,0.0,0.0,0.0,0.0,0.0,0.0,0.0,0.0,0.0,0.0,0.0,0.0,0.0,3.0064,2.8823,2.7152,2.5561,0.0,2.2834,2.2178,2.2405,2.0585,0.0,0.0,0.0,0.0,0.0,0.0,0.0,1.6481,1.6555,1.6514,1.6724,1.6255,1.6438,1.8002,1.7207,1.7807,2.0696,1.9393,1.944,2.1391,2.0868,0.0,0.0,0.0,0.0,0.0,0.0,0.0,0.0,0.0,0.0,0.0,0.0,0.0,0.0,0.0,0.0,0.0,0.0,0.0,0.0,0.0,0.0,0.0,0.0,0.0,0.0,0.0,0.0,0.0,0.0,0.0,0.0,0.0,0.0,0.0,0.0,0.0,0.0,0.0,0.0,0.0,0.0,0.0,0.0,0.0,0.0,0.0,0.0,0.0,0.0,4.0439,3.9111,3.8042,3.6697,3.6923,3.8321,4.1534,4.2794,4.2655,4.372,0.0,0.0,0.0,0.0,0.0,0.0,0.0,0.0,0.0,0.0,0.0,0.0,0.0,0.0,0.0,0.0,0.0,0.0,0.0,0.0,0.0,0.0,0.0,0.0,2.8324,2.8006,2.9219,0.0,0.0,0.0,0.0,0.0,0.0,0.0,0.0,0.0,0.0,0.0,1.6681,1.6555,1.6514,1.6724,1.7213,1.7694,1.8002,1.8762,1.9693,2.0673,2.0753,2.1353,0.0,0.0,0.0,0.0,0.0,0.0,0.0,0.0,0.0,0.0,0.0,0.0,0.0,0.0,0.0,0.0,0.0,0.0,0.0,0.0,0.0,0.0,0.0,0.0,0.0,0.0,0.0,0.0,0.0,0.0,0.0,0.0,0.0,0.0,0.0,0.0,0.0,0.0,0.0,0.0,0.0,0.0,0.0,0.0,0.0,0.0,0.0,0.0,0.0,0.0,0.0,0.0,0.0,0.0,0.0,0.0,0.0,0.0,0.0,4.6661,0.0,0.0,0.0,0.0,0.0,0.0,0.0,0.0,0.0,0.0,0.0,0.0,0.0,0.0,0.0,0.0,0.0,0.0,0.0,0.0,0.0,0.0,0.0,0.0,0.0,0.0,0.0,0.0,0.0,0.0,0.0,0.0,0.0,0.0,0.0,0.0,0.0,0.0,0.0,0.0,1.814,1.8015,1.8276,1.9016,1.897,1.9485,2.077,2.0371,2.0952,2.2996,2.2207,0.0,0.0,0.0,0.0,0.0,0.0,0.0,0.0,0.0,0.0,0.0,0.0,0.0,0.0,0.0,0.0,0.0,0.0,0.0,0.0,0.0,0.0,0.0,0.0,0.0,0.0,0.0,0.0,0.0,0.0,0.0,0.0,0.0,0.0,0.0,0.0,0.0,0.0,0.0,0.0,0.0,0.0,0.0,0.0,0.0,0.0,0.0,0.0,0.0,0.0,0.0,0.0,0.0,0.0,0.0,0.0,0.0,0.0,0.0,4.9512,0.0,0.0,0.0,0.0,0.0,0.0,0.0,0.0,0.0,0.0,0.0,0.0,0.0,0.0,0.0,0.0,0.0,0.0,0.0,0.0,0.0,0.0,0.0,0.0,0.0,0.0,0.0,0.0,0.0,0.0,0.0,0.0,0.0,0.0,0.0,0.0,0.0,0.0,0.0,0.0,0.0,2.0236,1.9666,1.99,2.1037,2.1099,2.1804,2.3659,2.2554,2.2935,2.558,2.4103,0.0,0.0,0.0,0.0,0.0,0.0,0.0,0.0,0.0,0.0,0.0,0.0,0.0,0.0,0.0,0.0,0.0,0.0,0.0,0.0,0.0,0.0,0.0,0.0,0.0,0.0,0.0,0.0,0.0,0.0,0.0,0.0,0.0,0.0,0.0,0.0,0.0,0.0,0.0,0.0,0.0,0.0,0.0,0.0,0.0,0.0,0.0,0.0,0.0,0.0,0.0,0.0,0.0,0.0,0.0,0.0,0.0,0.0,0.0,0.0,0.0,0.0,0.0,0.0,0.0,0.0,0.0,0.0,0.0,0.0,0.0,0.0,0.0,0.0,0.0,0.0,0.0,0.0,0.0,0.0,0.0,0.0,0.0,0.0,0.0,0.0,0.0,0.0,0.0,0.0,0.0,0.0,0.0,0.0,0.0,0.0,0.0,0.0,0.0,0.0,0.0,2.2248,2.0626,1.99,2.1037,2.2947,2.4479,2.5336,2.5915,2.6492,2.7332,0.0,0.0,0.0,0.0,0.0,0.0,0.0,0.0,0.0,0.0,0.0,0.0,0.0,0.0,0.0,0.0,0.0,0.0,0.0,0.0,0.0,0.0,0.0,0.0,0.0,0.0,0.0,0.0,0.0,0.0,0.0,0.0,0.0,0.0,0.0,0.0,0.0,0.0,0.0,0.0,0.0,0.0,0.0,0.0,0.0,0.0,0.0,0.0,0.0,0.0,0.0,0.0,0.0,0.0,0.0,0.0,0.0,0.0,0.0,0.0,0.0,0.0,0.0,0.0,0.0,0.0,0.0,0.0,0.0,0.0,0.0,0.0,0.0,0.0,0.0,0.0,0.0,0.0,0.0,0.0,0.0,0.0,0.0,0.0,0.0,0.0,0.0,0.0,0.0,0.0,0.0,0.0,0.0,0.0,0.0,0.0,0.0,0.0,0.0,0.0,0.0,0.0,2.5526,2.4359,2.4099,2.5303,2.6344,2.7163,2.7873,2.7906,2.8667,3.0577,0.0,0.0,0.0,0.0,0.0,0.0,0.0,0.0,0.0,0.0,0.0,0.0,0.0,0.0,0.0,0.0,0.0,0.0,0.0,0.0,0.0,0.0,0.0,0.0,0.0,0.0,0.0,0.0,0.0,0.0,0.0,0.0,0.0,0.0,0.0,0.0,0.0,0.0,0.0,0.0,0.0,0.0,0.0,0.0,0.0,0.0,0.0,0.0,0.0,0.0,0.0,0.0,0.0,0.0,0.0,0.0,0.0,0.0,0.0,0.0,0.0,0.0,0.0,0.0,0.0,0.0,0.0,0.0,0.0,0.0,0.0,0.0,0.0,0.0,0.0,0.0,0.0,0.0,0.0,0.0,0.0,0.0,0.0,0.0,0.0,0.0,0.0,0.0,0.0,0.0,0.0,0.0,0.0,0.0,0.0,0.0,0.0,0.0,0.0,0.0,0.0,0.0,2.9048,2.741,2.6812,2.8277,2.8807,2.9414,3.0097,3.0308,3.1213,3.3188,0.0,0.0,0.0,0.0,0.0,0.0,0.0,0.0,0.0,0.0,0.0,0.0,0.0,0.0,0.0,0.0,0.0,0.0,0.0,0.0,0.0,0.0,0.0,0.0,0.0,0.0,0.0,0.0,0.0,0.0,0.0,0.0,0.0,0.0,0.0,0.0,0.0,0.0,0.0,0.0,0.0,0.0,0.0,0.0,0.0,0.0,0.0,0.0,0.0,0.0,0.0,0.0,0.0,0.0,0.0,0.0,0.0,0.0,0.0,0.0,0.0,0.0,0.0,0.0,0.0,0.0,0.0,0.0,0.0,0.0,0.0,0.0,0.0,0.0,0.0,0.0,0.0,0.0,0.0,0.0,0.0,0.0,0.0,0.0,0.0,0.0,0.0,0.0,0.0,0.0,0.0,0.0,0.0,0.0,0.0,0.0,0.0,0.0,0.0,0.0,0.0,0.0,3.2457,2.8898,2.6812,2.8277,2.9817,3.0957,3.1559,3.3503,3.4824,0.0,0.0,0.0,0.0,0.0,0.0,0.0,0.0,0.0,0.0,0.0,0.0,0.0,0.0,0.0,0.0,0.0,0.0,0.0,0.0,0.0,0.0,0.0,0.0,0.0,0.0,0.0,0.0,0.0,0.0,0.0,0.0,0.0,0.0,0.0,0.0,0.0,0.0,0.0,0.0,0.0,0.0,0.0,0.0,0.0,0.0,0.0,0.0,0.0,0.0,0.0,0.0,0.0,0.0,0.0,0.0,0.0,0.0,0.0,0.0,0.0,0.0,0.0,0.0,0.0,0.0,0.0,0.0,0.0,0.0,0.0,0.0,0.0,0.0,0.0,0.0,0.0,0.0,0.0,0.0,0.0,0.0,0.0,0.0,0.0,0.0,0.0,0.0,0.0,0.0,0.0,0.0,0.0,0.0,0.0,0.0,0.0,0.0,0.0,0.0,0.0,0.0,0.0,3.5338,3.2713,3.1737,0.0,3.3539,3.4356,3.6737,3.7079,3.7836,3.9591,0.0,0.0,0.0,0.0,0.0,0.0,0.0,0.0,0.0,0.0,0.0,0.0,0.0,0.0,0.0,0.0,0.0,0.0,0.0,0.0,0.0,0.0,0.0,0.0,0.0,0.0,0.0,0.0,0.0,0.0,0.0,0.0,0.0,0.0,0.0,0.0,0.0,0.0,0.0,0.0,0.0,0.0,0.0,0.0,0.0,0.0,0.0,0.0,0.0,0.0,0.0,0.0,0.0,0.0,0.0,0.0,0.0,0.0,0.0,0.0,0.0,0.0,0.0,0.0,0.0,0.0,0.0,0.0,0.0,0.0,0.0,0.0,0.0,0.0,0.0,0.0,0.0,0.0,0.0,0.0,0.0,0.0,0.0,0.0,0.0,0.0,0.0,0.0,0.0,0.0,0.0,0.0,0.0,0.0,0.0,0.0,0.0,0.0,0.0,0.0,0.0,0.0,0.0,3.6059,3.518,0.0,3.7174,3.7842,3.9876,3.9604,4.0192,4.1867,0.0,0.0,0.0,0.0,0.0,0.0,0.0,0.0,0.0,0.0,0.0,0.0,0.0,0.0,0.0,0.0,0.0,0.0,0.0,0.0,0.0,0.0,0.0,0.0,0.0,0.0,0.0,0.0,0.0,0.0,0.0,0.0,0.0,0.0,0.0,0.0,0.0,0.0,0.0,0.0,0.0,0.0,0.0,0.0,0.0,0.0,0.0,0.0,0.0,0.0,0.0,0.0,0.0,0.0,0.0,0.0,0.0,0.0,0.0,0.0,0.0,0.0,0.0,0.0,0.0,0.0,0.0,0.0,0.0,0.0,0.0,0.0,0.0,0.0,0.0,0.0,0.0,0.0,0.0,0.0,0.0,0.0,0.0,0.0,0.0,0.0,0.0,0.0,0.0,0.0,0.0,0.0,0.0,0.0,0.0,0.0,0.0,0.0,0.0,0.0,0.0,0.0,0.0,3.9223,3.7935,3.9813,4.0662,4.1221,4.1709,4.1831,4.2043,4.2406,4.2589,0.0,0.0,0.0,0.0,0.0,0.0,0.0,0.0,0.0,0.0,0.0,0.0,0.0,0.0,0.0,0.0,0.0,0.0,0.0,0.0,0.0,0.0,0.0,0.0,0.0,0.0,0.0,0.0,0.0,0.0,0.0,0.0,0.0,0.0,0.0,0.0,0.0,0.0,0.0,0.0,0.0,0.0,0.0,0.0,0.0,0.0,0.0,0.0,0.0,0.0,0.0,0.0,0.0,0.0,0.0,0.0,0.0,0.0,0.0,0.0,0.0,0.0,0.0,0.0,0.0,0.0,0.0,0.0,0.0,0.0,0.0,0.0,0.0,0.0,0.0,0.0,0.0,0.0,0.0,0.0,0.0,0.0,0.0,0.0,0.0,0.0,0.0,0.0,0.0,0.0,0.0,0.0,0.0,0.0,0.0,0.0,0.0,0.0,0.0,0.0,0.0,0.0,4.502,4.506,4.6359,4.5008,4.5009,4.7942,4.573,4.505,4.6961,4.5641,0.0,0.0,0.0,0.0,0.0,0.0,0.0,0.0,0.0,0.0,0.0,0.0,0.0,0.0,0.0,0.0,0.0,0.0,0.0,0.0,0.0,0.0,0.0,0.0,0.0,0.0,0.0,0.0,0.0,0.0,0.0,0.0,0.0,0.0,0.0,0.0,0.0,0.0,0.0,0.0,0.0,0.0,0.0,0.0,0.0,0.0,0.0,0.0,0.0,0.0,0.0,0.0,0.0,0.0,0.0,0.0,0.0,0.0,0.0,0.0,0.0,0.0,0.0,0.0,0.0,0.0,0.0,0.0,0.0,0.0,0.0,0.0,0.0,0.0,0.0,0.0,0.0,0.0,0.0,0.0,0.0,0.0,0.0,0.0,0.0,0.0,0.0,0.0,0.0,0.0,0.0,0.0,0.0,0.0,0.0,0.0,0.0,0.0,0.0,0.0,0.0,0.0,4.9035,4.9377,5.0178,4.9342,4.9482,5.0997,4.849,4.7315,4.8548,4.8075,0.0,0.0,0.0,0.0,0.0,0.0,0.0,0.0,0.0,0.0,0.0,0.0,0.0,0.0,0.0,0.0,0.0,0.0,0.0,0.0,0.0,0.0,0.0,0.0,0.0,0.0,0.0,0.0,0.0,0.0,0.0,0.0,0.0,0.0,0.0,0.0,0.0,0.0,0.0,0.0,0.0,0.0,0.0,0.0,0.0,0.0,0.0,0.0,0.0,0.0,0.0,0.0,0.0,0.0,0.0,0.0,0.0,0.0,0.0,0.0,0.0,0.0,0.0,0.0,0.0,0.0,0.0,0.0,0.0,0.0,0.0,0.0,0.0,0.0,0.0,0.0,0.0,0.0,0.0,0.0,0.0,0.0,0.0,0.0,0.0,0.0,0.0,0.0,0.0,0.0,0.0,0.0,0.0,0.0,0.0,0.0,0.0,0.0,0.0,0.0,0.0,0.0,0.0,5.2772,5.3112,5.3704,5.3555,5.2732,5.0365,4.9118,4.9414,0.0,0.0,0.0,0.0,0.0,0.0,0.0,0.0,0.0,0.0,0.0,0.0,0.0,0.0,0.0,0.0,0.0,0.0,0.0,0.0,0.0,0.0,0.0,0.0,0.0,0.0,0.0,0.0,0.0,0.0,0.0,0.0,0.0,0.0,0.0,0.0,0.0,0.0,0.0,0.0,0.0,0.0,0.0,0.0,0.0,0.0,0.0,0.0,0.0,0.0,0.0,0.0,0.0,0.0,0.0,0.0,0.0,0.0,0.0,0.0,0.0,0.0,0.0,0.0,0.0,0.0,0.0,0.0,0.0,0.0,0.0,0.0,0.0,0.0,0.0,0.0,0.0,0.0,0.0,0.0,0.0,0.0,0.0,0.0,0.0,0.0,0.0,0.0,0.0,0.0,0.0,0.0,0.0,0.0,0.0,0.0,0.0,0.0,0.0,0.0,0.0,0.0,0.0,0.0,5.7809,5.8883,5.7308,5.6257,5.6139,5.2361,5.0795,5.2859,0.0,0.0,0.0,0.0,0.0,0.0,0.0,0.0,0.0,0.0,0.0,0.0,0.0,0.0]}],[{"header":{"parameterUnit":"kt","parameterCategory":2,"dx":1,"dy":1,"la1":29.285339999999998,"la2":30.599998999999997,"lo1":-89.70041500000002,"lo2":-87.6738589999976,"nx":112,"ny":82,"refTime":"2022-10-15T12:00:00:Z","depth":0,"parameterNumber":2,"parameterNumberName":"V-component_of_WINDS"},"data":[1.9434,1.9126,0.0,1.8974,1.8386,0.0,1.9149,0.0,1.9047,1.9601,1.8937,1.807,1.751,1.6993,1.6578,1.5955,1.6381,1.6843,0.0,1.7006,0.0,0.0,0.0,0.0,0.0,0.0,0.0,0.0,0.0,0.0,0.0,0.0,0.5617,0.0213,0.0,0.0,0.0,0.0,0.0,-0.0,-0.0599,-0.1773,-0.313,-0.5867,-0.8606,-1.1336,-1.1336,-1.2507,-1.4457,-1.5238,-1.5625,-1.5625,-1.5625,-1.5625,-1.5625,-1.5625,-1.5818,-1.6197,-1.7161,-1.945,-2.1639,-1.9626,-2.1826,-2.4323,-1.9354,-2.0209,-2.2919,-2.2575,-2.3621,-2.536,-2.781,-2.8229,-2.8074,-2.8645,-2.8775,-2.8775,-2.8775,-2.8489,-2.832,-2.878,-2.8597,-2.8816,-3.0554,-3.23,-3.4042,-3.6247,-3.7193,-3.7519,-3.7519,-3.7519,-3.7519,-3.7519,-3.7519,-3.7673,-3.7827,-3.8611,-3.9862,-4.2219,-4.4531,-4.691,-4.9395,-5.2015,-5.3636,-5.3912,-5.49,-5.5541,-5.6076,-5.6434,-5.6762,-5.7276,-5.586,-5.5006,0.0,0.0,2.1945,2.2648,0.0,0.0,2.2521,2.2762,2.2844,2.2511,2.2324,2.214,2.195,2.0841,1.9888,2.0067,1.9573,1.9172,0.0,0.0,0.0,0.0,0.0,0.0,0.0,0.0,0.0,0.0,0.0,0.0,0.0,1.0884,0.8584,0.0209,0.0,0.0,0.0,0.0,0.0,-0.0,-0.0988,-0.3519,-0.7435,-0.8793,-1.0938,-1.3482,-1.2706,-1.3676,-1.5625,-1.5625,-1.5625,-1.5625,-1.5625,-1.5625,-1.5625,-1.5625,-1.5625,-1.6011,-1.6576,-1.9059,-2.1658,-1.9771,-2.1664,-2.3661,-1.9383,-1.9901,-2.2206,-2.206,-2.3466,-2.5372,-2.7606,-2.8372,-2.8658,-2.9229,-2.9372,-2.9372,-2.9372,-2.9073,-2.8856,-2.8958,-2.9225,-2.9853,-3.1387,-3.2618,-3.4199,-3.7039,-3.7519,-3.7519,-3.7519,-3.7519,-3.7519,-3.7519,-3.7827,-3.8133,-3.8133,-3.9049,-4.0641,-4.2984,-4.5518,-4.8206,-5.0813,-5.2763,-5.4368,-5.5396,-5.5223,-5.5341,-5.61,-5.5765,-5.6046,-5.6763,-5.4933,-5.4079,2.3292,2.3931,2.4584,2.4422,2.4411,2.4259,2.3731,2.4035,2.4177,2.3453,2.4233,2.4848,2.4123,2.2932,2.1992,2.2004,2.0824,0.0,0.0,0.0,0.0,0.0,0.0,0.0,0.0,0.0,0.0,0.0,0.0,0.0,1.2349,1.2221,0.8483,0.0202,0.0,0.0,0.0,0.0,0.0,-0.0,-0.1185,-0.6648,-1.5334,-1.135,-1.1715,-1.5431,-1.3482,-1.3676,-1.5625,-1.5625,-1.5625,-1.5625,-1.5625,-1.5625,-1.5625,-1.5625,-1.5818,-1.639,-1.639,-1.6976,-1.8085,-2.0153,-2.0755,-2.0785,-2.0011,-2.1149,-2.2432,-2.2175,-2.3732,-2.5995,-2.7759,-2.8697,-2.9255,-2.9827,-2.9956,-2.9956,-2.9956,-2.993,-3.0098,-3.0613,-3.1981,-3.3541,-3.4628,-3.4984,-3.5625,-3.7211,-3.7519,-3.7519,-3.7519,-3.7519,-3.7519,-3.7519,-3.8574,-3.9335,-3.9353,-4.0881,-4.2242,-4.3547,-4.6645,-4.8906,-4.9958,-5.2476,-5.4274,-5.5303,-5.4751,-5.4531,-5.5001,-5.4312,-5.4237,-5.4616,-5.3493,-5.2981,2.5548,2.5646,2.5942,2.7083,2.6946,2.6717,2.706,2.6814,2.6672,2.7004,2.5754,0.0,0.0,0.0,2.3083,2.3242,0.0,2.2687,0.0,0.0,0.0,0.0,0.0,0.0,0.0,0.0,0.0,0.0,0.0,1.1735,1.2365,0.9665,0.5567,0.0202,0.0,0.0,0.0,0.0,0.0,-0.0,-0.4116,-0.9385,-1.5529,-1.4288,-1.4451,-1.5431,-1.5044,-1.5044,-1.5625,-1.5625,-1.5625,-1.5625,-1.5625,-1.5625,-1.5625,-1.5625,-1.5625,-1.5818,-1.5818,-1.6204,-1.6962,-1.8207,-2.0802,-2.3081,-2.1406,-2.1841,-2.3314,-2.4791,-2.6611,-2.841,-2.9183,-2.958,-2.984,-3.0411,-3.0541,-3.0541,-3.0541,-2.9891,-2.9404,-2.9583,-3.0306,-3.1404,-3.2967,-3.514,-3.7039,-3.7365,-3.7519,-3.7519,-3.7519,-3.7519,-3.7827,-3.8745,-3.9031,-3.977,-4.1231,-4.1846,-4.2564,-4.3735,-4.597,-4.8305,-5.0379,-5.1135,-5.2246,-5.3573,-5.346,-5.3611,-5.424,-5.4095,-5.4237,-5.4591,-5.2737,-5.1993,2.7969,2.8674,2.9516,2.9973,2.9883,2.9747,2.9373,2.9134,2.8899,2.8412,0.0,0.0,0.0,0.0,0.0,0.0,2.477,0.0,0.0,0.0,0.0,0.0,0.0,0.0,0.0,0.0,0.0,0.0,1.2089,1.2052,1.237,0.8432,0.4332,0.0199,0.0,0.0,0.0,0.0,0.0,-0.0,-0.5277,-1.0558,-1.5529,-1.5464,-1.5625,-1.5625,-1.5625,-1.5625,-1.5625,-1.5625,-1.5625,-1.5625,-1.5625,-1.5625,-1.5625,-1.5625,-1.5625,-1.5625,-1.5625,-1.5818,-1.639,-1.6976,-1.9863,-2.2631,-2.1365,-2.2768,-2.5031,-2.6103,-2.7999,-2.9515,-2.984,-3.0099,-3.0359,-3.0697,-3.058,-3.0476,-3.0723,-3.0402,-3.0276,-3.0276,-3.1491,-3.2638,-3.3458,-3.5781,-3.7519,-3.7519,-3.7519,-3.7519,-3.7519,-3.7519,-3.798,-3.9201,-3.9789,-4.0823,-4.2879,-4.3464,-4.4337,-4.5631,-4.6789,-4.8207,-5.0067,-5.0488,-5.1379,-5.2579,-5.2468,-5.2684,-5.3135,-5.2983,-5.3436,-5.4162,-5.2895,-5.2299,3.0306,3.2029,3.3587,3.2912,3.3065,3.3036,3.1158,0.0,3.0981,2.89,0.0,0.0,0.0,0.0,0.0,0.0,0.0,0.0,2.5017,0.0,0.0,0.0,0.0,0.0,0.0,1.4787,1.2448,1.248,1.2137,1.2105,1.237,0.8432,0.431,0.0196,0.0,0.0,0.0,0.0,0.0,-0.0,-0.5277,-1.0558,-1.5529,-1.5464,-1.5625,-1.5625,-1.5625,-1.5625,-1.5625,-1.5625,-1.5625,-1.5625,-1.5625,-1.5625,-1.5625,-1.5625,-1.5625,-1.5625,-1.5625,-1.5818,-1.6197,-1.6583,-1.8484,-2.0519,-2.0749,-2.3611,-2.6849,-2.6906,-2.836,-3.0008,-2.9943,-3.0255,-3.058,-3.058,-3.019,-2.9969,-3.0645,-3.1293,-3.1687,-3.1844,-3.3984,-3.5749,-3.5414,-3.6575,-3.7519,-3.7519,-3.7519,-3.7519,-3.7519,-3.7673,-3.8133,-3.9353,-4.0692,-4.2182,-4.4276,-4.5431,-4.6736,-4.8187,-4.8326,-4.8581,-4.9202,-5.0067,-5.1002,-5.1984,-5.1806,-5.1751,-5.1751,-5.1501,-5.2192,-5.3657,-5.3657,-5.3657,3.1268,3.2464,3.4036,3.5001,3.5304,3.5194,0.0,0.0,0.0,0.0,0.0,0.0,0.0,0.0,0.0,0.0,0.0,0.0,0.0,0.0,0.0,0.0,0.0,0.0,0.0,1.698,1.4707,1.2501,1.2427,1.2443,1.2385,0.8432,0.431,0.0196,0.0,0.0,0.0,0.0,0.0,-0.0,-0.5277,-1.0558,-1.5529,-1.5464,-1.5625,-1.5625,-1.5625,-1.5625,-1.5625,-1.5625,-1.5625,-1.5625,-1.5625,-1.5625,-1.5625,-1.5625,-1.5625,-1.5625,-1.5625,-1.5625,-1.6011,-1.8108,-1.8101,-1.7901,-2.163,-2.5064,-2.7944,-2.9109,-2.9965,-3.0502,-3.0047,-2.9671,-2.9411,-2.9411,-2.932,-2.9619,-3.1259,-3.1218,-3.1353,-3.2671,-3.4078,-3.5638,-3.6747,-3.7365,-3.7519,-3.7519,-3.7519,-3.7519,-3.7519,-3.8287,-3.9486,-4.0692,-4.1905,-4.3672,-4.631,-4.6736,-4.7442,-4.895,-4.895,-4.9065,-4.9202,-4.9389,-4.9738,-5.025,-5.0175,-5.0516,-5.1109,-5.1027,-5.2431,-5.5007,-5.5007,-5.5007,3.2126,3.4139,3.6351,3.6649,3.6676,0.0,0.0,3.4867,3.4399,3.3786,3.3623,3.319,3.2524,0.0,0.0,0.0,0.0,0.0,0.0,0.0,0.0,0.0,0.0,0.0,2.0181,1.7694,1.5199,1.2701,1.2512,1.2533,1.2391,0.8432,0.431,0.0196,0.0,0.0,0.0,0.0,0.0,-0.0,-0.5275,-1.0359,-1.5108,-1.5457,-1.5625,-1.5625,-1.5625,-1.5625,-1.5625,-1.5625,-1.5625,-1.5625,-1.5625,-1.5625,-1.5625,-1.5625,-1.5625,-1.5625,-1.5625,-1.5625,-1.5818,-1.7154,-1.6769,-1.6769,-2.1523,-2.3957,-2.5803,-2.9158,-2.9812,-2.9559,-2.993,-2.9723,-2.9437,-2.9151,-2.9769,-3.0609,-3.1443,-3.2354,-3.3208,-3.4364,-3.5466,-3.6575,-3.7365,-3.7519,-3.7662,-3.8072,-3.8125,-3.8125,-3.8125,-3.9197,-4.0243,-4.118,-4.2645,-4.4566,-4.69,-4.7323,-4.8002,-4.9065,-4.9202,-4.9202,-4.9202,-4.9202,-4.9339,-4.9477,-4.9934,-5.0588,-5.1637,-5.2406,-5.4171,-5.643,-5.643,-5.643,3.3251,3.5878,3.8606,3.8096,3.7593,0.0,3.6694,3.608,3.5314,0.0,3.502,3.4943,3.3307,0.0,0.0,0.0,0.0,0.0,0.0,0.0,0.0,0.0,0.0,0.0,2.0423,1.8215,1.5771,1.2701,1.2512,1.2533,1.2391,0.8432,0.431,0.0196,0.0,0.0,0.0,0.0,0.0,-0.0,-0.6058,-1.0947,-1.4694,-1.5251,-1.5625,-1.5625,-1.5625,-1.5625,-1.5625,-1.5625,-1.5625,-1.5625,-1.5625,-1.5625,-1.5625,-1.5625,-1.5625,-1.5625,-1.5625,-1.5625,-1.5625,-1.6011,-1.6163,-1.6869,-2.1413,-2.2677,-2.3565,-2.8346,-2.8956,-2.8665,-2.9596,-2.9849,-2.986,-2.9503,-3.0677,-3.1925,-3.2249,-3.3703,-3.515,-3.5892,-3.6818,-3.7519,-3.7519,-3.7519,-3.7751,-3.8707,-3.8941,-3.9207,-3.9347,-4.0412,-4.1371,-4.1755,-4.3483,-4.5143,-4.6878,-4.7767,-4.8443,-4.9202,-4.9202,-4.9202,-4.9202,-4.9202,-4.9202,-4.9202,-4.9774,-5.0834,-5.2331,-5.3735,-5.566,-5.773,-5.7823,-5.7943,3.4615,3.647,3.8817,3.9309,3.8766,0.0,4.0677,3.93,3.7894,0.0,3.8119,3.7136,3.7002,3.6616,0.0,0.0,0.0,0.0,0.0,0.0,0.0,0.0,0.0,0.0,2.0217,1.977,1.7672,1.2895,1.2512,1.2533,1.2391,0.8432,0.431,0.0196,0.0,0.0,0.0,0.0,0.0,-0.0196,-0.9003,-1.3722,-1.4694,-1.5251,-1.5625,-1.5625,-1.5625,-1.5625,-1.5625,-1.5625,-1.5625,-1.5625,-1.5625,-1.5625,-1.5625,-1.5625,-1.5625,-1.5625,-1.5625,-1.5625,-1.5818,-1.7724,-1.8091,-1.8405,-2.2475,-2.3496,-2.3809,-2.7165,-2.8145,-2.8489,-2.9047,-2.9622,-3.0022,-3.05,-3.1492,-3.2851,-3.4269,-3.4786,-3.5486,-3.699,-3.7418,-3.7519,-3.7519,-3.7519,-3.7863,-3.9008,-3.9946,-4.1037,-4.1969,-4.3179,-4.3901,-4.3951,-4.5031,-4.6025,-4.69,-4.7767,-4.8443,-4.9202,-4.9202,-4.9202,-4.9202,-4.9202,-4.9202,-4.9202,-4.9202,-5.0246,-5.2331,-5.314,-5.5212,-5.8412,-5.8977,-5.9302,3.4841,3.6945,3.9475,3.9836,0.0,0.0,4.2061,4.1138,4.0181,0.0,4.1195,4.077,4.0426,3.9902,0.0,0.0,0.0,0.0,0.0,0.0,0.0,0.0,0.0,0.0,0.0,1.9412,1.7473,1.2486,1.2243,1.2332,1.2354,0.8372,0.431,0.0196,0.0,0.0,0.0,0.0,-0.1176,-0.3719,-1.0576,-1.3917,-1.4282,-1.4857,-1.5244,-1.5625,-1.5625,-1.5625,-1.5625,-1.5625,-1.5625,-1.5625,-1.5625,-1.5625,-1.5625,-1.5625,-1.5625,-1.5598,-1.6564,-1.6879,-1.7228,-1.9069,-1.9447,-1.9683,-2.2589,-2.3366,-2.3556,-2.5811,-2.6912,-2.7663,-2.7713,-2.8855,-3.0092,-2.9816,-3.2129,-3.4544,-3.4927,-3.5781,-3.673,-3.7365,-3.7519,-3.7519,-3.7519,-3.8133,-3.8892,-3.9816,-4.1364,-4.2703,-4.3175,-4.4708,-4.5543,-4.5104,-4.6445,-4.7478,-4.765,-4.842,-4.895,-4.9202,-4.9202,-4.9202,-4.9202,-4.9202,-4.9202,-4.9202,-4.9202,-4.9999,-5.172,-5.3915,-5.6086,-5.8531,-5.9213,-5.9419,3.49,0.0,0.0,0.0,0.0,0.0,4.283,4.2169,4.1479,4.2991,4.3155,4.2678,4.1874,4.14,4.0784,0.0,0.0,0.0,0.0,0.0,0.0,0.0,0.0,0.0,0.0,0.0,0.0,0.0,1.2175,1.2089,1.2089,0.9426,0.5458,0.0196,0.0,0.0,0.0,0.0,-0.2741,-0.8031,-1.1764,-1.3711,-1.407,-1.4469,-1.5051,-1.5625,-1.5625,-1.5625,-1.5625,-1.5625,-1.5625,-1.5625,-1.5625,-1.5625,-1.5618,-1.5532,-1.5698,-1.6408,-1.7394,-1.8021,-1.8719,-2.0439,-2.0991,-2.1252,-2.3211,-2.3644,-2.3821,-2.4865,-2.5842,-2.6647,-2.693,-2.8933,-3.0671,-3.0385,-3.3115,-3.5809,-3.5447,-3.6282,-3.7228,-3.7228,-3.7365,-3.7519,-3.7519,-3.8421,-3.954,-4.0583,-4.2473,-4.3979,-4.4291,-4.5618,-4.6318,-4.5747,-4.7401,-4.8356,-4.7976,-4.8951,-4.9644,-4.9637,-4.9613,-4.975,-5.0134,-5.0134,-5.0134,-5.0134,-5.0134,-5.081,-5.2406,-5.4579,-5.6783,-5.8789,-5.9033,-5.933,0.0,0.0,0.0,4.0021,3.9778,4.0054,4.2932,4.2127,4.1328,4.3257,4.2946,4.1826,4.0222,3.9921,3.9921,3.977,0.0,0.0,0.0,0.0,0.0,0.0,0.0,0.0,0.0,0.0,0.0,0.0,1.2014,1.1841,1.1841,1.1719,0.8091,0.0196,0.0,0.0,0.0,0.0,-0.411,-1.217,-1.3144,-1.3711,-1.407,-1.4469,-1.5051,-1.5625,-1.5625,-1.5625,-1.5625,-1.5625,-1.5625,-1.5625,-1.5625,-1.5625,-1.5592,-1.5302,-1.6316,-1.7759,-1.7594,-1.8735,-2.0546,-2.2498,-2.2734,-2.274,-2.4831,-2.4996,-2.4565,-2.4719,-2.5107,-2.5753,-2.7007,-2.9952,-3.2561,-3.3207,-3.4801,-3.6368,-3.6351,-3.6351,-3.6351,-3.6351,-3.6937,-3.7519,-3.7519,-3.8421,-3.9638,-4.1031,-4.2964,-4.474,-4.5855,-4.6026,-4.6047,-4.5984,-4.7592,-4.8257,-4.7131,-4.9293,-5.0674,-5.0906,-5.0834,-5.137,-5.2299,-5.2431,-5.2431,-5.2431,-5.2431,-5.319,-5.4859,-5.4986,-5.6548,-5.939,-5.8817,-5.8859,3.6416,3.8591,4.1008,4.0583,4.1001,4.1838,4.3566,4.3111,4.2699,4.3964,4.3472,4.2697,4.2125,4.1741,4.1122,4.0072,3.8574,0.0,0.0,0.0,0.0,0.0,0.0,0.0,0.0,0.0,0.0,0.0,0.0,0.0,1.1794,1.1483,0.7927,0.0192,0.0,0.0,0.0,-0.5488,-0.9617,-1.237,-1.2733,-1.33,-1.407,-1.4264,-1.4657,-1.5625,-1.5625,-1.5513,-1.5348,-1.5545,-1.5625,-1.5605,-1.5407,-1.6086,-1.6988,-1.6843,-1.7816,-1.9588,-2.0439,-2.1178,-2.184,-2.3612,-2.407,-2.4103,-2.4798,-2.4837,-2.4696,-2.4696,-2.5491,-2.6266,-2.674,-2.8314,-3.0318,-3.1993,-3.3967,-3.538,-3.538,-3.5866,-3.6351,-3.6351,-3.6919,-3.7519,-3.7519,-3.9183,-4.0692,-4.1141,-4.3694,-4.5663,-4.5963,-4.6706,-4.7006,-4.6793,-4.732,-4.7656,-4.7835,-4.8601,-4.9623,-5.0882,-5.0992,-5.137,-5.2431,-5.2431,-5.2431,-5.2431,-5.2431,-5.3708,-5.6042,-5.6537,-5.7706,-5.9537,-5.9263,-5.933,3.7177,3.9258,4.1215,4.1161,4.1956,4.299,4.3657,4.364,4.3696,4.4311,4.4296,4.3964,4.3525,4.2453,4.134,4.0014,3.8726,3.7365,3.6489,0.0,0.0,0.0,0.0,0.0,0.0,0.0,0.0,0.0,0.0,1.1724,1.1553,0.9966,0.6995,0.2235,0.0752,-0.076,-0.2306,-0.9043,-1.2327,-1.2301,-1.228,-1.2644,-1.3595,-1.3601,-1.417,-1.4942,-1.5229,-1.5361,-1.5196,-1.5958,-1.6422,-1.6387,-1.6812,-1.7604,-1.867,-1.848,-1.9418,-2.1137,-2.1925,-2.2628,-2.3267,-2.4301,-2.4696,-2.4696,-2.4696,-2.4696,-2.4862,-2.5193,-2.6031,-2.6867,-2.7824,-2.864,-2.9776,-3.1707,-3.3141,-3.4107,-3.4107,-3.5067,-3.5866,-3.5866,-3.7074,-3.8133,-3.8133,-4.0241,-4.1905,-4.1905,-4.4023,-4.5623,-4.5623,-4.6175,-4.6474,-4.6277,-4.7102,-4.7946,-4.8372,-4.916,-5.0289,-5.1927,-5.2035,-5.2562,-5.3605,-5.3605,-5.3605,-5.3605,-5.3605,-5.4631,-5.6564,-5.7381,-5.8053,-5.8837,-5.9274,-5.945,3.7351,3.8797,3.9894,4.1698,4.2665,4.3148,4.3148,4.3628,4.4075,4.4075,4.4995,4.5412,4.3951,4.2179,4.0686,4.0031,3.9562,3.8537,3.6644,3.4405,3.2156,0.0,0.0,0.0,0.0,0.0,0.0,0.0,1.1651,1.1144,1.1149,0.7794,0.5731,0.5378,0.183,-0.2037,-0.6126,-1.0212,-1.2052,-1.183,-1.183,-1.2192,-1.2737,-1.3109,-1.3463,-1.3992,-1.4826,-1.5137,-1.5324,-1.7013,-1.7961,-1.8123,-1.9579,-2.033,-2.0303,-2.0041,-2.0927,-2.2442,-2.2175,-2.3188,-2.4696,-2.4696,-2.4696,-2.4696,-2.4696,-2.4696,-2.5027,-2.6361,-2.6702,-2.7346,-2.9938,-3.0583,-3.0905,-3.2202,-3.2521,-3.2521,-3.2521,-3.3791,-3.4893,-3.505,-3.7501,-3.9353,-3.9353,-4.131,-4.296,-4.296,-4.3985,-4.4711,-4.4855,-4.4855,-4.4855,-4.4855,-4.7102,-4.8576,-4.8697,-5.0854,-5.2778,-5.3863,-5.3915,-5.44,-5.541,-5.541,-5.5436,-5.5489,-5.5436,-5.5784,-5.6607,-5.7476,-5.7906,-5.7805,-5.908,-5.9656,3.6004,3.9489,4.2114,4.2185,4.2665,4.3148,4.3148,4.3093,4.2889,4.2667,4.2339,4.2377,4.3207,4.19,4.0775,4.056,3.9055,3.7519,3.6489,3.3569,3.1152,3.0071,2.7144,2.4341,0.0,0.0,0.0,0.0,1.3012,1.1835,1.1181,1.0181,0.7081,0.1616,0.0542,-0.2008,-0.6126,-0.7224,-0.9246,-1.183,-1.183,-1.2192,-1.2737,-1.3109,-1.3078,-1.2891,-1.4061,-1.455,-1.4743,-1.6766,-1.7734,-1.8278,-1.9453,-2.097,-2.2397,-2.1622,-2.2523,-2.4035,-2.4066,-2.4364,-2.4696,-2.4696,-2.4696,-2.4696,-2.4696,-2.537,-2.6196,-2.6525,-2.7988,-2.9614,-3.0261,-3.1226,-3.2042,-3.2377,-3.2521,-3.2521,-3.2521,-3.3332,-3.4736,-3.6884,-3.9164,-4.0692,-4.0692,-4.1905,-4.296,-4.296,-4.3985,-4.5122,-4.62,-4.6342,-4.6484,-4.7071,-4.8512,-4.9389,-4.943,-5.0708,-5.1911,-5.2686,-5.276,-5.2774,-5.2916,-5.301,-5.3432,-5.4276,-5.3458,-5.4244,-5.6738,-5.5892,-5.7124,-6.0279,-6.2457,-6.1965,3.3457,3.7481,4.1297,4.2162,4.2763,4.3148,4.3148,4.3004,4.2763,4.2399,4.1676,4.1514,4.2661,4.2155,4.1466,4.0861,3.9802,3.8472,3.6902,3.3379,3.0802,3.0218,2.698,2.402,2.2175,2.014,1.7935,1.5398,1.3356,1.1835,1.1181,0.9603,0.5959,0.0177,0.0,-0.1965,-0.5973,-0.5954,-0.7749,-1.155,-1.1535,-1.1703,-1.2055,-1.2591,-1.2781,-1.2514,-1.3497,-1.468,-1.5734,-1.7682,-1.9225,-2.0585,-2.1526,-2.285,-2.4071,-2.3463,-2.3854,-2.4696,-2.4696,-2.4696,-2.4696,-2.4696,-2.5027,-2.5536,-2.5536,-2.6525,-2.7674,-2.8151,-2.9452,-3.0583,-3.1226,-3.1882,-3.2521,-3.2521,-3.2521,-3.268,-3.3458,-3.4074,-3.5469,-3.8079,-4.0373,-4.2054,-4.2054,-4.296,-4.3693,-4.3693,-4.4276,-4.5244,-4.6603,-4.7026,-4.7564,-4.8558,-4.9632,-5.0579,-5.1115,-5.1961,-5.2912,-5.3749,-5.3723,-5.3451,-5.2931,-5.2905,-5.2957,-5.3089,-5.1929,-5.269,-5.5441,-5.5251,-5.6878,-6.0359,-6.3383,-6.364,3.0821,3.4463,3.8585,4.1471,4.2497,4.2884,4.3004,4.3028,4.3004,4.2642,4.1987,4.1722,4.1989,4.1999,4.1589,4.0539,4.0329,3.9413,3.7122,3.3521,3.0962,3.0525,2.6967,2.402,2.2509,2.014,1.7774,1.5732,1.3356,1.1662,1.1175,0.7667,0.3831,0.0174,0.0,-0.1748,-0.5601,-0.5583,-0.7497,-1.1023,-1.1159,-1.1144,-1.1144,-1.1991,-1.2496,-1.2514,-1.3284,-1.4958,-1.7209,-1.8961,-2.112,-2.3211,-2.4217,-2.5024,-2.5447,-2.4895,-2.4696,-2.4696,-2.4696,-2.4696,-2.4696,-2.4862,-2.5701,-2.6702,-2.6867,-2.7838,-2.9128,-3.0261,-3.0583,-3.1066,-3.2202,-3.2521,-3.2521,-3.2521,-3.268,-3.33,-3.5,-3.573,-3.6797,-3.9108,-4.142,-4.296,-4.3107,-4.3985,-4.4711,-4.4978,-4.4978,-4.5674,-4.7284,-4.7842,-4.8535,-4.988,-5.1115,-5.2175,-5.2985,-5.3837,-5.4605,-5.5357,-5.5357,-5.483,-5.3669,-5.3458,-5.3024,-5.2343,-5.1305,-5.1876,-5.3977,-5.5115,-5.6804,-5.889,-6.2116,-6.3704,3.1142,3.3265,3.5515,3.9206,4.0566,4.1307,4.2497,4.2642,4.2642,4.23,4.1888,4.1251,3.993,3.9286,3.8648,3.8056,3.7525,3.6946,3.654,3.3379,3.0802,3.0071,2.6816,2.453,2.4186,2.1149,1.8603,1.7571,1.4194,1.2008,1.1191,0.7671,0.3834,0.0175,0.0,-0.1748,-0.5601,-0.5583,-0.7497,-1.1023,-1.1159,-1.1144,-1.1144,-1.1991,-1.2496,-1.2502,-1.3413,-1.4812,-1.6695,-1.8548,-2.0666,-2.2934,-2.4249,-2.5024,-2.5447,-2.4895,-2.4696,-2.4696,-2.4696,-2.4696,-2.4862,-2.5866,-2.6538,-2.6867,-2.7838,-2.9128,-3.0261,-3.0422,-3.1226,-3.2202,-3.2361,-3.2521,-3.2521,-3.2521,-3.3601,-3.5157,-3.7158,-3.8061,-3.909,-4.0914,-4.2162,-4.3254,-4.4276,-4.4566,-4.5122,-4.6342,-4.6462,-4.7564,-5.0603,-5.103,-5.1563,-5.2668,-5.3708,-5.4222,-5.3837,-5.4784,-5.5048,-5.4223,-5.417,-5.3643,-5.2483,-5.148,-5.1818,-5.3524,-5.3272,-5.4015,-5.5432,-5.5316,-5.5925,-5.6997,-5.7642,-5.7929,2.7974,3.078,3.3421,3.5314,3.7571,3.9628,4.0937,4.1206,4.096,3.9965,3.9442,3.8916,3.8026,3.7751,3.726,3.6794,3.6445,3.6286,3.6335,3.2994,3.0435,3.0467,2.7131,2.4696,2.4696,2.1306,1.8941,1.7901,1.4529,1.2008,1.1196,0.7674,0.3834,0.0175,0.0,-0.0874,-0.2622,-0.4707,-0.7497,-1.1023,-1.1159,-1.1144,-1.1144,-1.1478,-1.1991,-1.2496,-1.3871,-1.574,-1.8113,-1.9972,-2.211,-2.4225,-2.4561,-2.5024,-2.5447,-2.4895,-2.5193,-2.5689,-2.5689,-2.6183,-2.6841,-2.7497,-2.8164,-2.8803,-2.9452,-3.0422,-3.1562,-3.1562,-3.2042,-3.2521,-3.2521,-3.2521,-3.268,-3.3601,-3.514,-3.7158,-3.8842,-3.9883,-4.0914,-4.2584,-4.3359,-4.3985,-4.4566,-4.4711,-4.5266,-4.6603,-4.7586,-4.8857,-5.1321,-5.1853,-5.2643,-5.3914,-5.4784,-5.5164,-5.4911,-5.5317,-5.5357,-5.4803,-5.4751,-5.459,-5.3987,-5.4096,-5.4255,-5.4735,-5.427,-5.4934,-5.6838,-5.6168,-5.6022,-5.6328,-5.6483,-5.6573,2.435,2.8031,3.1254,3.1413,3.4021,3.706,3.9083,3.9273,3.8641,3.7642,3.7148,3.6889,3.661,3.65,3.6384,3.5794,3.567,3.5774,3.5915,3.2411,3.0033,3.0682,2.7087,2.4579,2.4684,2.1306,1.8941,1.7901,1.4529,1.2008,1.1196,0.7674,0.3834,0.0175,0.0,0.0,0.0,-0.3834,-0.7497,-1.1023,-1.1159,-1.1144,-1.1144,-1.1144,-1.1478,-1.2502,-1.4372,-1.7086,-1.9962,-2.1337,-2.3262,-2.5294,-2.486,-2.5122,-2.5622,-2.5194,-2.5866,-2.7018,-2.7018,-2.7674,-2.864,-2.8965,-2.9614,-3.0583,-3.0905,-3.1722,-3.2521,-3.2521,-3.2521,-3.2521,-3.2839,-3.2983,-3.3442,-3.5608,-3.7312,-3.8994,-4.0803,-4.1697,-4.2584,-4.3964,-4.4566,-4.4855,-4.5122,-4.5122,-4.5674,-4.7166,-4.8605,-5.0134,-5.1745,-5.2381,-5.3165,-5.4555,-5.519,-5.5568,-5.5917,-5.5694,-5.5819,-5.6414,-5.6139,-5.5973,-5.6064,-5.6936,-5.7007,-5.5918,-5.5204,-5.5651,-5.7403,-5.6706,-5.6334,-5.6094,-5.6397,-5.652,2.2821,2.5479,2.819,2.867,3.0643,3.3371,3.6926,3.661,3.5698,3.676,3.7018,3.661,3.5324,3.5192,3.4928,3.4281,3.4147,3.4311,3.4733,3.154,2.9231,2.9439,2.621,2.4191,2.4649,2.1306,1.8941,1.7901,1.4529,1.2008,1.1196,0.7674,0.3834,0.0175,0.0,0.0,0.0,-0.3834,-0.7497,-1.1023,-1.1159,-1.1144,-1.1144,-1.1144,-1.1311,-1.1991,-1.4714,-1.8104,-2.1672,-2.184,-2.3043,-2.4766,-2.4708,-2.5394,-2.6448,-2.655,-2.7346,-2.8314,-2.8314,-2.8477,-2.8803,-2.9938,-3.0422,-3.0744,-3.1882,-3.2361,-3.2521,-3.2521,-3.2521,-3.2839,-3.4373,-3.4827,-3.5608,-3.869,-3.977,-4.0803,-4.2793,-4.3547,-4.3985,-4.4566,-4.4711,-4.5122,-4.6462,-4.6603,-4.7166,-4.8766,-5.0134,-5.1745,-5.3605,-5.3863,-5.412,-5.4885,-5.4986,-5.5588,-5.7015,-5.6263,-5.651,-5.8837,-5.786,-5.719,-5.7188,-5.722,-5.7095,-5.6958,-5.6908,-5.673,-5.6336,-5.6154,-5.6186,-5.6518,-5.6518,-5.6548,1.8086,2.1405,2.4275,2.4634,2.7232,3.046,3.2805,3.2204,3.1374,3.2894,3.2473,3.1899,3.2374,3.2374,3.2361,3.2128,3.2059,3.2299,3.2912,2.9657,2.7405,2.7871,2.5321,2.3071,2.2455,2.0104,1.7926,1.6086,1.3595,1.1841,1.1196,0.5403,0.1569,0.0,0.0,0.0,0.0,-0.3834,-0.7497,-1.1023,-1.1159,-1.1484,-1.233,-1.1484,-1.2335,-1.4707,-1.522,-1.7765,-2.1652,-2.301,-2.402,-2.4696,-2.5536,-2.6196,-2.6702,-2.751,-2.864,-2.9776,-2.9776,-3.0261,-3.1066,-3.1562,-3.1722,-3.1722,-3.2361,-3.2521,-3.2521,-3.2521,-3.3141,-3.4058,-3.4827,-3.5747,-3.7448,-4.0823,-4.2054,-4.2625,-4.3693,-4.4276,-4.4566,-4.4711,-4.5388,-4.62,-4.6744,-4.7586,-4.8743,-5.027,-5.0944,-5.1878,-5.3501,-5.4146,-5.4784,-5.5686,-5.6156,-5.7015,-5.8337,-5.8035,-5.8274,-5.9217,-5.8021,-5.7303,-5.7195,-5.7963,-5.7957,-5.7202,-5.7269,-5.6796,-5.5625,-5.585,-5.6185,-5.6518,-5.6518,-5.6518,1.4236,1.7498,2.06,2.1424,2.408,2.6991,2.8728,2.7798,2.7276,2.9321,2.8799,2.8382,2.9491,2.9645,2.9783,2.9783,2.9783,2.9944,3.0587,2.766,2.5744,2.649,2.3987,2.19,2.094,1.8945,1.6887,1.49,1.3034,1.1322,0.9607,0.3484,0.0,0.0,0.0,0.0,0.0,-0.3834,-0.7497,-1.1017,-1.1159,-1.1824,-1.3178,-1.2508,-1.3693,-1.6568,-1.6908,-1.8603,-2.1641,-2.3843,-2.4862,-2.5358,-2.6208,-2.7018,-2.7838,-2.8803,-2.9938,-3.1066,-3.1066,-3.1722,-3.2521,-3.2521,-3.2521,-3.2521,-3.2521,-3.2521,-3.2521,-3.3141,-3.4058,-3.514,-3.6213,-3.7755,-3.9732,-4.235,-4.3401,-4.3985,-4.4668,-4.5101,-4.5531,-4.5982,-4.6789,-4.7749,-4.8143,-4.9132,-5.0174,-5.1327,-5.168,-5.2175,-5.2915,-5.3838,-5.5038,-5.6403,-5.723,-5.8309,-5.9798,-5.9538,-5.9397,-5.9826,-5.863,-5.7487,-5.664,-5.7463,-5.7531,-5.6604,-5.6766,-5.6346,-5.5193,-5.585,-5.6246,-5.6518,-5.6518,-5.6605,1.1914,1.4414,1.744,1.9251,2.1074,2.2949,2.4938,2.3959,2.368,2.6669,2.7236,2.7236,2.7221,2.7221,2.7376,2.781,2.7516,2.7376,2.781,2.5844,2.4664,2.5289,2.2211,2.0298,2.0751,1.7976,1.5741,1.49,1.3034,1.0263,0.592,0.209,0.0,0.0,0.0,0.0,0.0,-0.3831,-0.7493,-1.0997,-1.1154,-1.1824,-1.3178,-1.4207,-1.5227,-1.6738,-1.9943,-2.1296,-2.1641,-2.3843,-2.5524,-2.6538,-2.6702,-2.8164,-3.0422,-3.0422,-3.1387,-3.2361,-3.2361,-3.2361,-3.2521,-3.2521,-3.2521,-3.2521,-3.2521,-3.2521,-3.2839,-3.453,-3.4984,-3.5764,-3.9012,-4.129,-4.296,-4.296,-4.3547,-4.4545,-4.5894,-4.6581,-4.7307,-4.8766,-4.9179,-4.959,-5.1078,-5.1212,-5.1401,-5.1901,-5.2789,-5.312,-5.2027,-5.3198,-5.4732,-5.6702,-5.7952,-5.9366,-6.1079,-6.0028,-5.9826,-6.0987,-5.9947,-5.8029,-5.5351,-5.5241,-5.5257,-5.5227,-5.5227,-5.5265,-5.5212,-5.6155,-5.6552,-5.6518,-5.6518,-5.6536,0.8008,1.0986,1.3838,1.4639,1.7088,1.902,1.8278,1.8874,1.9758,2.077,2.1758,2.2725,2.3918,2.5095,2.5844,2.5844,2.5844,2.5844,2.5844,2.4152,2.2949,2.3136,2.0963,1.9102,1.8182,1.6251,1.4373,1.3322,1.1785,0.8219,0.2043,0.0673,0.0,0.0,0.0,-0.1178,-0.3754,-0.7514,-0.9985,-1.117,-1.1831,-1.3413,-1.541,-1.5797,-1.7757,-2.1139,-2.1306,-2.2321,-2.3676,-2.4352,-2.5524,-2.6854,-2.864,-2.9776,-3.0583,-3.1562,-3.2042,-3.2521,-3.2521,-3.2521,-3.2521,-3.2521,-3.2521,-3.2521,-3.2521,-3.33,-3.4373,-3.4827,-3.6523,-3.8842,-4.1011,-4.2222,-4.3233,-4.4481,-4.518,-4.6058,-4.7911,-4.8328,-4.8605,-4.9041,-4.927,-4.9543,-5.0068,-5.028,-5.0615,-5.0634,-5.1011,-5.1334,-5.1828,-5.32,-5.4418,-5.5146,-5.671,-5.8164,-5.9587,-5.9941,-6.0286,-6.062,-5.8075,-5.6148,-5.5241,-5.5193,-5.5227,-5.5227,-5.5172,-5.5421,-5.5729,-5.7215,-5.7441,-5.6577,-5.7894,-5.8376,0.5463,0.8021,1.0375,1.1062,1.2467,1.3476,1.2888,1.3955,1.5208,1.6367,1.7485,1.8868,2.0938,2.2743,2.4072,2.4217,2.4072,2.3994,2.4049,2.2743,2.1888,2.1888,2.03,1.8689,1.7066,1.5457,1.3753,1.2084,0.9743,0.5904,0.0333,0.0,0.0,0.0,0.0,-0.181,-0.5672,-0.9185,-1.0936,-1.089,-1.205,-1.3763,-1.6053,-1.7219,-1.9558,-2.3088,-2.3255,-2.4163,-2.5524,-2.6019,-2.6677,-2.751,-2.9776,-3.0744,-3.1402,-3.2202,-3.2521,-3.2521,-3.3141,-3.3458,-3.3617,-3.4215,-3.4373,-3.4373,-3.4373,-3.514,-3.6058,-3.6677,-3.8232,-4.0373,-4.2752,-4.3631,-4.4397,-4.5835,-4.6444,-4.7044,-4.8506,-4.8701,-4.8967,-4.9495,-4.9717,-4.9761,-4.9761,-4.9989,-5.0167,-5.0161,-5.0495,-5.1076,-5.1979,-5.3378,-5.4593,-5.5227,-5.6418,-5.7549,-5.8515,-5.9147,-5.9187,-5.8488,-5.6432,-5.5176,-5.5227,-5.5227,-5.5172,-5.5212,-5.5213,-5.5577,-5.6201,-5.79,-5.8443,-5.7956,-5.908,-5.9612,0.381,0.547,0.72,0.828,0.7622,0.7101,0.8775,0.9422,1.026,1.3005,1.4025,1.5268,1.7745,2.0063,2.1887,2.25,2.2234,2.2083,2.2165,0.0,2.1465,2.1657,2.0176,1.8542,1.7057,1.528,1.3328,1.1193,0.7212,0.3567,0.0814,0.0326,0.0,0.0,-0.0325,-0.2275,-0.6025,-0.9124,-1.0743,-1.0705,-1.1998,-1.3762,-1.5829,-1.8461,-2.0779,-2.2933,-2.5522,-2.6601,-2.6803,-2.7935,-2.8613,-2.8803,-3.0099,-3.1241,-3.2536,-3.2521,-3.268,-3.2824,-3.4513,-3.514,-3.5452,-3.6986,-3.7583,-3.7583,-3.7583,-3.7583,-3.8061,-3.9467,-3.9995,-4.0758,-4.4206,-4.5349,-4.5835,-4.6745,-4.7207,-4.7634,-4.8116,-4.8173,-4.8548,-4.9954,-5.0122,-5.0071,-5.0192,-5.0116,-5.0042,-5.0154,-5.1058,-5.1952,-5.2245,-5.3592,-5.4975,-5.643,-5.691,-5.7286,-5.75,-5.7571,-5.6879,-5.533,-5.5247,-5.5231,-5.5231,-5.5172,-5.5152,-5.5233,-5.5475,-5.6049,-5.6733,-5.8628,-5.9677,-6.0081,-6.0161,-6.0283,0.1286,0.3315,0.536,0.5671,0.553,0.5395,0.5837,0.6991,0.8149,0.8782,0.9128,0.9755,1.1521,1.3279,1.565,1.9433,1.9265,1.9449,2.1933,2.0838,2.0444,2.2025,1.9337,1.7362,1.6918,1.371,1.159,1.1187,0.7318,0.5615,0.7334,0.2665,0.0,0.0,-0.3257,-0.6417,-0.941,-1.0039,-1.1187,-1.2806,-1.4883,-1.6398,-1.7798,-2.1043,-2.3167,-2.4441,-2.597,-2.6897,-2.7482,-2.7628,-2.8699,-3.0099,-3.0422,-3.1241,-3.268,-3.3916,-3.4373,-3.4687,-3.6368,-3.6968,-3.6986,-3.7448,-3.7583,-3.7583,-3.7583,-3.8366,-3.9316,-3.977,-4.0725,-4.2047,-4.4184,-4.5143,-4.576,-4.6985,-4.7602,-4.8214,-4.9366,-4.9685,-4.9685,-5.0076,-4.9512,-4.9257,-4.9972,-4.9524,-4.9206,-5.007,-5.0529,-5.1227,-5.2131,-5.3798,-5.4951,-5.5283,-5.6375,-5.675,-5.5844,-5.582,-5.5605,-5.5217,-5.5242,-5.5153,-5.5153,-5.5199,-5.5202,-5.5188,-5.8495,-5.9717,-5.8643,-6.0335,-6.0935,-6.0399,-6.1041,-6.1412,-0.1026,0.0888,0.2526,0.1156,0.088,0.1044,0.1623,0.2499,0.3965,0.6477,0.6687,0.7328,0.9987,1.1517,1.3503,1.683,1.7492,1.8109,1.9794,1.8963,1.8552,1.9622,0.0,1.6541,1.5467,1.3398,1.1617,1.0561,0.8444,0.659,0.5284,0.1843,-0.0762,-0.2132,-0.5025,-0.7663,-1.0104,-1.1172,-1.2308,-1.3494,-1.6203,-1.7945,-1.8854,-2.2374,-2.4472,-2.5407,0.0,-2.7773,-2.8095,-2.8712,-3.0158,-3.2153,-3.2153,-3.3281,-3.4827,-3.5747,-3.6213,-3.6368,-3.8061,-3.8519,-3.869,-3.9449,-3.9486,-3.9184,-3.9184,-3.9362,-3.9948,-4.0631,-4.2014,-4.3807,-4.5508,-4.6175,-4.6568,-4.7638,-4.8177,-4.8296,-4.8539,-4.9001,-4.9442,-4.9442,-4.9384,-4.9476,-5.0116,-4.9717,-4.9745,-5.0777,-5.1166,-5.1755,-5.3148,-5.4223,-5.489,-5.4974,-5.573,-5.5975,-5.5257,-5.5227,-5.5227,-5.5227,-5.5214,-5.5962,-5.7672,-5.7725,-5.7829,-5.8212,-6.0565,-6.1368,-6.0432,-6.1413,-6.1571,-6.1057,-6.189,-6.2241,-0.3198,-0.1676,-0.091,-0.3409,-0.3829,-0.3371,-0.2298,-0.2,-0.0714,0.4007,0.4661,0.5461,0.8831,1.0633,1.1997,1.309,1.5297,1.7055,1.7417,1.6893,1.6661,1.6659,1.6588,1.5733,1.3656,1.317,1.2006,0.9921,0.8849,0.5785,0.0304,-0.0913,-0.2738,-0.5478,-0.6533,-0.8046,-1.0325,-1.258,-1.3785,-1.4233,-1.7158,-1.89,-1.9786,-2.3335,-2.5356,-2.6131,0.0,-2.8568,-2.882,-3.0164,-3.1897,-3.3886,-3.4138,-3.5472,-3.7287,-3.7394,-3.7755,-3.8061,-3.9316,-4.0222,-4.0803,-4.2062,-4.2081,-4.1695,-4.1552,-4.0978,-4.0693,-4.213,-4.3601,-4.5022,-4.6865,-4.7388,-4.754,-4.8353,-4.8617,-4.8361,-4.7502,-4.8165,-4.8798,-4.8798,-4.9531,-5.0223,-5.0356,-5.0462,-5.0882,-5.2044,-5.242,-5.3049,-5.434,-5.4724,-5.4979,-5.5227,-5.5227,-5.5227,-5.5227,-5.5227,-5.5231,-5.5208,-5.5698,-5.7404,-6.0557,-6.0621,-6.1004,-6.1781,-6.1825,-6.1837,-6.1822,-6.189,-6.1994,-6.2101,-6.2687,-6.2954,-0.5022,-0.4716,-0.4559,-0.4998,-0.4383,-0.3624,-0.346,-0.3458,-0.3007,-0.1506,-0.1209,-0.0908,0.0151,0.3954,0.6155,0.453,0.9386,1.4339,1.7466,1.615,1.5526,1.7286,1.6035,0.0,1.4,1.2111,1.065,0.9754,0.4556,0.1063,0.0,-0.5174,-0.8394,-0.9006,-0.9133,-1.0325,-1.2887,-1.4233,-1.5723,-1.7371,-1.9559,-2.1006,-2.1877,-2.4973,-2.6609,-2.6751,0.0,0.0,-2.9503,-3.0918,-3.2048,-3.307,-3.5035,-3.6097,-3.6424,-3.7198,-3.8366,-3.9467,-3.977,-4.1717,-4.3839,-4.3167,-4.3632,-4.4574,-4.3851,-4.3498,-4.356,-4.3873,-4.4225,-4.4726,-4.6519,-4.6917,-4.7187,-4.8367,-4.8648,-4.8817,-4.945,-4.9825,-4.9932,-4.9932,-5.0011,-5.0462,-5.1429,-5.1635,-5.2145,-5.3502,-5.3923,-5.4214,-5.4694,-5.5009,-5.5197,-5.5227,-5.5227,-5.5227,-5.5227,-5.5227,-5.5212,-5.5159,-5.8057,-6.0061,-6.0615,-6.0663,-6.0976,-6.1818,-6.1831,-6.1822,-6.1838,-6.2347,-6.292,-6.3469,-6.3595,-6.3623,-0.715,-0.7458,-0.7765,-0.7765,-0.7306,-0.6999,-0.6999,-0.6999,-0.6847,-0.6551,-0.4414,-0.2434,-0.2129,0.0152,0.198,0.2001,0.5442,0.923,1.1862,1.213,1.2574,1.4195,1.3778,1.2689,0.0,1.0707,0.8972,0.5323,0.1975,-0.1518,-0.502,-0.8077,-0.9764,-0.9764,-1.0348,-1.2274,-1.554,-1.6011,-1.7491,-2.0267,-2.1419,-2.2731,-2.4165,-2.6592,-2.815,-2.8969,-2.9401,-3.0287,-3.1417,-3.211,-3.3238,-3.4826,-3.5916,-3.7444,-3.9166,-3.8837,-4.0402,-4.2678,-4.2,-4.317,-4.4859,-4.3857,-4.3697,-4.3825,-4.3766,-4.4534,-4.5545,-4.6425,-4.6605,-4.6944,-4.8307,-4.8663,-4.8772,-4.9315,-4.9423,-4.9531,-5.0039,-5.0672,-5.109,-5.109,-5.1607,-5.2219,-5.2779,-5.2879,-5.3078,-5.3699,-5.4147,-5.4436,-5.4628,-5.4914,-5.5227,-5.5227,-5.5227,-5.5172,-5.5243,-5.6976,-5.8109,-5.8103,-5.9736,-6.0631,-6.0673,-6.1057,-6.1471,-6.1831,-6.1792,-6.2143,-6.2835,-6.3174,-6.3469,-6.3748,-6.4149,-6.4269,-1.0024,0.0,-1.1097,-1.1097,-1.0946,-1.0795,0.0,-1.0644,-1.0505,-1.0376,-0.7605,-0.516,-0.4405,-0.3489,-0.2273,-0.0455,0.2008,0.42,0.5788,0.763,0.941,1.0967,1.1119,1.0569,0.949,0.8879,0.6533,0.1217,-0.0304,-0.3646,-0.9466,-0.9759,-0.9905,-1.0051,-1.1987,-1.45,-1.7747,-1.8481,-2.0089,-2.2418,-2.3802,-2.5095,-2.6563,-2.8552,-3.009,-3.117,-3.117,-3.185,-3.2912,-3.3181,-3.4352,-3.6051,-3.6921,-3.9039,-4.1455,-4.083,-4.2406,-4.4806,-4.3872,-4.4147,-4.4921,-4.4823,-4.4408,-4.3913,-4.4053,-4.5656,-4.7496,-4.8689,-4.8908,-4.9098,-4.9932,-5.0117,-5.0223,-5.0462,-5.0567,-5.0672,-5.0854,-5.1709,-5.2348,-5.2348,-5.3078,-5.3699,-5.3699,-5.3699,-5.3796,-5.3796,-5.4214,-5.4532,-5.4658,-5.4914,-5.5231,-5.5175,-5.5238,-5.5152,-5.5206,-5.8566,-6.0691,-6.0613,-6.0627,-6.0649,-6.0668,-6.1412,-6.1804,-6.178,-6.2008,-6.2667,-6.3748,-6.3871,-6.4054,-6.4234,-6.4735,-6.4996,0.0,-1.526,-1.526,-1.526,-1.4814,-1.421,-1.421,-1.3628,0.0,-1.2039,-1.28,-1.2786,-0.9743,-0.8367,-0.7294,-0.6227,-0.2318,0.109,0.198,0.4486,0.7,0.9576,0.8651,0.866,1.094,0.623,0.2282,0.0304,-0.2734,-0.6082,-0.9602,-0.9754,-1.0202,-1.1247,-1.5375,-1.7894,-1.8501,-2.2464,-2.3918,-2.3319,-2.7426,-2.9225,-2.8752,-3.1391,-3.2643,0.0,-3.2643,-3.2778,-3.2912,-3.4266,-3.4966,-3.5364,-3.8818,-4.0266,-4.0808,-4.2705,-4.3587,-4.3919,-4.4006,-4.4138,-4.4511,-4.6175,-4.6898,-4.6992,-4.6378,-4.7969,-4.9932,-5.0039,-5.0011,-5.0011,-5.0117,-5.0117,-5.0462,-5.1532,-5.1737,-5.2044,-5.3177,-5.3502,-5.3502,-5.3502,-5.3601,-5.3699,-5.3699,-5.3796,-5.4117,-5.434,-5.4599,-5.4884,-5.5133,-5.5227,-5.5238,-5.5243,-5.5182,-5.5175,-5.5172,-5.8574,-6.0692,-6.0651,-6.064,-6.0626,-6.061,-6.1386,-6.1838,-6.177,-6.2628,-6.3312,-6.3748,-6.4387,-6.4996,-6.5575,-6.5732,-6.5835,-1.616,-1.6308,-1.5706,-1.5706,-1.5557,-1.526,-1.526,-1.5112,-1.4822,-1.4391,-1.4398,-1.4249,-1.303,-1.1974,-1.0621,-0.8197,-0.6261,-0.4286,-0.1976,0.0153,0.2296,0.4556,0.6378,0.6836,0.5466,0.3341,0.0456,-0.3191,-0.6227,-0.8358,-0.9582,-1.1241,-1.3614,-1.6974,-1.8587,-2.1048,-2.3905,-2.4588,-2.6279,-2.8875,-2.9637,-3.0473,-3.1391,-3.2356,-3.383,-3.5378,-3.5378,-3.6421,0.0,-3.8515,-3.8768,-3.8937,-4.0208,-4.1471,-4.2388,-4.2398,-4.3926,-4.5964,-4.6093,-4.6586,-4.7489,-4.8928,-4.9144,-4.8858,-4.8575,-4.9288,-5.0329,-5.0986,-5.1194,-5.1401,-5.2117,-5.232,-5.2449,-5.2879,-5.2979,-5.3078,-5.3572,-5.3699,-5.3699,-5.3699,-5.3699,-5.3865,-5.4385,-5.47,-5.5048,-5.576,-5.6184,-5.6574,-5.6694,-5.6478,-5.632,-5.6335,-5.7672,-5.8579,-5.855,-5.9879,-6.0673,-6.065,-6.0659,-6.0866,-6.1352,-6.1702,-6.2209,-6.3032,-6.3784,-6.4223,-6.4387,-6.5052,-6.5522,-6.5835,-6.5886,-6.5936,-1.8375,-1.8218,-1.7629,-1.7629,-1.7334,-1.7186,-1.7186,-1.7038,-1.6752,-1.6308,-1.6151,-1.5697,-1.4806,-1.4516,-1.3472,-1.061,-0.9556,-0.8339,-0.6065,-0.3941,-0.1971,-0.0303,0.3185,0.4251,0.076,-0.0304,-0.2429,-0.6688,-0.866,-1.0325,-1.1511,-1.3165,-1.655,-2.1914,-2.2738,-2.4858,-2.8274,-2.809,-2.9467,-3.2339,-3.2635,-3.3303,-3.4211,-3.4984,-3.6401,-3.8219,-3.8219,-3.9252,-4.1061,-4.1385,-4.1607,-4.1729,-4.2508,-4.3582,-4.4664,-4.422,-4.5787,-4.8002,-4.799,-4.859,-4.9462,-5.0467,-5.034,-4.9905,-4.9905,-5.054,-5.1401,-5.2247,-5.2449,-5.2679,-5.3473,-5.3699,-5.3699,-5.4029,-5.4126,-5.4126,-5.451,-5.4605,-5.4605,-5.4605,-5.4605,-5.4765,-5.5453,-5.5729,-5.6215,-5.6924,-5.7422,-5.7743,-5.7868,-5.7734,-5.7694,-5.8094,-5.9646,-6.063,-6.0651,-6.0629,-6.0617,-6.0659,-6.0839,-6.1311,-6.2311,-6.2606,-6.3158,-6.4054,-6.4678,-6.5052,-6.5052,-6.5468,-6.5732,-6.5835,-6.5886,-6.6087,-2.1006,-2.1599,-2.1599,-2.1599,-2.1006,-2.0435,-2.0435,-1.9851,-1.8972,-1.7786,-1.8532,-1.8384,-1.5244,-1.5549,-1.5697,-1.3785,-1.1674,-1.0303,-1.0436,-0.7584,-0.5169,-0.4398,-0.0758,0.0608,-0.2284,-0.4412,-0.684,-0.9571,-0.9722,0.0,-1.5515,-1.5811,-1.8849,-2.5336,-2.7982,-2.979,-3.066,-3.3546,-3.4096,-3.2456,-3.6958,-3.8388,-3.7047,-3.9753,-4.1038,-4.1038,-4.1038,-4.1038,0.0,-4.2364,-4.3013,-4.344,-4.5936,-4.711,-4.7605,-4.8883,-4.9369,-4.9369,-4.9691,-4.9798,-4.9798,-5.0117,-5.0223,-5.0223,-5.0223,-5.1812,-5.3699,-5.3699,-5.3699,-5.3699,-5.3699,-5.3699,-5.3865,-5.483,-5.5018,-5.5298,-5.6336,-5.6515,-5.6515,-5.6515,-5.6515,-5.6574,-5.6748,-5.6955,-5.7248,-5.7508,-5.7797,-5.8125,-5.8674,-5.8886,-5.9351,-6.0534,-6.0615,-6.0627,-6.0662,-6.0629,-6.0677,-6.0637,-6.1155,-6.2109,-6.3532,-6.4328,-6.4713,-6.477,-6.5361,-6.5715,-6.5715,-6.5715,-6.5715,-6.568,-6.5835,-6.6331,-2.1454,-2.2178,-2.2657,-2.2273,-2.2046,-2.1906,-2.1753,-2.1624,-2.159,-2.1649,-2.2142,-2.2274,-2.1372,-1.9932,-1.8628,-1.8451,-1.5672,-1.4195,-1.562,-1.298,-1.0598,-0.9049,-0.6398,-0.4165,-0.349,-0.4641,-0.6862,-1.0621,-1.3599,-1.5672,-1.6854,-2.0736,-2.5548,-3.1102,-3.1051,-3.2787,-3.6431,-3.6381,-3.7067,-3.8452,-3.9775,-4.027,-3.9833,-4.0593,-4.1487,-4.2241,-4.2241,-4.2818,0.0,-4.5176,-4.5809,-4.6104,-4.7943,-4.883,-4.9073,-4.945,-4.9798,-5.0011,-5.0986,-5.1194,-5.1401,-5.2348,-5.265,-5.2821,-5.4296,-5.5175,-5.5698,-5.5698,-5.5698,-5.5698,-5.5698,-5.5698,-5.579,-5.6064,-5.6155,-5.6245,-5.6515,-5.6515,-5.6515,-5.6515,-5.6663,-5.6955,-5.768,-5.8137,-5.8638,-5.9323,-5.9707,-5.9898,-6.0028,-6.0139,-6.0251,-6.0661,-6.065,-6.0912,-6.1526,-6.1562,-6.1905,-6.2514,-6.2715,-6.3302,-6.4328,-6.4597,-6.494,-6.5415,-6.5575,-6.5732,-6.5835,-6.5835,-6.5886,-6.5987,-6.6474,-6.6877,-2.304,-2.3866,-2.4331,-2.3858,-2.3711,-2.3587,-2.3449,-2.3324,-2.3369,-2.3931,-2.4179,-2.4308,-2.3996,-2.255,-2.1528,-2.1914,-1.9317,-1.8021,-2.0012,-1.7405,-1.4766,-1.3242,-1.0034,-0.7805,-0.7112,-0.6384,-0.7685,-1.1967,-1.5532,-1.8744,-2.1746,-2.6293,-3.061,-3.4363,-3.487,-3.6797,-4.0368,-4.0055,-4.0793,-4.2364,-4.2987,-4.2895,-4.2534,-4.3009,-4.3663,-4.4267,-4.4267,-4.5079,0.0,-4.8309,-4.8797,-4.8698,-5.1164,-5.1692,-5.1023,-5.1632,-5.1902,-5.2234,-5.2864,-5.3386,-5.3874,-5.4575,-5.4795,-5.5048,-5.6245,-5.6515,-5.6515,-5.6515,-5.6515,-5.6515,-5.6515,-5.6515,-5.6694,-5.7048,-5.7136,-5.7223,-5.7571,-5.7743,-5.7829,-5.7829,-5.7967,-5.8273,-5.903,-5.9274,-5.9656,-6.0343,-6.0569,-6.0618,-6.0646,-6.0626,-6.0618,-6.0646,-6.1349,-6.2006,-6.2616,-6.248,-6.2808,-6.3693,-6.3817,-6.4244,-6.5052,-6.5107,-6.5271,-6.5715,-6.5767,-6.5783,-6.5886,-6.5936,-6.61,-6.6354,-6.6841,-6.7139,-2.5154,-2.5852,-2.6264,-2.6148,-2.5687,-2.5266,-2.5202,-2.4779,-2.4672,-2.535,-2.563,-2.5475,-2.4838,-2.4411,-2.4398,-2.4912,-2.262,-2.1614,-2.4047,-2.0869,-1.8128,-1.7111,-1.2938,-1.0857,-1.2383,-0.9909,-0.9713,-1.3882,-1.6559,-2.1025,-2.8151,-3.1881,-3.4683,-3.6689,-3.9309,-4.1403,-4.3274,-4.4329,-4.4859,-4.4974,-4.6213,-4.6348,-4.5271,-4.6469,-4.7022,-4.7021,-4.6888,-4.7657,0.0,-5.1108,-5.1415,-5.0999,-5.4487,-5.4578,-5.2984,-5.4272,-5.4812,-5.4902,-5.4902,-5.5669,-5.6515,-5.6515,-5.6694,-5.6783,-5.6783,-5.6783,-5.6783,-5.6783,-5.6783,-5.6783,-5.6783,-5.6871,-5.7048,-5.7914,-5.8168,-5.842,-5.9306,-5.9707,-5.9865,-5.9865,-6.0101,-6.0366,-6.041,-6.0487,-6.0518,-6.0762,-6.0939,-6.1016,-6.0855,-6.0987,-6.1052,-6.1054,-6.2612,-6.3666,-6.3732,-6.3388,-6.3532,-6.4422,-6.4562,-6.4905,-6.5627,-6.5715,-6.568,-6.5715,-6.5835,-6.5936,-6.5987,-6.6136,-6.6354,-6.6784,-6.7066,-6.7393,-2.4837,-2.626,-2.7092,-2.6392,-2.6458,-2.6699,-2.7255,-2.721,-2.7542,-2.867,-2.923,-2.9783,-3.0693,-2.8721,-2.761,-2.9702,-2.6307,-2.4757,-2.8598,-2.4371,-2.1239,-2.2427,-1.8964,-1.6616,-1.6771,-1.5406,-1.6026,-1.9791,-2.0702,-2.3659,-2.954,-3.492,-3.9633,-4.379,-4.3486,-4.461,-4.729,-4.7058,-4.7448,-4.8454,-4.9421,-4.9633,-4.9503,-4.9756,-4.976,-4.969,-4.8918,-4.8805,-4.9157,-5.0089,-5.0337,-5.0331,-5.2292,-5.2859,-5.2444,-5.2748,-5.3596,-5.4537,-5.4537,-5.5448,-5.6515,-5.6515,-5.7571,-5.8702,-5.8702,-5.8702,-5.8702,-5.8702,-5.8702,-5.8702,-5.8702,-5.8899,-5.9062,-5.9225,-5.9879,-6.0399,-6.0617,-6.1212,-6.1646,-6.1646,-6.1826,-6.1933,-6.1933,-6.2106,-6.2109,-6.1736,-6.2993,-6.3605,-6.2447,-6.3299,-6.4003,-6.3974,-6.3871,-6.3983,-6.475,-6.4703,-6.484,-6.5198,-6.5252,-6.5415,-6.568,-6.5715,-6.5732,-6.5835,-6.5886,-6.6185,-6.6796,-6.6877,-6.7102,-6.7593,-6.7964,-6.8174,-2.8222,-2.9448,-2.9862,-2.8895,-2.9125,-2.9527,-2.9819,-3.0102,-3.0508,-3.1404,-3.1798,-3.2086,-3.2778,-3.1374,-3.0813,-3.2391,-2.9976,-2.8721,-3.1272,-2.8336,-2.5943,-2.6153,-2.3568,-2.1764,-2.1937,-2.0462,-2.0777,-2.3646,-2.5212,-2.8833,-3.551,-3.8927,-4.2684,-4.7066,-4.7234,-4.8295,-5.0402,-5.1112,-5.1764,-5.2435,-5.29,-5.2424,-5.1191,-5.0823,-5.03,-4.9738,-4.9309,-4.9651,-5.0559,-5.1274,-5.1197,-5.0954,-5.294,-5.2937,-5.2007,-5.2738,-5.3389,-5.4062,-5.4062,-5.5329,-5.6907,-5.7504,-5.8337,-5.9307,-6.0343,-6.0692,-6.0692,-6.0692,-6.0692,-6.0692,-6.0692,-6.0767,-6.0842,-6.0842,-6.1285,-6.1613,-6.1613,-6.1966,-6.2313,-6.2313,-6.2449,-6.2585,-6.2585,-6.2719,-6.2886,-6.3381,-6.4263,-6.4633,-6.3894,-6.4435,-6.4916,-6.4924,-6.4551,-6.4551,-6.5081,-6.5158,-6.5323,-6.5504,-6.5557,-6.5663,-6.5715,-6.5732,-6.5835,-6.5886,-6.6283,-6.666,-6.7053,-6.7348,-6.7668,-6.814,-6.8303,-6.8492,-3.201,-3.2794,-3.2661,-3.1713,-3.1713,-3.1882,-3.2448,-3.2873,-3.3296,-3.3575,-3.3683,-3.3624,-3.3399,-3.3472,-3.3716,-3.4171,-3.3181,-3.2626,-3.3199,-3.1697,-3.0179,-2.9289,-2.7265,-2.6269,-2.6794,-2.514,-2.5136,-2.7568,-3.1032,-3.5708,-4.2179,-4.3646,-4.5808,-4.9203,-5.086,-5.2206,-5.3252,-5.5118,-5.6002,-5.6002,-5.5938,-5.4826,-5.2698,-5.1733,-5.0867,-5.0081,-4.9817,0.0,-5.2144,-5.2704,-5.2451,-5.1794,-5.3929,-5.3419,-5.1719,-5.2857,-5.3426,-5.3538,-5.3538,-5.5035,-5.7026,-5.8295,-5.9086,-5.986,-6.1596,-6.2209,-6.2209,-6.2209,-6.2209,-6.2209,-6.2209,-6.2175,-6.2244,-6.2244,-6.2278,-6.2347,-6.2449,-6.255,-6.265,-6.2817,-6.2983,-6.3148,-6.3148,-6.3148,-6.3578,-6.4759,-6.489,-6.4933,-6.4924,-6.4911,-6.4911,-6.4911,-6.4911,-6.5025,-6.5102,-6.5268,-6.5432,-6.5557,-6.5663,-6.5715,-6.5715,-6.5835,-6.5886,-6.5936,-6.666,-6.7096,-6.7224,-6.7706,-6.814,-6.8498,-6.8522,-6.8724,-3.2004,-3.2815,-3.2777,-3.2651,-3.1695,-3.1375,-3.4063,-3.4556,-3.4677,-3.5145,-3.5174,-3.5224,-3.5654,-3.6072,-3.6181,-3.5776,-3.5416,-3.5096,-3.4702,-3.2256,-3.1,-3.2086,-3.0882,-2.9894,-2.9871,-2.9637,-3.1017,-3.4587,-4.0237,-4.4043,-4.5318,-4.9308,-5.2021,-5.2737,-5.4939,-5.6147,-5.6386,-5.7266,-5.7788,-5.7756,-5.7362,-5.6946,-5.6529,-5.5183,-5.4552,-5.4296,-5.3057,-5.2705,-5.2874,-5.2182,-5.1805,-5.1743,-5.2574,-5.2377,-5.1743,-5.1938,-5.2506,-5.3181,-5.3253,-5.4334,-5.59,-5.7356,-5.964,-6.18,-6.2141,-6.2209,-6.2209,-6.2209,-6.2209,-6.2209,-6.2209,-6.2313,-6.2415,-6.2415,-6.2585,-6.2851,-6.3435,-6.3561,-6.3783,-6.4433,-6.4644,-6.4644,-6.4644,-6.4644,-6.468,-6.4901,-6.4901,-6.4959,-6.4946,-6.4911,-6.4911,-6.4911,-6.5025,-6.5102,-6.5268,-6.5432,-6.5557,-6.5663,-6.5715,-6.5715,-6.5715,-6.5835,-6.5936,-6.6087,-6.6705,-6.7271,-6.7743,-6.814,-6.8559,-6.8923,-6.8923,-6.9011,-3.1933,-3.4565,-3.5744,-3.3404,-3.4093,-3.5661,-3.6986,-3.6764,-3.6141,-3.6183,-3.6249,-3.634,-3.6186,-3.6868,-3.7115,-3.5698,-3.5854,-3.594,-3.5639,-3.4736,-3.474,-3.6181,-3.577,-3.547,-3.6063,-3.6063,-3.6905,-3.912,-4.4644,-4.8748,-5.0832,-5.3259,-5.4971,-5.6042,-5.7829,-5.9015,-5.9358,-5.9754,-6.0006,-6.0006,-5.9547,-5.8892,-5.8041,-5.7099,-5.5852,-5.4564,-5.3906,-5.3288,-5.2737,-5.231,-5.2144,-5.2209,-5.2558,-5.2558,-5.2368,-5.2524,-5.2827,-5.3165,-5.323,-5.3693,-5.4649,-5.6679,-5.8143,-5.9474,-6.07,-6.1131,-6.1304,-6.217,-6.2412,-6.262,-6.3485,-6.3755,-6.3817,-6.3817,-6.3879,-6.4037,-6.4338,-6.4433,-6.4492,-6.4853,-6.4911,-6.4911,-6.4911,-6.4911,-6.4911,-6.4911,-6.4911,-6.4911,-6.4911,-6.4911,-6.4911,-6.4911,-6.5025,-6.5158,-6.5323,-6.5397,-6.5557,-6.5715,-6.5715,-6.5835,-6.6126,-6.6271,-6.6541,-6.6944,-6.7516,-6.7928,-6.8174,-6.8535,-6.8827,-6.9036,-6.9098,-6.9147,-3.259,-3.6043,-3.8385,-3.5199,-3.5987,-3.7794,-3.8824,-3.8433,-3.7351,-3.6038,-3.6455,-3.6901,-3.6245,-3.7273,-3.75,-3.5984,-3.6432,-3.6875,-3.6512,-3.6846,-3.7675,-3.9159,-3.9374,-3.9753,-4.0681,-4.1304,-4.2375,-4.4407,-4.8667,-5.2562,-5.5575,-5.6743,-5.7854,-5.9196,-6.0519,-6.1378,-6.1905,-6.1938,-6.2006,-6.2006,-6.1281,-6.0366,-5.9298,-5.8371,-5.6707,-5.4622,-5.4491,-5.3791,-5.2897,-5.2745,-5.2774,-5.2986,-5.3201,-5.3201,-5.3201,-5.3405,-5.3371,-5.3279,-5.3687,-5.4211,-5.486,-5.6623,-5.7502,-5.8114,-5.9824,-6.0317,-6.0529,-6.178,-6.2044,-6.2326,-6.3488,-6.4031,-6.4312,-6.4312,-6.4629,-6.4911,-6.4911,-6.4911,-6.4911,-6.4911,-6.4911,-6.4911,-6.4911,-6.4911,-6.4911,-6.4911,-6.4911,-6.4968,-6.5102,-6.5288,-6.5342,-6.5213,-6.545,-6.5575,-6.5557,-6.5783,-6.5901,-6.5886,-6.6001,-6.6259,-6.6651,-6.6827,-6.7119,-6.7632,-6.8137,-6.8442,-6.8442,-6.8808,-6.8997,-6.9061,-6.9147,-6.9217,-3.4167,-3.6271,-3.908,-3.8782,-3.5996,-3.4197,-3.8207,-3.8987,-3.798,-3.4461,-3.5267,-3.6581,-3.6414,-3.7511,-3.816,-3.7397,-3.8067,-3.8503,-3.7519,-3.747,-3.817,-3.9809,-4.0225,-4.0681,-4.1668,-4.355,-4.6701,-5.1525,0.0,-5.5887,-5.7658,-6.0353,-6.2008,-6.2347,-6.3174,-6.3623,-6.3589,-6.3623,-6.3623,-6.3589,-6.186,-6.1013,-6.0875,-5.9233,-5.7579,-5.6047,-5.5551,-5.4794,-5.3949,-5.338,-5.3639,-5.4358,-5.4331,-5.4164,-5.3961,-5.4017,-5.3697,-5.3455,-5.4958,-5.6433,-5.7714,-5.7819,-5.8891,-6.0159,-6.0387,-6.0422,-6.051,-6.07,-6.0668,-6.0564,-6.0669,-6.171,-6.2693,-6.2693,-6.382,-6.4911,-6.4911,-6.4911,-6.4911,-6.4911,-6.4911,-6.4911,-6.4911,-6.4911,-6.4911,-6.4911,-6.4911,-6.5102,-6.561,-6.6175,-6.6459,-6.6087,-6.6459,-6.6642,-6.6283,-6.6687,-6.682,-6.6474,-6.6812,-6.7078,-6.7202,-6.736,-6.7516,-6.7632,-6.8137,-6.8442,-6.8442,-6.8817,-6.9061,-6.9184,-6.9217,-6.9262,-3.7699,-3.9615,-4.0706,-3.665,-3.4408,-3.3753,-3.5267,-3.5598,-3.5249,-3.3854,-3.517,-3.6377,-3.6286,-3.7646,-3.8183,-3.6976,-3.7822,-3.8568,-3.8349,-3.8977,-4.0118,-4.2157,-4.25,-4.3414,-4.5472,-4.8813,-5.1626,-5.3467,-5.5884,-5.8021,-5.9803,-6.095,-6.2302,-6.3924,-6.4572,-6.5075,-6.552,-6.5772,-6.5664,-6.5235,-6.4093,-6.3442,-6.3132,-6.2705,-6.1449,-5.9638,-5.8766,-5.7484,-5.5828,-5.5096,-5.4905,-5.5209,-5.5442,-5.5379,-5.5198,-5.5349,-5.5112,-5.4906,-5.586,-5.6379,-5.6575,-5.6624,-5.7062,-5.7521,-5.757,-5.757,-5.7995,-6.0062,-6.0594,-6.1038,-6.2947,-6.3993,-6.4526,-6.4178,-6.4713,-6.5323,-6.5323,-6.5323,-6.5378,-6.561,-6.5715,-6.5715,-6.5715,-6.552,-6.5485,-6.5627,-6.5783,-6.5987,-6.6185,-6.6459,-6.6606,-6.6505,-6.6695,-6.6784,-6.6687,-6.6907,-6.6993,-6.69,-6.6993,-6.7283,-6.7745,-6.7818,-6.8032,-6.8535,-6.8693,-6.8808,-6.8789,-6.8923,-6.9085,-6.9217,-6.9202,-6.9306,-4.0301,-4.0535,-3.9813,-3.4923,-3.363,-3.3584,-3.3631,-3.3638,-3.3631,-3.3586,-3.4576,-3.5735,-3.6842,-3.7648,-3.7942,-3.7305,-3.8042,-3.881,-3.9225,-4.0015,-4.1497,-4.3856,-4.4448,-4.5584,-4.8001,-5.1351,-5.3743,-5.4516,-5.67,-5.8751,-6.0518,-6.1101,-6.2361,-6.4473,-6.5041,-6.573,-6.6669,-6.6987,-6.692,-6.6469,-6.6007,-6.5549,-6.5112,-6.4435,-6.3327,-6.1892,-6.0649,-5.949,-5.8417,-5.7613,-5.7432,-5.7667,-5.7759,-5.7464,-5.6934,-5.7127,-5.677,-5.6181,-5.6623,-5.6445,-5.607,-5.6161,-5.6095,-5.6108,-5.6687,-5.6829,-5.7361,-6.0,-6.0895,-6.1407,-6.3457,-6.4568,-6.5176,-6.4807,-6.5287,-6.5692,-6.5134,-6.4997,-6.4839,-6.4615,-6.4507,-6.4423,-6.4423,-6.4781,-6.5104,-6.5297,-6.591,-6.6521,-6.6893,-6.7119,-6.7206,-6.7078,-6.7283,-6.7364,-6.7202,-6.7403,-6.7479,-6.736,-6.7518,-6.7782,-6.8234,-6.8266,-6.8529,-6.8993,-6.9009,-6.8997,-6.9036,-6.9023,-6.9133,-6.9202,-6.9247,-6.9615,-4.2054,-3.8993,-3.6703,-3.4323,-3.3652,-3.3632,-3.3695,-3.3652,-3.3653,-3.3673,-3.3586,-3.4668,-3.7863,-3.7679,-3.7339,-3.8338,-3.8729,-3.923,-3.9965,-4.0528,-4.189,-4.4627,-4.5731,-4.6981,-4.902,-5.082,-5.2735,-5.5002,-5.6532,-5.8032,-5.975,-6.0924,-6.2313,-6.4028,-6.4536,-6.5472,-6.7005,-6.7166,-6.7283,-6.7283,-6.74,-6.717,-6.658,-6.4172,-6.2852,-6.2489,-6.1002,-6.0717,-6.1404,-6.0899,-6.1137,-6.1787,-6.1277,-6.0288,-5.9139,-5.9355,-5.8549,-5.7328,-5.733,-5.7058,-5.6724,-5.6724,-5.6448,-5.6427,-5.8107,-5.8582,-5.8902,-6.0649,-6.141,-6.1728,-6.1764,-6.3111,-6.4421,-6.4384,-6.5401,-6.5989,-6.443,-6.3901,-6.3334,-6.1899,-6.1485,-6.1266,-6.1266,-6.2677,-6.3789,-6.3825,-6.5166,-6.6578,-6.7706,-6.8174,-6.8275,-6.7929,-6.8208,-6.8275,-6.7892,-6.8208,-6.8242,-6.7855,-6.8345,-6.8633,-6.8648,-6.8743,-6.8864,-6.902,-6.9023,-6.8999,-6.8999,-6.9156,-6.9202,-6.9224,-6.9407,-7.0333,-5.159,-4.8523,-4.4259,-3.7651,-3.4774,-3.4056,-3.5675,-3.4718,-3.363,-3.3643,-3.3586,-3.4581,-3.7889,-3.8226,-3.8196,-3.843,-3.9823,-4.0821,-4.0641,-4.1379,-4.2725,-4.4941,-4.5583,-4.6876,-4.9623,-5.2113,-5.3765,-5.4474,-5.5758,-5.7337,-5.9208,-5.9678,-6.0782,-6.2671,-6.4282,-6.5352,-6.5793,-6.7443,-6.8242,-6.8242,-6.7997,-6.719,-6.5939,-6.4977,-6.3567,-6.1907,-6.1903,-6.1715,-6.1322,-6.1744,-6.2074,-6.2198,-6.2084,-6.1068,-6.0019,-6.2856,-6.2746,-6.1133,-6.1315,-6.0867,-6.0234,-6.0365,-6.0011,-5.9733,-6.0209,-6.0316,-6.0733,-6.2734,-6.3386,-6.3775,-6.5091,-6.6009,-6.6174,-6.456,-6.479,-6.4915,-6.3239,-6.283,-6.2757,-6.2633,-6.256,-6.2485,-6.2485,-6.3582,-6.453,-6.4701,-6.6211,-6.7552,-6.8037,-6.8214,-6.8245,-6.8242,-6.8377,-6.841,-6.8275,-6.8377,-6.841,-6.8377,-6.8542,-6.8663,-6.8743,-6.8771,-6.8891,-6.9023,-6.9011,-6.9023,-6.9156,-6.9202,-6.9247,-6.9369,-7.0615,-7.1553,-4.5484,-4.4379,-4.2281,-3.4961,-3.5804,-3.9001,-4.1869,-3.7948,-3.3641,-3.3586,-3.3611,-3.4235,-3.6087,-3.7607,-3.8475,-3.8479,-3.9848,-4.0969,-4.1153,-4.1869,-4.3141,-4.5129,-4.6032,-4.7469,-5.0125,-5.2421,-5.3937,-5.4283,-5.567,-5.7041,-5.8236,-5.8677,-5.9707,-6.1572,-6.2913,-6.4288,-6.569,-6.7018,-6.7993,-6.8693,-6.8498,-6.7606,-6.5999,-6.5621,-6.3918,-6.1351,-6.219,-6.3008,-6.3791,-6.4245,-6.4442,-6.4442,-6.453,-6.3582,-6.2339,-6.4828,-6.4564,-6.3027,-6.3193,-6.2672,-6.1923,-6.2007,-6.1611,-6.1149,-6.1827,-6.2151,-6.2759,-6.4622,-6.5381,-6.5941,-6.6983,-6.7079,-6.6529,-6.5278,-6.4618,-6.3846,-6.2261,-6.1754,-6.1535,-6.1184,-6.1004,-6.0933,-6.0933,-6.2664,-6.4321,-6.5241,-6.686,-6.8037,-6.8214,-6.8214,-6.8282,-6.841,-6.8442,-6.8442,-6.8442,-6.8442,-6.8473,-6.864,-6.8633,-6.8656,-6.8808,-6.8854,-6.8934,-6.9011,-6.9085,-6.9133,-6.9202,-6.9247,-6.9311,-6.941,-7.1183,-7.244,-3.3544,-3.4863,-3.6589,-3.1245,-3.6371,-4.3943,0.0,-4.0704,-3.3088,-3.3547,-3.3611,-3.365,-3.3589,-3.6457,-3.8666,-3.8542,-3.9578,-4.0787,-4.1509,-4.2228,-4.3359,-4.5358,-4.6877,-4.8603,-5.0531,-5.2302,-5.3653,-5.4427,-5.6055,-5.7022,-5.7176,-5.7928,-5.9033,-6.058,-6.1043,-6.2706,-6.5759,-6.6132,-6.7082,-6.8582,-6.8923,-6.8075,-6.6227,-6.588,-6.3895,-6.0714,-6.1792,-6.4018,-6.6836,-6.7156,-6.7302,-6.7344,-6.7543,-6.6745,-6.5499,-6.5857,-6.5167,-6.4074,-6.4074,-6.3545,-6.2838,-6.2838,-6.2293,-6.1791,-6.3218,-6.3956,-6.4705,-6.617,-6.7151,-6.7855,-6.7892,-6.7138,-6.6318,-6.6102,-6.468,-6.3061,-6.1765,-6.1075,-6.0401,-5.9262,-5.8876,-5.8715,-5.8715,-6.1258,-6.3866,-6.5399,-6.7101,-6.8248,-6.8248,-6.8248,-6.8316,-6.841,-6.8442,-6.8442,-6.8442,-6.8442,-6.8473,-6.8603,-6.8626,-6.8677,-6.8836,-6.8934,-6.8999,-6.9036,-6.9156,-6.9202,-6.9224,-6.9332,-6.941,-6.9429,-7.1468,-7.3249,0.0,0.0,0.0,0.0,0.0,0.0,0.0,-3.4279,-2.9965,-3.2949,-3.3658,-3.3589,-3.3596,-3.7104,-3.9554,-3.8633,-4.1358,-4.3187,-4.1804,-4.2402,-4.3898,-4.619,-4.8614,-5.0271,-5.0694,-5.3204,-5.486,-5.5042,-5.6332,-5.7217,-5.7443,-5.802,-5.8601,-5.9228,-6.0658,-6.1756,-6.2533,-6.5224,-6.6821,-6.7246,-6.8658,-6.7735,-6.476,-6.4683,-6.2777,-5.9681,-6.1019,-6.2523,-6.4127,-6.6371,-6.7385,-6.7583,-6.7623,-6.7633,-6.7665,-6.783,-6.7508,-6.7005,-6.7005,-6.6441,-6.5673,-6.5673,-6.5251,-6.4859,-6.5144,-6.562,-6.617,-6.6747,-6.736,-6.7929,-6.8242,-6.8219,-6.7792,-6.643,-6.4869,-6.3598,-6.3205,-6.207,-6.141,-6.2404,-6.2523,-6.2493,-6.2493,-6.4155,-6.5403,-6.5238,-6.7018,-6.8377,-6.8377,-6.8377,-6.841,-6.8442,-6.8442,-6.8442,-6.8442,-6.8442,-6.8504,-6.8619,-6.8619,-6.8705,-6.8993,-6.896,-6.9061,-6.9184,-6.9179,-6.9262,-6.9343,-6.939,-6.9392,-6.9487,-7.2641,-7.4367,0.0,0.0,0.0,0.0,0.0,0.0,0.0,0.0,0.0,0.0,0.0,-3.6325,-3.6291,0.0,-3.675,-3.6141,-3.9085,-4.1837,-4.2932,-4.3475,-4.432,-4.5471,-4.7979,-5.0273,-5.1752,-5.3725,-5.5016,-5.5296,-5.6743,-5.7625,-5.7758,-5.8358,-5.8796,-5.8995,-5.9754,-6.0659,-6.171,-6.331,-6.4666,-6.5713,-6.6579,-6.5657,-6.3177,-6.3101,-6.1657,-5.9321,-6.1392,-6.2597,-6.3316,-6.623,-6.7547,-6.7742,-6.7892,-6.7892,-6.7855,-6.8071,-6.7818,-6.744,-6.744,-6.703,-6.6474,-6.6474,-6.6136,-6.5715,-6.5783,-6.6185,-6.6624,-6.7036,-6.7555,-6.8,-6.841,-6.794,-6.7152,-6.6304,-6.492,-6.373,-6.3577,-6.3069,-6.2844,-6.3599,-6.4192,-6.4532,-6.4532,-6.5215,-6.5749,-6.5711,-6.6673,-6.7599,-6.833,-6.8442,-6.8145,-6.7328,-6.7253,-6.7253,-6.7253,-6.7253,-6.765,-6.8559,-6.8685,-6.8808,-6.8993,-6.9048,-6.9123,-6.9184,-6.924,-6.9719,-7.0568,-6.9786,-6.9826,-7.073,-7.3436,-7.517,0.0,0.0,0.0,0.0,0.0,0.0,0.0,0.0,0.0,0.0,0.0,0.0,0.0,0.0,0.0,-3.3756,-3.5809,-3.8896,-4.2774,-4.3588,-4.3931,-4.445,-4.6934,-4.9581,-5.1942,-5.3859,-5.5105,-5.5531,-5.7189,-5.81,-5.8149,-5.8739,-5.908,-5.9089,-5.8991,-5.9703,-6.1357,-6.1563,-6.2489,-6.4069,0.0,0.0,-6.2002,-6.1907,-6.1016,-5.9704,-6.2251,-6.34,-6.373,-6.664,-6.7855,-6.7855,-6.8073,-6.7892,-6.7555,-6.7632,-6.736,-6.695,-6.695,-6.6678,-6.6331,-6.6331,-6.6037,-6.5732,-6.5835,-6.6283,0.0,-6.7197,-6.7632,-6.8143,-6.8542,-6.7629,-6.6615,-6.6586,-6.5387,-6.4279,-6.4498,-6.4735,-6.4856,-6.4894,-6.559,-6.6026,-6.5592,-6.5157,-6.5028,-6.5428,-6.5637,-6.63,-6.7835,-6.7996,-6.7625,-6.6622,-6.6548,-6.6548,-6.6548,-6.6251,-6.6801,-6.8529,-6.8424,-6.8528,-6.8982,-6.9136,-6.9208,-6.9208,-6.9622,-7.0455,-7.1733,-7.0823,-7.1069,-7.2426,-7.3388,-7.4721,0.0,0.0,0.0,0.0,0.0,0.0,0.0,0.0,0.0,0.0,0.0,0.0,0.0,0.0,0.0,0.0,-3.389,-3.5381,-3.8717,-4.0052,-4.1683,-4.419,-4.6968,-4.8684,-4.9047,-5.3398,-5.6218,-5.6231,-5.7431,-5.8386,-5.8954,0.0,0.0,0.0,0.0,-5.9281,-5.9736,-6.1108,-6.2014,-6.2454,-6.3893,-6.3664,-6.2021,-6.1999,-6.1676,-6.127,-6.3198,-6.4548,-6.5592,-6.7625,-6.8238,-6.7855,-6.7892,-6.7819,-6.7744,-6.732,-6.69,-6.6531,-6.6531,0.0,0.0,-6.5819,-6.5732,-6.5732,-6.5835,-6.6283,-6.6796,-6.7316,-6.7708,-6.8134,-6.8492,-6.8565,-6.8482,-6.8387,-6.7148,-6.6393,-6.7747,-6.8062,-6.8111,-6.8246,-6.8449,-6.7933,-6.5847,-6.3875,-6.2593,-6.2674,-6.3449,-6.465,-6.6309,-6.6416,-6.6808,-6.8033,0.0,0.0,-6.8145,-6.6882,-6.6801,-6.8529,-6.7352,-6.7306,-6.8974,-6.9123,-6.9194,-6.9202,-7.0697,-7.1545,-7.1733,-7.3157,-7.3971,-7.4084,-7.1538,-7.1242,0.0,0.0,0.0,0.0,0.0,0.0,0.0,0.0,0.0,0.0,0.0,0.0,0.0,0.0,0.0,0.0,-3.3029,-3.3287,-3.5363,-3.8362,-4.0654,-4.1883,-4.455,-4.716,-4.9736,-5.2947,-5.5405,-5.6694,-5.7999,-5.8644,-5.8537,-5.8872,-5.9099,-5.9065,-5.9094,-5.9201,-5.9495,-6.0116,-6.0561,-6.073,-6.141,-6.135,-6.0642,-6.0416,-6.0774,-6.1556,-6.2017,-6.3547,-6.5739,-6.657,-6.739,0.0,0.0,0.0,0.0,0.0,-6.6438,-6.6037,-6.6037,-6.5886,-6.5715,-6.5715,-6.5767,-6.5835,-6.5987,-6.6234,-6.6578,-6.7357,-6.7781,-6.8147,-6.8626,-6.8771,-6.8771,-6.8743,-6.8249,-6.7913,-6.8528,-6.8747,-6.8922,-6.9198,-6.758,0.0,-6.2268,-6.0996,-6.0734,-6.1709,-6.2154,-6.3349,-6.5965,-6.6058,-6.6157,-6.6993,-6.7068,-6.7068,-6.7068,-6.6436,0.0,0.0,0.0,-6.8062,-6.8971,-6.9074,0.0,0.0,0.0,-7.0853,-7.1852,-7.1596,0.0,0.0,-7.1236,-7.0682,0.0,0.0,0.0,0.0,0.0,0.0,0.0,0.0,0.0,0.0,0.0,0.0,0.0,0.0,0.0,0.0,-3.3095,-3.2125,-3.3063,-3.5897,-3.8509,-4.0019,-4.2958,-4.6074,-4.9208,-5.1657,-5.3924,-5.6068,-5.7122,-5.7724,-5.787,-5.8281,-5.8749,-5.9067,-5.9097,-5.9204,-5.948,-5.9365,-5.9318,-5.9455,-5.9363,-5.9364,-5.9344,-5.9066,-5.9778,-6.1168,-6.0977,-6.2412,-6.4902,-6.5551,-6.6472,-6.7408,-6.6969,-6.6873,-6.682,-6.6438,-6.5936,-6.5415,-6.5217,-6.5271,-6.5468,-6.5468,-6.568,-6.5936,-6.6087,-6.6234,-6.6438,-6.7275,-6.7812,-6.8187,-6.8566,-6.8743,-6.8883,-6.8891,-6.8854,-6.8817,-6.865,-6.7376,-6.662,-6.7725,-6.5082,-6.188,-5.9403,-5.9062,-5.9515,-6.0736,-6.0817,0.0,-6.4538,-6.4958,-6.5283,-6.5929,-6.6473,-6.6733,-6.6733,-6.6325,-6.6795,-6.8477,-6.8209,-6.8258,-6.8929,-6.9023,-6.9085,-6.9179,-7.0186,-7.1116,0.0,0.0,0.0,0.0,0.0,0.0,0.0,0.0,0.0,0.0,0.0,0.0,0.0,0.0,0.0,0.0,0.0,0.0,0.0,0.0,0.0,0.0,0.0,0.0,-3.1878,-3.2065,-3.4148,-3.9565,-4.3542,-4.589,-4.6018,-4.9035,-5.1821,-5.3801,-5.4006,-5.4923,-5.71,-5.7225,-5.7786,-5.9044,-5.9082,-5.923,-5.9473,-5.8962,-5.8781,-5.8915,-5.8685,-5.8546,-5.8553,-5.8546,-5.9104,-6.0108,-6.0779,-6.1678,-6.2892,-6.514,-6.5838,-6.5352,-6.456,-6.5184,-6.6427,-6.5886,-6.5326,-6.4678,-6.4054,-6.4234,-6.477,-6.4905,-6.5344,-6.5936,-6.6185,-6.6283,-6.6427,-6.7096,-6.7719,-6.8218,-6.8261,-6.8626,-6.9004,-6.8986,-6.8999,-6.8936,-6.8694,-6.3761,-6.0271,-6.32,-6.1121,-5.8821,-5.8729,-5.8916,-5.9114,-5.9163,-5.9044,0.0,-6.1159,-6.2611,-6.4029,-6.5547,-6.727,-6.8367,-6.8367,-6.6956,-6.6801,-6.8492,-6.7203,-6.7074,-6.8762,-6.9086,-6.9184,-6.9208,-7.2417,-7.3372,-7.1932,0.0,0.0,0.0,0.0,0.0,0.0,0.0,0.0,0.0,0.0,0.0,0.0,0.0,0.0,0.0,0.0,0.0,0.0,0.0,0.0,0.0,0.0,0.0,0.0,-3.825,-4.0373,-4.0284,-4.3923,-4.7686,-5.0761,-4.8949,-4.8812,-5.1692,-5.3132,-5.4158,-5.495,-5.4934,-5.5188,-5.5562,-5.6382,-5.7659,-5.9451,-5.9294,-5.9019,-5.8635,-5.8567,-5.8388,-5.8235,-5.7978,-5.8501,-5.9665,-5.883,-5.9888,-6.2211,-6.2123,-6.1343,-6.0369,-6.2629,-6.3402,-6.3403,-6.4607,-6.462,-6.4054,-6.381,-6.3871,-6.4054,-6.4114,-6.4352,-6.47,-6.5236,-6.5451,-6.5676,-6.6597,-6.6914,-6.6686,-6.5682,-6.6812,-6.727,-6.3383,-6.2437,-6.2418,-6.2327,-6.0485,-5.9126,-6.0151,-6.0647,-6.079,-6.0448,-5.9617,-5.929,-6.0237,-5.9377,-5.9212,-6.0763,-6.1334,-6.2643,-6.5399,-6.638,-6.729,-6.833,-6.7959,-6.7916,-6.8603,-6.7885,-6.7747,-6.8399,-6.833,-6.8454,-6.8827,-7.1029,-7.1547,-7.0251,0.0,0.0,0.0,0.0,0.0,0.0,0.0,0.0,0.0,0.0,0.0,0.0,0.0,0.0,0.0,0.0,0.0,0.0,0.0,0.0,0.0,0.0,0.0,0.0,0.0,0.0,-3.9543,-4.2106,0.0,-5.0804,-4.9618,-4.9539,-5.1691,-5.2439,-5.2813,-5.2857,-5.2814,-5.3333,-5.4431,-5.5238,-5.639,-5.8075,-5.8621,-5.8613,-5.8223,-5.7946,-5.7725,-5.7571,-5.7315,-5.7473,-5.7842,-5.7132,-5.7852,-5.9401,-5.8477,-5.8107,-5.8453,-6.0846,-6.2336,-6.3167,-6.4059,-6.4002,-6.3509,-6.3509,-6.3346,-6.3083,-6.3342,-6.3686,-6.4019,-6.4492,-6.4721,-6.491,-6.5584,-6.5767,-6.5483,-6.4317,-6.5529,-6.561,-5.9799,-5.8688,-5.8993,-5.9065,-5.8952,-5.9212,-6.0485,-6.172,-6.2463,-6.2129,-6.1253,-6.0735,-6.0996,-6.0067,-5.9462,-5.9824,-6.0295,-6.163,-6.4449,-6.5463,-6.6597,-6.8293,-6.8442,-6.841,-6.8345,-6.7616,-6.744,-6.7925,-6.7336,-6.7471,-6.8393,-6.9452,-6.9994,0.0,0.0,0.0,0.0,0.0,0.0,0.0,0.0,0.0,0.0,0.0,0.0,0.0,0.0,0.0,0.0,0.0,0.0,0.0,0.0,0.0,0.0,0.0,0.0,0.0,0.0,0.0,-3.7485,-3.821,0.0,0.0,0.0,0.0,-5.3321,-5.1963,-5.1098,-5.1153,-5.0982,-5.2305,-5.5286,-5.5353,-5.5382,-5.5376,-5.6692,-5.7428,-5.742,-5.6667,-5.6385,-5.6491,-5.6517,-5.5978,-5.5093,-5.5884,-5.5671,-5.4784,-5.4585,-5.6281,-5.9017,-5.9376,-6.1944,-6.5331,-6.4136,-6.3419,-6.3129,-6.3027,-6.2478,-6.1953,-6.2448,-6.3148,-6.3775,-6.3889,-6.3949,0.0,0.0,-6.4348,-6.4527,-6.4204,-6.4832,-6.4187,-5.8677,-5.8245,-5.9121,-5.9358,-5.9248,-6.0094,0.0,-6.3802,-6.3473,-6.3547,0.0,-6.2909,-6.1274,-6.0838,-6.0069,-5.8365,-5.9432,-6.1018,-6.2772,-6.4523,-6.6352,-6.8261,-6.8298,-6.8168,-6.7855,-6.6374,-6.612,-6.7403,-6.6162,-6.6228,-6.7995,-6.8063,0.0,0.0,0.0,0.0,0.0,0.0,0.0,0.0,0.0,0.0,0.0,0.0,0.0,0.0,0.0,0.0,0.0,0.0,0.0,0.0,0.0,0.0,0.0,0.0,0.0,0.0,-3.5868,-3.5975,-3.4641,-3.7269,-4.1051,0.0,0.0,0.0,0.0,0.0,0.0,-5.4059,-5.2078,-5.1319,-5.209,-5.2145,-5.2122,-5.2146,-5.2503,-5.2936,-5.3423,-5.3146,-5.4044,-5.5834,-5.5856,-5.5705,-5.5416,-5.4975,-5.4744,-5.4553,-5.3496,-5.3677,-5.522,-6.0516,-6.2678,-6.273,-6.2426,-6.2218,-6.2034,-6.1191,-6.1257,-6.1747,-6.0989,-6.0899,-6.1074,-6.1072,0.0,0.0,0.0,0.0,-6.3324,-6.3417,-6.3817,-6.3631,-6.1205,-6.2279,-6.3942,-6.3993,-6.1277,-5.9441,0.0,-6.1673,-6.1762,-6.291,0.0,0.0,0.0,0.0,-5.8446,-5.791,-5.8274,-5.9698,-6.2661,-6.3563,-6.5204,-6.815,-6.7064,-6.6708,-6.7782,-6.4871,-6.4304,-6.6907,-6.5409,-6.5472,-6.7558,0.0,0.0,0.0,0.0,0.0,0.0,0.0,0.0,0.0,0.0,0.0,0.0,0.0,0.0,0.0,0.0,0.0,0.0,0.0,0.0,0.0,0.0,0.0,0.0,0.0,0.0,0.0,-3.2098,-3.3025,-3.7843,-4.0239,-4.2639,0.0,0.0,0.0,0.0,0.0,0.0,0.0,0.0,0.0,-5.2072,-4.9887,-4.9806,-5.2046,-5.2142,-5.2558,-5.3366,-5.4974,-5.6485,-5.7825,-5.7848,-5.6382,-5.3925,-5.3826,-5.3035,-5.1821,-5.0686,-5.1802,-5.467,0.0,0.0,0.0,0.0,-5.8128,-5.9072,-6.0351,-6.0776,-6.063,-5.9916,0.0,0.0,0.0,0.0,0.0,0.0,0.0,-6.1734,0.0,0.0,-6.18,-6.1794,-6.3809,-6.5694,-6.5679,-6.2862,-6.0494,0.0,-6.1822,-6.2489,-6.2672,0.0,0.0,0.0,0.0,-5.8716,-5.7844,-5.7805,-5.9117,-6.2558,-6.3061,-6.449,-6.7703,-6.6452,-6.572,-6.6178,-6.3016,-6.2115,-6.4434,-6.363,-6.3654,0.0,0.0,0.0,0.0,0.0,0.0,0.0,0.0,0.0,0.0,0.0,0.0,0.0,0.0,0.0,0.0,0.0,0.0,0.0,0.0,0.0,0.0,0.0,0.0,0.0,0.0,0.0,0.0,0.0,-3.2989,-4.2551,0.0,0.0,0.0,0.0,0.0,0.0,0.0,0.0,0.0,0.0,0.0,0.0,0.0,-4.8656,-5.3759,-5.3885,-5.3977,-5.4216,-5.7327,-5.8917,-5.8845,-5.8892,-5.6068,-5.134,-5.1794,0.0,-4.736,-4.7751,0.0,0.0,0.0,0.0,0.0,0.0,0.0,0.0,0.0,0.0,0.0,0.0,0.0,0.0,0.0,0.0,0.0,0.0,0.0,0.0,0.0,0.0,-5.9971,-6.146,-6.358,-6.489,0.0,-6.2312,-6.0935,-6.0326,-6.1971,0.0,0.0,0.0,0.0,0.0,0.0,0.0,-5.7954,-5.7735,-5.9049,-6.2416,-6.2853,-6.4139,-6.7183,-6.594,-6.4758,-6.4172,-6.1042,-5.983,-6.1256,-6.1476,0.0,0.0,0.0,0.0,0.0,0.0,0.0,0.0,0.0,0.0,0.0,0.0,0.0,0.0,0.0,0.0,0.0,0.0,0.0,0.0,0.0,0.0,0.0,0.0,0.0,0.0,0.0,0.0,0.0,0.0,0.0,0.0,0.0,0.0,0.0,0.0,0.0,0.0,0.0,0.0,0.0,0.0,0.0,0.0,0.0,0.0,0.0,0.0,0.0,0.0,-4.9275,-4.9612,-4.9578,-4.9593,-4.8998,-4.7961,-4.6945,-4.4703,-4.2284,-4.8556,0.0,0.0,0.0,0.0,0.0,0.0,0.0,0.0,0.0,0.0,0.0,0.0,0.0,0.0,0.0,0.0,0.0,0.0,0.0,0.0,0.0,0.0,0.0,0.0,-6.2151,-6.0751,-5.4379,0.0,0.0,0.0,0.0,0.0,0.0,0.0,0.0,0.0,0.0,0.0,-5.7699,-5.7735,-5.9049,-6.2416,-6.2598,-6.3804,-6.7183,-6.4369,-6.2937,-6.41,-5.9428,-5.7881,0.0,0.0,0.0,0.0,0.0,0.0,0.0,0.0,0.0,0.0,0.0,0.0,0.0,0.0,0.0,0.0,0.0,0.0,0.0,0.0,0.0,0.0,0.0,0.0,0.0,0.0,0.0,0.0,0.0,0.0,0.0,0.0,0.0,0.0,0.0,0.0,0.0,0.0,0.0,0.0,0.0,0.0,0.0,0.0,0.0,0.0,0.0,0.0,0.0,0.0,0.0,0.0,0.0,0.0,0.0,0.0,0.0,0.0,0.0,-4.2757,0.0,0.0,0.0,0.0,0.0,0.0,0.0,0.0,0.0,0.0,0.0,0.0,0.0,0.0,0.0,0.0,0.0,0.0,0.0,0.0,0.0,0.0,0.0,0.0,0.0,0.0,0.0,0.0,0.0,0.0,0.0,0.0,0.0,0.0,0.0,0.0,0.0,0.0,0.0,0.0,-5.7098,-5.7137,-5.8408,-6.1716,-6.2048,-6.324,-6.6379,-6.3639,-6.2169,-6.3182,-5.8615,0.0,0.0,0.0,0.0,0.0,0.0,0.0,0.0,0.0,0.0,0.0,0.0,0.0,0.0,0.0,0.0,0.0,0.0,0.0,0.0,0.0,0.0,0.0,0.0,0.0,0.0,0.0,0.0,0.0,0.0,0.0,0.0,0.0,0.0,0.0,0.0,0.0,0.0,0.0,0.0,0.0,0.0,0.0,0.0,0.0,0.0,0.0,0.0,0.0,0.0,0.0,0.0,0.0,0.0,0.0,0.0,0.0,0.0,0.0,-4.304,0.0,0.0,0.0,0.0,0.0,0.0,0.0,0.0,0.0,0.0,0.0,0.0,0.0,0.0,0.0,0.0,0.0,0.0,0.0,0.0,0.0,0.0,0.0,0.0,0.0,0.0,0.0,0.0,0.0,0.0,0.0,0.0,0.0,0.0,0.0,0.0,0.0,0.0,0.0,0.0,0.0,-5.6751,-5.6711,-5.7794,-6.1097,-6.1277,-6.2438,-6.5446,-6.2817,-6.1343,-6.214,-5.8191,0.0,0.0,0.0,0.0,0.0,0.0,0.0,0.0,0.0,0.0,0.0,0.0,0.0,0.0,0.0,0.0,0.0,0.0,0.0,0.0,0.0,0.0,0.0,0.0,0.0,0.0,0.0,0.0,0.0,0.0,0.0,0.0,0.0,0.0,0.0,0.0,0.0,0.0,0.0,0.0,0.0,0.0,0.0,0.0,0.0,0.0,0.0,0.0,0.0,0.0,0.0,0.0,0.0,0.0,0.0,0.0,0.0,0.0,0.0,0.0,0.0,0.0,0.0,0.0,0.0,0.0,0.0,0.0,0.0,0.0,0.0,0.0,0.0,0.0,0.0,0.0,0.0,0.0,0.0,0.0,0.0,0.0,0.0,0.0,0.0,0.0,0.0,0.0,0.0,0.0,0.0,0.0,0.0,0.0,0.0,0.0,0.0,0.0,0.0,0.0,0.0,-5.7583,-5.7055,-5.7794,-6.1097,-6.0568,-6.1357,-6.4733,-6.1425,-5.9852,-6.1389,0.0,0.0,0.0,0.0,0.0,0.0,0.0,0.0,0.0,0.0,0.0,0.0,0.0,0.0,0.0,0.0,0.0,0.0,0.0,0.0,0.0,0.0,0.0,0.0,0.0,0.0,0.0,0.0,0.0,0.0,0.0,0.0,0.0,0.0,0.0,0.0,0.0,0.0,0.0,0.0,0.0,0.0,0.0,0.0,0.0,0.0,0.0,0.0,0.0,0.0,0.0,0.0,0.0,0.0,0.0,0.0,0.0,0.0,0.0,0.0,0.0,0.0,0.0,0.0,0.0,0.0,0.0,0.0,0.0,0.0,0.0,0.0,0.0,0.0,0.0,0.0,0.0,0.0,0.0,0.0,0.0,0.0,0.0,0.0,0.0,0.0,0.0,0.0,0.0,0.0,0.0,0.0,0.0,0.0,0.0,0.0,0.0,0.0,0.0,0.0,0.0,0.0,-5.6666,-5.5689,-5.6091,-5.9251,-5.917,-6.03,-6.3724,-6.159,-6.0442,-6.1328,0.0,0.0,0.0,0.0,0.0,0.0,0.0,0.0,0.0,0.0,0.0,0.0,0.0,0.0,0.0,0.0,0.0,0.0,0.0,0.0,0.0,0.0,0.0,0.0,0.0,0.0,0.0,0.0,0.0,0.0,0.0,0.0,0.0,0.0,0.0,0.0,0.0,0.0,0.0,0.0,0.0,0.0,0.0,0.0,0.0,0.0,0.0,0.0,0.0,0.0,0.0,0.0,0.0,0.0,0.0,0.0,0.0,0.0,0.0,0.0,0.0,0.0,0.0,0.0,0.0,0.0,0.0,0.0,0.0,0.0,0.0,0.0,0.0,0.0,0.0,0.0,0.0,0.0,0.0,0.0,0.0,0.0,0.0,0.0,0.0,0.0,0.0,0.0,0.0,0.0,0.0,0.0,0.0,0.0,0.0,0.0,0.0,0.0,0.0,0.0,0.0,0.0,-5.5801,-5.4677,-5.4973,-5.7975,-5.8095,-5.932,-6.2746,-6.1122,-6.0281,-6.1124,0.0,0.0,0.0,0.0,0.0,0.0,0.0,0.0,0.0,0.0,0.0,0.0,0.0,0.0,0.0,0.0,0.0,0.0,0.0,0.0,0.0,0.0,0.0,0.0,0.0,0.0,0.0,0.0,0.0,0.0,0.0,0.0,0.0,0.0,0.0,0.0,0.0,0.0,0.0,0.0,0.0,0.0,0.0,0.0,0.0,0.0,0.0,0.0,0.0,0.0,0.0,0.0,0.0,0.0,0.0,0.0,0.0,0.0,0.0,0.0,0.0,0.0,0.0,0.0,0.0,0.0,0.0,0.0,0.0,0.0,0.0,0.0,0.0,0.0,0.0,0.0,0.0,0.0,0.0,0.0,0.0,0.0,0.0,0.0,0.0,0.0,0.0,0.0,0.0,0.0,0.0,0.0,0.0,0.0,0.0,0.0,0.0,0.0,0.0,0.0,0.0,0.0,-5.5655,-5.4636,-5.4973,-5.7975,-5.7584,-5.8529,-6.1938,-5.9519,-5.8534,0.0,0.0,0.0,0.0,0.0,0.0,0.0,0.0,0.0,0.0,0.0,0.0,0.0,0.0,0.0,0.0,0.0,0.0,0.0,0.0,0.0,0.0,0.0,0.0,0.0,0.0,0.0,0.0,0.0,0.0,0.0,0.0,0.0,0.0,0.0,0.0,0.0,0.0,0.0,0.0,0.0,0.0,0.0,0.0,0.0,0.0,0.0,0.0,0.0,0.0,0.0,0.0,0.0,0.0,0.0,0.0,0.0,0.0,0.0,0.0,0.0,0.0,0.0,0.0,0.0,0.0,0.0,0.0,0.0,0.0,0.0,0.0,0.0,0.0,0.0,0.0,0.0,0.0,0.0,0.0,0.0,0.0,0.0,0.0,0.0,0.0,0.0,0.0,0.0,0.0,0.0,0.0,0.0,0.0,0.0,0.0,0.0,0.0,0.0,0.0,0.0,0.0,0.0,-5.4416,-5.3646,-5.3612,0.0,-5.5543,-5.7178,-6.084,-5.9338,-5.8542,-5.9252,0.0,0.0,0.0,0.0,0.0,0.0,0.0,0.0,0.0,0.0,0.0,0.0,0.0,0.0,0.0,0.0,0.0,0.0,0.0,0.0,0.0,0.0,0.0,0.0,0.0,0.0,0.0,0.0,0.0,0.0,0.0,0.0,0.0,0.0,0.0,0.0,0.0,0.0,0.0,0.0,0.0,0.0,0.0,0.0,0.0,0.0,0.0,0.0,0.0,0.0,0.0,0.0,0.0,0.0,0.0,0.0,0.0,0.0,0.0,0.0,0.0,0.0,0.0,0.0,0.0,0.0,0.0,0.0,0.0,0.0,0.0,0.0,0.0,0.0,0.0,0.0,0.0,0.0,0.0,0.0,0.0,0.0,0.0,0.0,0.0,0.0,0.0,0.0,0.0,0.0,0.0,0.0,0.0,0.0,0.0,0.0,0.0,0.0,0.0,0.0,0.0,0.0,0.0,-5.3209,-5.3658,0.0,-5.6163,-5.7995,-6.1111,-5.9836,-5.8754,-5.8695,0.0,0.0,0.0,0.0,0.0,0.0,0.0,0.0,0.0,0.0,0.0,0.0,0.0,0.0,0.0,0.0,0.0,0.0,0.0,0.0,0.0,0.0,0.0,0.0,0.0,0.0,0.0,0.0,0.0,0.0,0.0,0.0,0.0,0.0,0.0,0.0,0.0,0.0,0.0,0.0,0.0,0.0,0.0,0.0,0.0,0.0,0.0,0.0,0.0,0.0,0.0,0.0,0.0,0.0,0.0,0.0,0.0,0.0,0.0,0.0,0.0,0.0,0.0,0.0,0.0,0.0,0.0,0.0,0.0,0.0,0.0,0.0,0.0,0.0,0.0,0.0,0.0,0.0,0.0,0.0,0.0,0.0,0.0,0.0,0.0,0.0,0.0,0.0,0.0,0.0,0.0,0.0,0.0,0.0,0.0,0.0,0.0,0.0,0.0,0.0,0.0,0.0,0.0,-5.325,-5.4684,-5.7124,-5.8614,-6.0258,-6.2128,-6.0299,-5.8942,-5.8635,-5.6518,0.0,0.0,0.0,0.0,0.0,0.0,0.0,0.0,0.0,0.0,0.0,0.0,0.0,0.0,0.0,0.0,0.0,0.0,0.0,0.0,0.0,0.0,0.0,0.0,0.0,0.0,0.0,0.0,0.0,0.0,0.0,0.0,0.0,0.0,0.0,0.0,0.0,0.0,0.0,0.0,0.0,0.0,0.0,0.0,0.0,0.0,0.0,0.0,0.0,0.0,0.0,0.0,0.0,0.0,0.0,0.0,0.0,0.0,0.0,0.0,0.0,0.0,0.0,0.0,0.0,0.0,0.0,0.0,0.0,0.0,0.0,0.0,0.0,0.0,0.0,0.0,0.0,0.0,0.0,0.0,0.0,0.0,0.0,0.0,0.0,0.0,0.0,0.0,0.0,0.0,0.0,0.0,0.0,0.0,0.0,0.0,0.0,0.0,0.0,0.0,0.0,0.0,-5.3415,-5.442,-5.452,-5.6079,-5.7869,-5.9468,-5.8269,-5.7403,-5.7478,-5.5122,0.0,0.0,0.0,0.0,0.0,0.0,0.0,0.0,0.0,0.0,0.0,0.0,0.0,0.0,0.0,0.0,0.0,0.0,0.0,0.0,0.0,0.0,0.0,0.0,0.0,0.0,0.0,0.0,0.0,0.0,0.0,0.0,0.0,0.0,0.0,0.0,0.0,0.0,0.0,0.0,0.0,0.0,0.0,0.0,0.0,0.0,0.0,0.0,0.0,0.0,0.0,0.0,0.0,0.0,0.0,0.0,0.0,0.0,0.0,0.0,0.0,0.0,0.0,0.0,0.0,0.0,0.0,0.0,0.0,0.0,0.0,0.0,0.0,0.0,0.0,0.0,0.0,0.0,0.0,0.0,0.0,0.0,0.0,0.0,0.0,0.0,0.0,0.0,0.0,0.0,0.0,0.0,0.0,0.0,0.0,0.0,0.0,0.0,0.0,0.0,0.0,0.0,-5.1447,-5.3416,-5.5,-5.6762,-5.8193,-5.9446,-5.7789,-5.689,-5.7094,-5.4338,0.0,0.0,0.0,0.0,0.0,0.0,0.0,0.0,0.0,0.0,0.0,0.0,0.0,0.0,0.0,0.0,0.0,0.0,0.0,0.0,0.0,0.0,0.0,0.0,0.0,0.0,0.0,0.0,0.0,0.0,0.0,0.0,0.0,0.0,0.0,0.0,0.0,0.0,0.0,0.0,0.0,0.0,0.0,0.0,0.0,0.0,0.0,0.0,0.0,0.0,0.0,0.0,0.0,0.0,0.0,0.0,0.0,0.0,0.0,0.0,0.0,0.0,0.0,0.0,0.0,0.0,0.0,0.0,0.0,0.0,0.0,0.0,0.0,0.0,0.0,0.0,0.0,0.0,0.0,0.0,0.0,0.0,0.0,0.0,0.0,0.0,0.0,0.0,0.0,0.0,0.0,0.0,0.0,0.0,0.0,0.0,0.0,0.0,0.0,0.0,0.0,0.0,0.0,-5.2085,-5.6214,-5.7843,-5.896,-5.9342,-5.7683,-5.6504,-5.6346,0.0,0.0,0.0,0.0,0.0,0.0,0.0,0.0,0.0,0.0,0.0,0.0,0.0,0.0,0.0,0.0,0.0,0.0,0.0,0.0,0.0,0.0,0.0,0.0,0.0,0.0,0.0,0.0,0.0,0.0,0.0,0.0,0.0,0.0,0.0,0.0,0.0,0.0,0.0,0.0,0.0,0.0,0.0,0.0,0.0,0.0,0.0,0.0,0.0,0.0,0.0,0.0,0.0,0.0,0.0,0.0,0.0,0.0,0.0,0.0,0.0,0.0,0.0,0.0,0.0,0.0,0.0,0.0,0.0,0.0,0.0,0.0,0.0,0.0,0.0,0.0,0.0,0.0,0.0,0.0,0.0,0.0,0.0,0.0,0.0,0.0,0.0,0.0,0.0,0.0,0.0,0.0,0.0,0.0,0.0,0.0,0.0,0.0,0.0,0.0,0.0,0.0,0.0,0.0,-5.1371,-5.3018,-5.51,-5.5526,-5.3741,-5.4937,-5.495,-5.2859,0.0,0.0,0.0,0.0,0.0,0.0,0.0,0.0,0.0,0.0,0.0,0.0,0.0,0.0]}]]]